GFSNGP_925_spd_000.txt.gz
Wind_Speed
2 4 2 1 4 6 6 5 6 5 7 6 11 10 10 8 7 7 7 7 7 7 13 14 12 11 8 7 8 8 8 9 12 16 18 20 21 18 17 16 14 15 15 8
0 4 5 3 5 6 4 3 7 2 7 5 4 8 7 9 9 7 7 7 7 11 17 16 16 13 9 11 10 10 11 12 14 17 19 22 22 19 17 12 12 10 10 12
3 3 5 6 8 8 5 4 6 6 8 6 5 9 12 9 9 9 8 8 8 12 20 21 15 12 12 11 13 13 13 15 16 17 20 23 20 17 15 14 17 15 17 8
2 3 2 6 2 4 5 4 6 3 5 10 5 3 6 6 9 9 8 7 9 16 18 17 12 12 12 14 15 15 16 18 18 17 21 24 20 18 18 18 17 13 9 2
4 3 5 5 5 7 8 7 9 7 4 5 4 4 5 8 7 8 8 15 16 15 14 12 11 10 13 16 16 14 18 20 19 17 22 23 19 18 18 16 13 6 4 3
3 4 6 6 3 3 3 5 8 8 8 8 7 3 9 9 8 11 13 10 9 8 9 7 6 9 9 10 15 19 20 21 19 17 22 20 17 16 12 7 7 8 6 2
2 3 8 7 2 2 5 7 6 9 9 9 7 7 2 4 5 10 7 10 9 9 6 3 3 4 10 14 17 17 18 21 20 19 20 17 16 14 14 10 8 7 4 2
3 2 8 6 3 7 6 2 6 8 8 14 6 7 5 6 7 12 15 13 9 6 1 2 5 9 12 14 14 18 20 22 21 23 20 15 15 12 8 7 8 6 4 4
8 6 5 6 5 4 2 3 5 7 7 11 8 7 8 7 9 13 14 12 7 3 1 5 8 11 12 13 18 21 22 20 23 23 15 13 13 9 7 7 7 6 8 8
2 4 7 8 6 6 6 7 4 6 7 10 7 7 6 7 7 11 9 7 3 2 5 9 11 12 11 17 19 21 18 17 21 15 10 10 10 9 8 7 8 11 11 10
5 8 6 8 7 9 6 5 5 4 6 8 8 8 12 10 10 10 7 5 3 3 6 11 12 13 16 19 18 17 16 17 19 14 10 8 8 8 7 6 9 13 12 10
6 9 5 7 5 1 6 8 7 7 6 5 8 11 11 9 10 8 8 5 3 5 8 12 13 17 18 13 11 13 16 15 18 17 16 12 11 11 8 7 7 9 11 12
6 2 6 6 5 3 5 5 6 6 8 10 13 18 15 11 9 8 6 5 6 7 10 13 16 18 16 10 12 14 17 17 18 16 15 13 14 16 11 9 9 8 10 11
5 3 5 4 5 2 3 9 16 18 19 20 21 17 11 6 7 8 8 8 6 8 11 14 15 17 12 11 14 14 15 15 15 16 11 12 15 18 16 16 12 11 11 10
5 7 2 2 6 7 13 17 14 11 15 13 16 10 10 10 9 9 9 7 7 10 13 13 13 13 11 15 15 15 15 16 16 14 14 18 13 15 16 17 16 14 13 12
5 5 7 9 10 10 13 12 16 11 6 5 7 10 12 10 8 10 9 7 8 12 13 12 12 11 15 15 17 17 16 15 14 13 12 8 8 12 15 17 18 17 17 14
3 5 7 10 11 13 13 12 10 8 9 7 9 10 9 9 10 12 9 9 10 11 12 14 15 14 15 15 14 19 19 17 17 16 16 16 16 16 16 15 17 20 19 15
15 15 14 12 11 11 7 7 7 6 7 8 10 8 9 11 14 12 14 12 13 14 14 14 13 10 11 14 17 20 18 16 20 21 21 21 19 20 20 18 17 18 20 17
21 16 16 14 11 7 4 3 4 5 5 6 8 11 14 15 14 16 14 14 16 16 17 13 11 12 13 16 18 20 19 21 23 22 22 23 21 20 20 21 20 19 20 22
9 10 10 6 5 5 3 4 6 8 8 8 10 11 13 16 13 12 11 15 18 18 14 14 13 17 19 22 19 19 20 21 22 22 20 21 21 21 20 21 21 22 22 23
7 6 5 4 3 3 4 5 7 9 8 8 9 13 13 16 16 13 11 12 23 13 12 14 16 18 18 20 19 20 22 20 22 21 20 21 23 23 25 27 29 29 28 27
3 1 1 2 5 7 6 7 7 8 9 10 11 13 15 18 18 18 17 20 26 17 12 14 15 16 18 20 21 22 20 19 20 21 21 22 23 26 27 28 28 29 30 31
2 3 3 3 5 7 9 9 9 9 11 13 15 17 18 20 21 15 14 19 16 16 16 17 20 18 17 20 21 19 15 15 17 17 19 21 22 23 24 25 26 27 28 30
3 1 4 6 8 12 14 16 16 17 18 18 18 19 17 21 27 22 23 24 23 24 24 22 20 15 14 15 15 20 16 17 12 14 16 17 18 19 21 22 25 27 27 28
9 10 12 13 15 14 17 19 19 20 22 22 23 23 24 24 20 29 25 26 27 27 25 19 16 13 10 8 9 13 15 15 15 15 15 16 18 21 23 26 27 26 27 27
13 14 14 12 12 13 14 15 15 17 19 21 21 20 23 27 28 28 28 28 26 26 20 12 6 6 9 13 14 13 12 12 12 13 14 16 19 21 23 26 26 26 27 28
9 13 12 12 15 17 20 20 19 19 21 22 24 25 25 25 25 28 29 25 23 16 5 2 4 9 13 12 11 11 11 11 12 14 16 19 22 26 28 29 30 28 28 27

GFSNGP_925_spd_003.txt.gz
Wind_Speed
1 1 1 2 4 8 7 4 6 4 8 6 9 12 11 9 12 14 14 12 11 12 16 16 14 11 9 6 5 6 8 9 9 11 14 16 20 20 16 13 9 12 12 8
4 1 3 3 5 7 6 3 10 4 11 9 1 7 11 14 15 15 14 13 12 15 18 13 12 11 10 8 6 8 11 12 12 12 15 17 21 20 16 14 11 12 13 9
3 2 2 5 9 10 5 5 7 8 8 5 6 11 15 16 16 15 14 14 13 16 19 19 16 14 10 7 7 11 13 15 14 15 17 17 21 19 14 14 13 12 11 7
2 1 1 4 2 2 9 6 12 4 4 6 3 3 7 13 16 15 14 13 13 17 17 18 16 13 11 8 11 14 16 16 16 17 17 17 20 16 14 14 13 11 9 6
3 3 5 4 3 5 6 5 10 12 5 3 4 2 6 13 13 15 14 15 15 18 18 15 17 13 10 10 13 12 13 17 18 19 19 17 17 15 15 14 10 8 6 6
3 2 4 4 2 3 2 4 2 8 5 7 8 4 6 12 14 13 12 11 12 14 13 13 12 9 8 8 8 13 16 16 18 19 18 16 16 16 15 13 11 8 7 5
2 3 7 6 1 2 3 4 1 6 7 11 7 6 2 4 7 16 14 14 14 12 10 10 8 7 5 7 12 13 14 17 20 20 18 18 18 15 13 12 9 8 8 6
3 1 6 5 2 5 4 2 2 6 9 13 12 6 4 4 7 12 15 16 17 17 12 9 8 4 6 10 12 12 17 20 20 18 18 20 14 11 10 8 7 8 8 8
7 4 4 5 4 2 2 3 3 3 6 10 7 7 7 7 9 12 16 15 15 13 11 6 2 4 7 11 10 15 19 18 15 16 18 13 9 8 6 6 7 7 8 9
1 2 7 10 9 8 7 10 6 7 6 9 12 10 8 9 10 14 14 14 9 8 5 2 2 6 8 8 13 17 14 14 14 15 15 9 8 8 7 8 8 8 10 10
4 8 5 7 8 10 8 6 8 6 6 9 10 11 12 12 11 16 14 5 7 6 4 2 5 7 8 11 15 10 9 12 14 14 14 11 9 8 10 10 8 6 9 10
5 8 4 6 4 3 4 6 6 6 3 4 8 12 16 11 14 13 10 10 8 5 3 4 6 10 11 11 7 8 10 10 14 16 14 12 11 11 13 12 9 9 9 11
5 1 4 5 7 5 6 6 2 3 5 9 13 19 19 15 14 6 7 10 7 5 4 5 8 12 11 7 6 10 12 13 12 13 13 10 8 10 12 12 12 12 11 12
4 2 5 1 4 7 4 9 17 21 23 23 22 19 19 12 6 10 12 9 6 5 6 7 10 10 5 4 9 11 12 13 13 13 12 11 8 10 13 14 13 11 13 13
9 4 3 6 8 9 12 16 16 15 15 19 20 15 8 9 13 10 8 7 7 7 9 10 8 6 5 8 11 12 13 12 15 14 15 14 16 15 12 12 12 12 13 15
7 10 11 11 12 11 13 14 15 10 11 11 7 11 12 11 10 8 7 8 8 11 12 10 9 9 10 12 13 13 13 16 16 16 16 16 14 11 9 11 12 14 15 15
1 5 9 10 12 13 13 11 10 6 4 5 9 8 8 9 9 10 10 9 12 17 15 12 15 14 15 12 11 10 11 15 17 19 15 15 16 16 16 14 14 16 16 20
15 15 14 12 10 10 6 6 4 5 7 7 6 7 7 8 10 12 12 13 15 17 19 19 17 16 14 13 12 13 17 18 17 18 21 19 18 20 19 16 16 17 18 19
15 14 14 14 12 10 8 7 5 5 6 7 6 7 7 9 11 13 14 15 17 16 22 16 15 15 17 17 18 19 19 20 19 18 20 21 18 18 19 19 19 19 20 18
8 7 6 4 3 3 3 3 5 6 6 6 6 7 9 11 10 10 11 15 19 21 21 20 18 16 16 17 18 19 19 19 20 19 19 18 17 17 18 22 21 20 20 21
6 5 5 6 7 8 8 9 10 10 9 8 8 11 12 15 16 15 12 12 24 22 19 18 17 16 15 15 15 17 20 21 20 20 18 18 17 17 18 21 23 24 24 25
3 3 4 6 8 10 12 11 11 12 13 13 13 14 15 19 19 18 19 18 23 20 20 19 19 18 18 19 19 18 20 20 21 18 18 19 15 13 14 16 17 18 19 21
1 4 6 7 8 7 9 15 16 14 15 17 18 20 18 18 15 13 16 19 23 26 26 28 27 27 26 19 17 18 18 19 20 17 15 12 12 11 12 14 16 17 19 20
8 9 8 9 11 17 16 18 20 18 17 15 15 17 19 21 24 16 20 26 27 27 27 28 28 28 22 19 18 15 8 10 11 10 8 7 9 11 12 15 19 20 22 23
15 14 15 15 14 13 14 17 16 17 19 19 19 19 19 19 21 32 29 29 28 27 27 27 26 27 16 10 5 5 9 11 11 10 10 10 10 11 13 16 18 20 24 26
14 14 13 13 12 13 14 15 16 17 20 20 20 21 23 25 25 26 29 31 31 31 27 19 11 7 7 5 4 6 6 7 8 9 10 11 13 14 17 20 22 24 26 27
13 13 11 9 11 12 14 14 15 17 19 21 23 25 27 25 28 29 29 30 29 19 4 4 6 10 9 10 9 8 8 8 10 11 13 14 15 17 19 21 23 26 28 29

GFSNGP_925_spd_006.txt.gz
Wind_Speed
1 1 3 4 8 13 15 12 7 7 11 7 6 8 8 9 13 15 17 18 18 17 20 22 21 17 13 13 10 8 6 6 7 7 8 9 11 14 15 13 12 11 10 9
4 2 2 6 10 11 15 14 15 16 19 13 7 5 8 11 14 16 16 18 18 18 22 22 21 17 15 12 10 8 7 8 9 9 10 11 13 14 15 14 13 13 14 11
3 1 2 5 15 17 11 11 12 12 11 4 6 9 10 12 14 16 16 18 19 19 21 20 21 16 15 12 10 9 8 9 10 11 11 13 13 14 15 13 13 14 15 11
1 2 3 1 1 2 12 15 13 16 9 7 5 3 5 9 13 15 17 18 17 18 18 19 19 15 13 12 10 8 8 10 10 11 13 14 14 15 15 13 13 12 12 10
3 4 6 9 4 4 5 5 4 12 10 4 2 4 10 11 14 15 15 17 18 17 16 18 18 16 14 12 9 9 8 9 12 12 14 15 16 16 16 14 13 13 10 8
3 3 4 3 3 0 2 6 6 2 2 6 5 4 6 9 13 13 16 17 16 16 16 18 16 15 16 12 9 7 9 10 11 12 14 17 17 17 16 14 13 10 8 7
4 4 5 1 1 3 3 3 3 2 3 7 7 8 4 1 8 14 16 17 17 18 18 16 14 16 13 9 7 7 8 9 12 13 15 17 17 17 17 14 11 7 7 8
2 3 4 5 5 3 3 2 4 4 5 9 12 6 6 4 4 8 13 13 15 14 13 13 11 9 8 6 5 6 8 10 14 14 13 14 16 17 13 11 9 7 7 8
6 1 3 8 6 3 3 7 8 8 9 8 11 12 9 7 6 8 12 13 14 15 13 9 7 5 4 5 5 7 9 12 13 12 13 13 13 11 10 9 8 8 8 8
2 3 9 9 10 11 11 11 11 11 11 11 12 12 10 7 7 10 12 13 14 16 12 7 2 2 4 4 6 9 11 11 11 10 10 10 9 9 11 9 9 8 8 11
5 11 8 8 8 7 7 8 9 9 9 10 10 9 6 7 8 12 13 12 11 10 4 4 3 4 5 6 8 9 9 9 10 9 8 11 11 11 11 11 11 10 8 8
5 8 5 8 5 6 9 10 10 10 9 4 4 0 5 8 12 12 13 11 9 3 2 3 4 6 7 8 8 7 8 10 10 10 10 10 10 11 14 16 14 14 11 10
5 7 9 10 8 10 8 10 9 8 8 8 11 11 17 17 15 15 12 5 4 7 6 5 7 9 9 9 7 8 11 12 10 10 10 10 10 9 11 10 17 18 16 14
7 7 4 10 5 9 11 14 18 19 18 18 20 19 16 15 14 8 4 8 9 8 7 8 10 11 9 7 8 11 13 13 12 13 12 12 11 11 10 12 12 14 16 16
11 9 6 8 11 10 12 14 15 14 15 16 16 16 12 7 6 6 8 9 9 8 10 11 12 12 9 10 11 13 13 13 13 14 13 13 13 15 15 14 15 14 13 14
6 9 11 13 11 11 12 13 12 9 9 9 8 6 4 4 7 9 9 9 8 10 11 12 16 16 13 13 13 13 13 14 13 13 15 16 15 16 16 14 14 15 15 15
2 7 9 12 12 11 10 9 8 6 5 2 4 6 9 9 9 10 9 9 12 16 19 21 24 17 16 15 15 15 14 14 14 15 14 15 17 14 17 18 18 18 18 17
13 12 13 12 10 9 7 8 5 1 5 8 8 7 6 7 8 10 12 14 17 20 23 23 23 23 21 17 16 17 17 17 16 16 16 16 18 20 20 21 23 21 20 18
14 13 12 10 8 6 5 5 5 5 7 9 9 9 9 9 9 11 12 14 17 14 18 17 18 19 21 18 18 17 19 20 21 18 18 18 19 19 19 21 22 23 22 19
10 9 8 8 8 8 7 7 8 7 7 8 9 9 11 11 11 13 13 14 20 20 22 21 20 21 22 20 19 17 19 21 20 19 21 20 19 20 19 21 22 22 21 21
7 7 7 8 9 10 10 9 11 11 9 11 11 10 13 19 18 18 14 15 18 19 21 23 20 19 19 19 19 19 22 21 19 20 22 22 19 19 20 19 19 19 20 21
4 5 6 7 10 11 13 13 13 14 15 16 15 14 14 15 18 17 15 19 20 21 25 25 24 24 25 27 23 25 25 20 16 18 22 22 20 19 14 13 13 14 14 15
5 6 9 11 10 8 10 13 12 11 12 13 13 15 16 16 16 18 18 19 24 27 30 28 29 32 32 31 29 27 25 17 15 8 11 13 10 8 7 10 10 12 14 16
11 12 11 9 9 10 11 14 13 12 13 13 13 15 17 20 19 18 22 27 28 31 32 32 33 35 36 29 27 26 22 9 2 5 7 8 8 8 8 10 11 12 14 15
12 11 10 8 8 9 10 13 12 12 14 14 15 16 18 19 21 26 25 28 28 31 31 27 22 17 11 9 8 6 1 6 4 4 5 6 7 8 9 10 12 13 15 16
9 8 8 9 9 9 10 11 12 13 16 17 17 19 20 20 22 24 24 25 24 21 19 18 18 16 15 14 13 13 11 13 10 7 7 7 9 10 11 13 14 15 16 18
10 8 7 6 8 9 10 10 12 14 15 16 17 18 19 20 20 19 20 20 20 18 17 17 17 17 15 14 14 13 11 10 11 11 10 10 10 11 13 15 16 17 18 19

GFSNGP_925_spd_009.txt.gz
Wind_Speed
12 5 5 8 9 13 16 15 13 11 11 8 6 6 6 8 10 15 15 17 17 16 19 24 25 25 22 20 18 18 14 12 10 10 10 11 11 12 12 12 12 12 12 13
5 8 8 11 12 13 14 16 16 16 15 12 10 2 7 6 9 12 14 16 17 18 22 24 26 26 22 19 20 17 14 11 9 9 11 12 13 13 13 13 13 13 13 12
5 3 4 6 15 16 15 16 12 15 15 9 3 5 8 8 8 11 12 14 17 18 22 25 26 25 21 20 18 16 13 11 9 10 11 13 14 15 15 14 13 14 13 13
1 2 1 4 1 4 8 14 16 14 13 10 5 7 7 7 9 10 11 13 15 18 22 24 23 23 19 19 18 14 12 8 10 10 12 14 16 16 16 15 15 13 13 11
3 6 8 9 5 1 3 6 6 7 7 5 4 6 12 12 9 8 9 11 14 18 20 21 22 22 21 19 14 9 9 11 10 11 13 15 16 17 17 16 17 15 13 10
3 3 4 4 4 1 1 6 7 6 5 4 2 6 8 3 3 7 10 11 14 17 18 20 21 23 22 17 12 13 9 9 11 12 14 16 17 18 18 17 18 15 12 9
6 3 5 3 3 2 4 3 5 7 9 6 7 7 9 7 8 10 11 12 12 14 15 15 16 17 13 8 6 5 1 7 10 12 15 16 17 17 18 18 16 9 7 8
2 2 5 6 5 1 4 5 6 7 8 7 10 12 13 9 10 9 11 10 6 6 6 7 7 5 6 6 3 4 6 8 11 13 14 14 16 17 19 18 11 9 7 8
5 1 5 6 4 3 4 7 9 9 11 10 12 12 13 12 8 8 8 0 3 10 13 12 9 7 3 10 5 5 8 9 12 12 13 14 15 15 15 12 9 8 10 10
1 3 5 5 7 6 6 6 8 10 11 11 12 12 12 10 3 3 1 4 8 15 13 11 12 7 2 5 5 7 10 10 11 12 12 13 13 15 14 11 10 9 11 11
6 10 7 5 4 3 7 8 9 9 10 10 10 12 9 4 3 7 14 12 12 11 10 11 5 2 3 4 6 9 9 10 11 13 13 13 12 13 15 12 10 13 14 13
3 6 5 7 9 9 8 8 9 8 8 11 9 7 7 10 12 14 13 12 13 10 7 1 2 4 6 7 8 9 9 10 10 11 13 13 13 14 14 17 19 18 19 14
4 10 8 7 10 8 9 9 11 11 12 11 16 17 19 16 15 15 12 9 7 4 3 6 7 9 9 9 9 10 11 11 12 13 14 14 12 13 13 14 15 18 21 22
7 7 4 10 7 9 10 14 18 19 19 17 18 17 16 14 12 10 7 4 4 7 8 9 11 12 11 10 10 11 12 14 14 14 15 15 15 13 14 15 14 15 18 22
6 8 9 9 10 10 14 15 13 12 13 14 13 12 10 7 5 2 2 5 7 8 11 12 14 15 11 11 12 14 15 15 14 15 16 17 20 20 18 18 17 16 17 13
6 8 9 10 11 11 12 12 12 10 9 9 8 5 4 3 4 6 8 8 9 10 11 14 18 20 15 15 17 17 18 19 19 19 17 18 18 19 21 19 18 18 17 19
7 7 8 11 10 11 11 9 8 6 6 8 10 10 9 9 10 11 10 9 11 16 20 21 25 21 18 19 20 21 22 21 20 19 18 19 18 18 20 20 20 20 21 22
12 13 15 13 10 9 7 11 11 9 8 9 9 9 9 8 7 10 12 14 16 19 21 18 16 15 16 19 21 24 23 23 20 19 19 20 22 21 20 20 21 21 22 22
16 14 13 12 11 10 8 6 6 5 7 8 8 8 8 9 9 11 13 17 16 14 15 18 18 20 19 21 22 23 24 25 24 22 22 24 25 24 24 21 20 22 21 21
13 12 12 12 12 10 8 8 8 8 10 10 10 10 10 11 13 14 15 14 17 14 15 18 21 23 24 25 25 24 26 27 27 24 24 24 22 22 24 23 21 23 23 23
11 11 11 11 12 13 12 11 10 10 9 11 11 11 13 14 14 16 16 16 18 19 26 28 24 25 26 28 32 31 28 28 29 26 25 23 21 23 24 20 21 22 18 17
10 10 10 10 11 11 10 9 9 9 10 11 12 13 15 15 16 15 15 17 21 26 27 27 28 28 32 35 32 32 31 30 29 28 22 17 13 16 21 17 14 10 11 12
10 11 10 10 9 8 8 10 10 10 11 11 12 14 15 16 17 19 18 22 25 27 30 29 27 26 31 32 30 31 32 30 30 27 16 6 5 8 9 8 9 9 10 11
11 10 9 8 7 7 7 9 7 7 9 10 11 13 15 18 18 17 20 24 23 26 25 22 30 28 24 23 23 22 20 18 22 16 11 8 7 8 8 9 7 7 9 11
10 9 7 5 4 6 6 9 8 9 12 12 13 13 15 15 17 21 20 21 21 21 21 20 22 24 22 21 20 20 18 19 19 16 16 13 11 11 11 12 12 10 10 12
7 6 7 7 6 6 7 9 9 10 12 13 13 13 14 15 16 16 17 18 18 19 18 19 20 21 20 19 19 18 18 17 18 17 16 16 15 14 13 14 15 14 13 14
9 5 4 4 6 7 8 8 10 11 11 11 13 13 15 15 15 16 16 17 17 18 18 18 18 18 19 18 18 17 17 16 17 18 17 16 15 15 16 17 17 17 16 17

GFSNGP_925_spd_015.txt.gz
Wind_Speed
3 5 5 1 5 7 5 6 7 7 6 10 1 3 2 6 3 2 7 4 7 9 9 21 24 24 31 32 31 31 28 28 21 20 21 15 7 1 9 10 12 15 15 17
2 5 7 4 8 7 6 3 2 5 6 3 7 7 8 7 8 6 5 6 7 5 10 18 23 26 30 31 31 29 29 22 15 19 16 11 5 11 13 14 18 23 19 17
3 4 6 6 7 5 6 5 3 5 7 5 8 8 7 7 7 7 5 6 7 6 9 16 24 30 33 33 32 29 26 19 23 22 13 7 3 9 18 19 21 21 21 21
2 3 2 8 4 3 4 3 7 9 10 8 6 8 12 12 9 9 8 7 6 3 5 16 25 29 31 30 31 28 22 23 19 14 7 7 8 19 15 14 16 16 20 19
4 4 5 8 3 3 3 4 5 8 7 6 5 6 7 7 7 6 7 8 9 8 7 12 19 26 29 29 30 28 27 20 13 11 10 7 9 11 18 17 17 14 15 16
2 4 6 6 2 3 4 2 5 8 7 6 5 4 3 5 3 4 10 18 21 21 21 5 10 22 26 22 24 22 23 20 16 11 6 3 16 19 16 13 14 15 15 12
2 2 7 6 5 1 6 6 3 5 5 7 4 4 4 4 7 14 22 22 26 29 27 26 24 33 29 30 28 22 18 16 12 5 2 13 14 14 15 18 17 17 19 14
3 2 5 5 4 7 6 3 6 5 3 5 4 7 7 8 9 15 18 22 23 27 27 29 28 33 27 27 21 22 19 11 4 5 11 10 10 14 18 19 18 22 20 15
6 5 7 2 7 5 6 5 3 5 6 6 8 7 11 11 15 16 20 20 21 24 25 26 24 25 24 18 15 13 6 4 7 11 10 13 17 16 18 14 14 19 13 17
5 2 5 6 2 7 8 9 11 11 10 9 7 11 13 12 11 16 19 19 20 22 19 17 16 15 13 8 5 5 2 7 11 11 14 15 14 17 18 16 14 15 14 18
2 3 10 9 8 11 13 12 16 16 15 12 14 12 13 12 11 14 14 15 15 15 14 13 10 9 8 7 6 6 9 11 13 15 15 17 16 15 16 15 16 14 14 16
4 1 9 4 8 12 15 13 12 14 15 16 16 12 15 10 12 12 12 13 14 13 11 8 7 7 6 8 8 9 13 14 15 15 15 17 19 21 17 18 17 19 17 18
5 8 15 13 15 15 16 14 15 15 15 13 16 16 14 11 14 13 12 10 8 5 6 5 4 7 9 10 10 13 15 17 17 17 20 22 20 22 23 18 16 18 21 22
7 12 7 4 9 13 16 18 22 20 18 17 16 16 15 12 8 7 5 3 5 6 7 8 8 9 12 14 16 19 19 20 22 24 24 25 26 26 19 19 22 26 24 22
13 14 16 16 17 13 16 15 12 9 8 10 13 11 8 7 9 14 16 12 9 9 10 12 16 18 16 16 18 19 22 26 28 31 33 31 28 26 27 26 27 31 30 26
14 15 15 15 14 11 8 8 11 9 9 11 12 14 13 13 16 16 15 17 15 13 14 15 19 19 20 21 23 24 24 26 28 29 30 31 31 29 27 26 29 29 27 29
16 11 14 13 11 11 11 10 11 10 12 13 12 12 15 15 16 15 15 15 14 13 15 17 23 24 23 23 23 24 26 25 25 26 26 28 27 27 27 28 28 25 27 31
14 14 14 15 11 11 9 13 15 14 12 11 12 13 13 14 10 10 13 13 11 10 20 21 24 25 23 22 23 23 23 25 26 26 27 28 29 29 27 28 30 26 24 26
21 17 19 17 16 16 13 14 14 14 14 13 13 12 10 9 11 12 14 16 18 16 18 24 23 20 24 27 31 31 29 28 27 27 28 30 30 30 30 29 27 21 25 26
19 21 21 18 19 18 15 16 17 16 13 13 13 13 13 14 14 13 12 16 16 16 23 20 20 27 31 29 27 27 25 24 24 24 26 30 31 30 28 28 29 28 33 25
15 16 17 18 17 18 17 16 17 17 15 14 15 14 14 12 13 14 13 10 13 22 22 15 25 30 30 25 23 26 23 27 25 24 25 26 28 31 34 28 23 21 18 14
13 15 16 16 16 15 15 15 15 14 13 13 14 13 11 12 12 11 15 13 15 21 21 17 24 26 27 22 24 25 23 27 27 24 25 26 26 26 27 28 28 28 27 24
15 16 16 14 15 17 16 15 14 12 11 13 12 11 11 11 14 13 9 14 18 18 19 17 21 22 25 23 23 24 24 23 27 24 23 24 24 24 25 26 26 27 26 27
15 15 15 17 20 16 11 10 12 12 12 10 12 11 9 9 8 11 12 14 16 17 17 17 19 21 21 23 22 22 23 22 22 25 22 23 22 23 23 24 24 24 24 25
16 15 16 15 13 12 13 11 12 11 10 10 10 11 8 8 9 10 11 14 15 16 16 17 18 19 19 21 20 20 20 21 21 23 24 24 22 24 22 24 24 24 24 25
14 15 17 18 16 14 12 10 11 11 6 6 9 7 9 7 9 9 12 14 14 14 16 16 17 17 19 18 18 19 19 20 21 21 25 25 22 23 23 24 23 24 24 22
16 16 16 16 14 11 10 9 8 7 4 6 9 10 7 8 9 10 13 13 13 14 15 14 16 17 17 15 18 17 18 21 19 19 24 26 22 22 23 24 23 23 22 24

GFSNGP_925_spd_018.txt.gz
Wind_Speed
4 2 2 0 2 1 5 5 6 9 8 9 6 5 6 6 5 6 5 5 5 5 6 15 18 21 21 27 33 37 37 36 33 31 28 26 23 18 10 9 5 10 12 18
4 3 1 3 5 4 4 3 5 5 6 1 7 6 8 7 8 8 6 5 3 5 9 18 23 24 25 30 34 37 37 37 32 30 28 22 21 15 8 3 5 12 17 22
5 4 5 5 7 6 5 3 5 5 4 5 7 8 5 6 8 8 8 6 5 2 7 15 22 30 31 34 34 35 33 28 29 25 29 23 15 12 8 5 9 19 25 24
3 3 2 7 4 5 8 4 7 8 6 9 9 5 7 5 7 8 7 7 7 8 3 14 23 30 31 32 29 24 21 22 25 29 23 18 13 11 8 6 13 16 20 20
4 3 4 6 3 6 5 1 3 7 6 6 6 6 6 1 4 6 5 6 10 14 13 6 12 15 20 22 26 29 27 28 27 26 21 13 9 7 5 15 18 14 14 16
2 4 6 7 4 2 5 2 5 6 5 5 4 3 3 5 7 8 13 15 16 18 19 19 12 18 25 24 24 23 23 25 24 18 14 8 4 5 11 12 15 16 17 18
2 2 7 8 5 2 5 6 6 7 7 5 4 4 2 8 11 15 15 16 18 25 25 22 21 27 29 27 24 23 24 19 15 7 2 3 6 11 12 14 15 20 19 18
3 3 6 6 3 7 6 4 8 5 5 9 8 8 9 11 11 13 16 18 21 24 23 23 24 28 26 26 22 19 14 6 3 5 5 6 9 9 13 16 14 15 16 17
8 6 6 4 5 5 7 6 4 7 5 9 9 7 9 11 11 13 15 17 19 20 22 22 20 20 22 16 11 6 2 2 4 4 8 12 12 15 15 14 16 16 16 18
4 3 2 4 5 6 5 10 7 6 7 10 12 9 11 10 9 12 13 15 17 19 19 18 17 16 13 8 6 5 2 2 7 10 11 12 13 14 14 17 20 21 19 15
3 1 10 8 6 10 12 12 14 13 11 12 15 11 11 10 9 12 14 16 19 19 17 14 11 10 7 6 5 6 8 10 11 13 15 16 16 17 19 19 21 21 24 21
5 8 5 3 4 7 13 11 10 15 13 12 14 12 14 9 13 14 15 16 15 14 11 8 7 8 9 10 11 12 14 16 16 17 18 19 21 24 24 24 22 23 24 25
6 6 13 12 10 9 14 12 12 14 14 13 14 17 16 13 14 15 14 12 11 10 8 9 10 12 14 15 14 15 18 21 23 24 25 26 27 28 27 32 28 26 25 24
17 17 10 0 8 11 16 18 22 20 19 18 17 18 17 14 13 14 13 11 11 13 15 14 15 17 18 19 18 18 19 19 21 23 25 26 28 29 28 26 25 26 32 34
7 10 13 16 15 12 17 17 14 11 11 13 17 16 16 16 15 14 14 12 13 16 17 18 19 20 20 21 22 21 22 24 25 25 22 23 25 25 25 26 28 30 28 30
15 17 15 16 14 12 11 9 12 10 9 12 13 15 16 17 14 13 13 15 16 15 14 17 19 20 20 22 23 23 23 22 23 24 24 23 23 24 26 27 27 27 29 30
19 11 14 14 13 10 11 8 9 10 12 13 12 12 13 15 16 16 15 13 16 16 16 18 17 18 19 21 23 24 24 23 22 21 21 22 24 25 27 28 27 28 29 27
12 12 13 15 14 12 10 13 14 14 13 14 15 16 18 18 13 14 14 16 11 13 18 16 16 19 21 21 22 21 22 22 20 19 21 21 22 22 26 29 29 29 30 30
20 16 18 18 18 17 15 15 15 16 17 16 17 15 13 11 11 13 12 14 14 13 14 13 18 21 21 20 19 19 19 22 21 20 20 22 22 23 24 26 30 32 29 27
17 21 21 19 18 21 18 17 18 17 15 15 17 17 16 14 11 13 13 16 14 12 8 12 17 20 20 17 17 20 17 23 24 20 21 22 22 23 23 25 27 28 31 31
14 18 18 19 18 19 19 22 21 18 15 14 16 15 15 13 12 9 11 8 9 12 9 10 16 18 19 18 17 20 18 21 23 23 20 21 21 22 23 24 24 25 26 28
16 16 17 17 17 17 19 20 21 19 17 16 14 12 12 12 12 13 11 8 7 10 10 11 13 15 16 18 16 17 18 17 21 23 20 21 21 22 22 23 24 24 24 25
15 17 17 15 16 18 19 17 16 16 15 13 11 10 11 11 8 8 5 6 7 9 9 11 12 13 14 16 16 16 17 19 18 21 22 23 20 22 21 22 23 23 23 24
17 15 16 19 22 19 14 14 14 16 14 12 10 7 7 8 8 6 5 5 7 9 10 11 12 13 15 15 16 17 16 18 17 18 22 24 20 22 22 22 23 23 24 24
16 16 19 16 13 10 15 16 15 14 11 9 8 6 5 5 4 4 6 8 8 8 10 11 12 13 15 14 15 16 16 19 17 16 21 24 22 22 21 23 23 24 25 23
17 16 17 17 14 13 13 11 11 8 6 7 8 6 7 4 3 5 7 9 8 8 9 10 11 13 14 11 13 14 16 19 18 16 21 24 23 21 20 23 25 24 24 23
19 19 17 16 13 11 10 8 8 5 5 5 5 5 3 2 4 6 9 11 9 8 9 9 11 13 15 11 11 13 15 18 19 18 21 24 23 21 20 23 24 23 22 23

GFSNGP_925_spd_021.txt.gz
Wind_Speed
3 4 4 4 5 6 7 6 6 8 8 8 4 7 7 7 0 6 5 6 6 5 5 10 13 15 22 27 29 32 35 35 39 39 35 32 30 27 25 19 14 9 6 8
3 2 3 4 7 7 5 3 7 4 6 5 3 3 7 6 8 8 7 6 3 5 7 13 18 23 23 27 30 29 33 36 35 34 30 29 27 22 15 11 6 3 8 15
4 2 2 6 8 8 6 5 6 6 8 5 4 5 5 7 8 7 7 8 9 8 8 9 15 21 28 31 31 35 37 31 27 28 25 23 21 19 15 9 2 13 13 18
3 3 2 7 2 4 5 3 4 4 6 4 6 5 6 4 8 8 6 7 6 8 10 8 7 10 14 16 21 19 15 17 18 20 25 25 22 15 9 4 11 12 16 19
4 4 4 5 4 7 6 4 2 8 8 6 5 5 7 6 8 7 6 7 10 13 14 15 10 1 8 11 15 18 20 23 26 31 27 18 10 7 9 13 12 13 16 17
3 4 8 8 4 3 6 2 4 5 8 8 2 3 3 4 5 8 13 13 14 15 17 20 16 14 20 22 24 24 26 27 28 21 13 9 4 11 11 11 13 14 18 21
3 3 7 7 4 5 5 7 8 7 7 6 4 3 5 7 9 11 12 15 16 20 21 19 17 21 25 25 24 26 28 22 14 9 6 8 12 10 9 13 15 18 21 19
3 2 6 6 5 8 6 2 7 6 6 6 9 8 8 8 7 9 11 14 17 20 22 19 18 25 25 25 21 18 13 10 7 7 9 8 6 9 14 15 19 21 20 20
8 6 4 4 3 3 6 9 6 8 6 12 12 6 8 7 7 9 12 15 18 21 24 22 20 23 21 13 9 7 5 4 2 3 5 8 12 16 17 18 19 21 22 24
4 2 3 2 2 4 3 4 5 4 9 9 13 11 11 9 7 10 13 16 19 22 21 19 18 18 15 11 9 9 8 7 8 9 10 12 13 15 17 20 22 24 24 26
1 1 3 4 3 6 9 9 12 11 8 12 15 11 11 10 8 11 15 17 19 19 18 16 14 14 12 11 10 10 10 11 12 13 14 17 18 19 21 23 24 27 29 30
6 10 5 4 6 7 11 9 9 14 13 11 14 13 14 8 13 15 17 17 17 15 15 14 15 16 15 14 12 12 13 15 16 17 18 20 23 27 25 27 28 28 29 30
6 7 6 12 7 7 11 10 11 12 13 14 14 18 17 14 13 18 16 15 16 17 17 16 17 18 17 17 16 17 18 19 21 22 24 24 23 22 25 35 31 32 31 32
15 15 8 1 6 10 14 16 19 18 17 17 17 19 20 16 18 18 17 16 16 17 17 16 17 19 17 16 17 18 19 19 21 23 23 22 22 22 21 23 27 32 27 27
7 7 11 16 14 13 18 18 15 12 11 12 15 17 18 16 14 12 13 14 15 16 16 16 17 17 16 18 19 20 20 20 20 20 21 21 22 22 21 22 24 27 32 31
13 16 16 16 15 13 13 12 15 10 9 13 15 15 17 16 15 13 12 11 13 15 15 15 16 16 17 19 19 19 19 17 18 19 19 19 19 20 20 20 23 25 28 30
18 11 14 14 14 11 11 10 10 10 13 14 14 18 20 19 17 16 16 15 17 15 14 14 14 15 16 17 16 17 17 17 17 17 18 18 19 19 20 22 21 23 25 31
9 13 12 17 15 13 11 13 16 15 15 17 21 21 19 17 15 16 15 12 12 14 13 13 14 15 14 15 14 17 16 20 19 17 17 17 19 18 19 20 22 23 26 28
16 15 16 17 18 17 15 15 15 18 22 23 22 18 18 19 20 18 14 13 13 10 7 10 13 15 14 14 15 15 13 18 19 19 18 19 20 21 18 21 22 23 25 26
15 19 22 20 19 22 17 17 19 19 20 21 22 21 18 16 15 13 11 14 10 6 3 9 11 12 14 13 14 15 14 16 19 19 19 20 21 20 19 21 22 22 24 25
14 17 18 18 17 17 18 21 22 18 18 18 19 18 18 15 11 10 9 8 6 7 5 8 10 11 12 13 12 13 14 14 16 18 18 20 21 19 22 20 21 22 23 24
15 16 17 19 18 17 19 21 23 22 20 18 18 17 17 14 12 11 9 7 3 4 5 7 8 9 10 11 11 12 13 14 12 15 18 20 20 19 23 22 22 23 22 24
15 16 17 16 17 18 21 21 20 20 18 16 15 13 13 11 8 8 5 2 3 3 5 6 6 7 9 10 11 12 12 14 13 13 16 19 19 18 20 21 23 24 24 26
16 16 17 20 23 19 15 14 16 16 15 13 12 10 10 10 7 5 3 1 3 3 4 4 5 7 10 11 11 11 12 14 15 13 16 19 21 20 19 20 23 24 24 25
17 18 19 17 14 12 15 17 17 14 12 10 8 7 5 3 1 5 1 3 3 4 5 5 7 9 11 11 10 11 12 14 15 15 17 21 22 22 20 19 22 24 24 24
17 16 16 16 14 14 14 12 11 10 9 9 6 6 6 3 2 1 2 3 4 5 6 6 8 10 12 11 11 10 11 13 14 15 18 21 22 22 21 20 22 24 24 23
20 19 18 17 15 13 10 8 8 7 6 5 5 9 6 4 2 1 3 6 7 7 7 6 8 10 11 12 12 10 11 13 15 15 18 22 23 22 22 20 21 23 23 23

GFSNGP_925_spd_024.txt.gz
Wind_Speed
6 6 5 6 5 8 7 6 6 7 7 9 7 7 7 5 2 5 5 3 0 2 4 7 9 13 18 20 23 25 25 27 28 29 31 31 32 30 28 26 23 21 19 12
2 3 2 4 6 7 5 4 4 5 7 7 2 1 3 4 6 8 8 8 8 7 6 3 6 12 16 21 24 25 27 29 28 27 27 26 26 24 22 20 17 13 8 2
4 2 3 6 7 8 6 5 7 7 10 5 2 3 3 6 7 8 8 7 8 8 9 15 13 8 5 11 15 18 19 19 20 20 20 21 22 21 19 16 12 4 2 13
3 3 1 7 1 4 9 6 5 3 4 6 7 4 6 5 6 8 7 8 8 9 15 19 14 12 7 2 5 10 8 10 14 17 17 16 20 21 13 9 9 6 12 18
5 4 5 4 5 7 8 8 7 6 6 7 6 6 7 6 7 6 5 5 8 15 17 18 18 14 14 13 12 14 17 18 18 20 25 24 19 11 6 4 8 13 15 13
3 4 8 8 5 4 4 4 8 9 10 10 6 4 4 5 4 6 9 12 16 19 21 22 18 16 20 21 22 23 23 24 26 25 19 14 8 5 8 12 15 14 16 18
2 3 7 8 3 5 6 8 9 12 9 8 5 3 7 8 7 10 14 16 20 24 24 19 18 21 25 24 23 25 27 22 17 12 7 1 7 14 13 13 13 15 19 22
3 3 7 8 4 9 7 1 6 8 8 6 8 8 8 8 7 9 13 17 20 22 23 21 23 29 26 24 19 16 13 9 5 4 4 4 5 7 9 13 16 20 23 26
9 7 5 6 4 6 5 6 7 8 6 11 13 6 7 8 8 10 14 17 20 22 25 25 23 23 22 15 12 11 11 10 9 7 5 6 9 12 15 17 19 22 24 27
4 4 6 5 2 2 3 4 6 5 10 11 11 11 12 10 8 11 16 18 21 23 22 23 21 20 17 13 12 12 13 13 12 12 11 11 12 14 16 19 22 24 25 25
3 3 1 5 3 4 3 7 10 8 6 12 16 12 12 10 8 12 16 19 21 21 21 20 20 20 17 15 12 14 14 15 15 15 15 17 17 18 19 20 19 22 24 25
7 9 7 5 7 6 7 6 8 15 11 9 12 13 13 10 14 15 17 20 21 21 22 20 21 21 19 17 16 15 15 15 16 18 19 20 21 24 23 21 20 20 22 24
6 7 4 8 7 4 10 9 10 11 14 15 14 19 18 15 15 21 20 20 20 20 20 18 18 18 16 16 15 16 16 16 18 19 19 18 20 20 25 26 18 18 20 23
11 13 6 3 6 9 14 13 20 20 19 19 21 20 22 19 19 18 17 18 17 19 17 16 15 16 15 14 14 15 14 15 16 17 18 19 20 19 20 21 27 27 23 25
5 5 9 15 14 13 16 17 16 14 13 15 19 20 20 19 17 17 16 17 19 18 15 13 13 13 14 14 14 15 15 15 15 15 17 17 18 17 17 18 20 23 28 30
11 13 14 16 16 14 14 13 17 13 12 15 17 18 19 20 19 18 16 15 14 13 12 13 13 11 11 12 11 13 14 14 14 15 16 16 16 17 17 18 18 20 21 25
16 11 13 13 13 13 12 11 13 12 14 16 17 20 21 21 20 19 17 17 17 15 12 11 10 8 9 11 10 10 14 15 16 15 17 17 18 16 16 16 18 19 20 24
8 9 6 14 16 14 12 11 17 17 15 19 22 22 19 17 16 17 18 16 14 13 10 10 9 8 9 10 10 10 13 15 15 15 15 17 17 16 16 17 18 20 22 24
12 15 13 13 16 14 13 15 18 19 22 23 22 17 18 20 21 20 16 14 12 9 6 6 7 9 8 10 12 12 12 13 14 15 15 15 17 18 17 20 19 21 24 23
15 19 22 21 22 21 17 17 23 21 19 24 24 21 18 20 20 17 13 12 8 6 4 5 6 7 9 9 10 11 11 12 13 13 14 16 18 18 18 21 20 22 25 23
14 17 18 20 21 22 21 20 23 20 19 22 21 18 18 17 15 13 11 9 5 4 2 4 6 6 7 8 8 9 10 11 11 12 14 17 19 18 19 21 21 23 25 24
15 15 18 20 21 19 20 22 23 24 22 20 21 22 20 16 13 11 8 7 4 2 2 4 5 6 7 8 8 9 10 11 11 11 13 17 19 20 20 21 21 23 25 25
17 19 19 18 19 19 20 20 21 22 21 19 19 16 13 11 9 9 7 4 2 2 4 5 5 6 7 8 9 9 9 10 12 12 14 16 18 19 20 20 20 21 25 26
18 18 19 21 22 20 16 14 17 17 17 15 14 12 13 12 8 6 5 3 2 4 5 6 5 6 7 9 9 9 8 10 12 12 14 16 18 19 20 20 21 21 24 25
19 19 19 18 15 13 16 15 16 14 13 11 9 7 6 4 1 6 2 2 3 5 6 7 6 7 8 9 10 10 10 11 13 14 15 17 20 22 21 21 21 21 23 25
18 17 18 18 15 15 14 12 11 9 9 8 6 6 5 4 4 3 1 2 4 6 7 8 8 8 9 10 11 11 11 12 14 15 16 19 22 23 23 22 22 22 23 24
22 20 19 18 17 14 12 10 8 6 4 3 2 5 4 2 1 1 2 4 5 6 7 8 8 9 10 12 13 12 11 13 16 17 17 20 23 24 23 23 23 22 22 22

GFSNGP_925_spd_027.txt.gz
Wind_Speed
5 5 6 6 5 10 10 7 7 8 9 9 7 6 5 4 3 6 7 8 7 5 4 2 2 3 4 5 7 8 11 11 12 13 13 14 18 24 27 27 27 25 24 20
3 3 6 5 7 10 10 2 8 7 8 10 3 2 0 3 7 11 11 11 12 12 12 11 7 4 3 3 4 5 5 5 6 7 9 14 17 18 18 21 22 21 21 20
4 2 3 5 7 10 5 5 5 8 11 5 5 5 6 8 9 10 9 10 11 10 11 11 12 11 8 4 1 0 1 2 3 6 8 10 12 13 16 19 17 17 14 8
3 2 5 3 2 3 11 5 9 5 5 5 3 6 7 6 12 10 8 8 9 11 13 14 13 15 14 12 10 8 7 5 5 7 8 10 12 15 17 18 13 10 9 11
5 5 3 2 5 7 7 14 10 13 6 6 12 9 5 4 6 10 9 9 12 13 14 15 16 15 17 18 16 15 13 13 12 14 16 18 19 19 15 10 8 11 13 17
3 5 9 5 4 5 4 12 8 11 11 18 11 7 6 8 8 10 12 12 13 14 15 17 16 17 22 20 20 19 17 16 16 17 17 16 12 10 5 4 7 13 20 22
3 3 6 6 4 5 6 14 7 13 15 17 10 1 11 12 10 12 13 14 14 16 19 18 17 20 25 23 23 19 19 17 15 12 9 6 3 1 5 7 9 11 14 17
3 2 8 8 6 10 7 2 6 10 14 12 10 13 14 13 12 13 15 15 16 22 22 20 20 24 24 20 15 14 13 13 12 11 10 8 6 5 6 7 9 12 15 17
9 7 2 11 4 7 4 4 6 12 12 14 16 11 14 13 13 13 16 19 20 24 24 20 18 18 19 14 14 14 14 13 11 10 9 9 8 8 8 9 9 12 14 17
3 5 7 7 3 3 5 5 6 9 16 17 14 17 16 15 13 15 18 20 21 23 22 19 17 17 16 15 14 14 14 13 11 11 9 9 8 9 9 11 13 14 16 19
3 5 2 9 9 5 5 5 10 10 10 15 20 17 17 15 15 19 20 20 20 21 20 19 18 18 17 15 13 14 12 10 10 9 10 10 10 10 10 10 11 14 15 16
6 10 6 5 11 9 10 9 12 18 14 13 18 19 18 15 20 22 21 21 21 20 21 18 18 17 15 14 13 11 10 9 10 10 10 10 11 10 10 9 9 10 13 15
1 2 3 5 6 6 9 12 11 13 17 20 19 24 23 20 22 23 22 21 20 20 19 17 16 15 12 12 11 12 11 9 8 10 10 10 11 11 12 12 11 11 13 17
6 8 2 5 4 6 12 13 19 19 20 21 24 24 25 24 23 22 21 21 20 20 18 15 14 13 11 10 11 10 9 11 8 8 9 10 11 13 13 14 16 16 14 16
3 4 1 11 13 13 13 15 16 16 16 17 23 24 25 24 22 21 20 20 20 18 15 13 13 11 9 9 10 10 9 9 8 8 9 9 10 11 12 14 15 17 19 18
10 7 11 11 14 14 15 15 18 16 15 15 20 22 24 25 25 22 20 16 16 15 13 14 12 9 8 8 8 8 8 10 9 8 8 9 10 11 12 13 15 17 18 21
8 5 7 12 12 12 11 11 14 15 15 18 23 26 27 25 23 21 18 18 20 17 13 11 10 7 8 8 7 6 7 7 8 7 7 8 9 10 11 12 14 15 17 18
5 9 7 8 12 15 14 13 15 18 15 23 26 26 24 21 19 20 19 18 17 14 10 9 8 7 8 7 7 5 6 6 6 6 7 8 9 9 9 11 13 14 17 18
8 15 15 12 13 14 13 13 18 22 23 21 20 18 20 21 20 19 18 16 12 11 7 7 6 7 7 7 6 6 6 7 6 6 7 7 8 9 9 11 12 13 15 17
18 19 21 19 19 21 19 22 25 24 23 26 24 19 17 17 21 20 15 11 7 8 8 5 5 5 4 4 5 5 6 7 5 5 6 7 9 10 9 11 12 12 14 15
14 16 17 19 20 22 23 23 24 19 17 21 20 17 17 18 18 17 12 9 7 7 5 4 3 3 3 2 3 5 5 6 5 6 7 8 10 10 10 11 12 12 14 15
13 13 17 21 21 20 20 21 23 21 20 19 20 21 21 15 14 10 8 8 8 6 3 2 1 1 2 3 4 4 5 6 7 7 7 8 9 10 11 12 13 14 14 15
17 19 20 19 19 18 21 20 19 19 18 18 19 16 12 11 9 9 7 6 6 4 2 1 0 2 3 4 5 6 6 7 8 8 9 10 11 12 13 15 16 15 15 16
20 21 21 21 22 22 18 16 16 17 18 16 14 13 12 10 8 7 8 6 4 2 0 1 2 3 4 6 7 8 8 9 9 10 10 11 12 15 16 18 18 17 18 18
23 22 20 20 19 17 18 17 17 15 14 12 10 8 7 4 3 7 5 3 1 2 3 4 5 5 6 7 8 9 10 11 10 11 12 13 15 17 18 19 19 19 20 19
22 20 22 22 18 15 13 12 11 9 9 8 6 5 5 5 5 4 2 1 2 4 5 6 7 7 8 9 10 11 12 11 12 14 15 15 16 18 20 21 21 21 20 20
23 22 21 22 22 19 16 12 9 7 6 5 3 2 3 3 2 1 1 3 4 5 7 7 7 8 9 10 11 12 12 13 14 16 17 17 18 20 21 21 22 21 21 20

GFSNGP_925_spd_030.txt.gz
Wind_Speed
18 17 18 19 16 18 18 16 15 14 15 11 11 12 5 0 2 4 4 5 5 6 7 9 9 8 7 7 6 5 6 5 4 4 5 6 7 9 10 13 16 22 24 23
16 16 13 16 18 19 19 20 14 16 15 12 12 6 7 3 7 8 9 9 10 10 11 12 12 11 11 10 9 7 6 6 5 4 4 4 6 8 10 13 16 21 20 23
14 7 7 6 17 17 18 17 16 16 16 13 9 11 9 7 9 12 12 12 11 11 11 13 14 13 14 12 11 10 9 8 7 6 6 6 7 8 10 12 15 16 15 14
5 5 7 9 2 17 19 18 16 15 13 11 9 3 5 7 11 13 12 11 11 11 13 14 14 15 15 15 15 14 13 12 11 10 10 10 10 11 11 13 15 15 15 15
5 9 11 4 6 8 12 16 17 19 16 7 7 10 7 7 10 11 11 11 12 13 14 14 15 15 17 18 17 17 17 16 14 13 14 13 12 11 10 10 8 8 7 10
4 8 9 10 13 11 5 13 13 11 14 13 14 9 7 13 12 12 13 13 14 14 15 16 15 15 18 18 19 19 18 17 16 15 14 13 10 7 5 2 1 3 7 10
10 6 7 4 8 11 9 13 1 8 9 15 15 5 20 17 13 14 15 15 15 15 16 16 16 17 20 20 20 18 17 16 14 12 11 8 6 4 2 2 3 4 6 8
7 6 10 12 10 11 12 2 4 7 11 15 10 15 18 17 16 14 16 17 16 17 18 17 17 19 20 19 15 14 14 13 12 10 8 6 5 4 3 3 4 5 7 9
9 7 3 20 14 16 6 5 5 9 11 15 16 17 19 18 17 15 18 18 18 19 20 17 16 17 18 15 13 13 12 12 10 9 8 7 6 5 4 5 6 7 9 11
2 11 10 11 14 6 10 7 6 8 15 19 20 20 19 17 16 14 20 20 21 20 20 18 16 16 16 14 12 12 12 11 9 8 7 6 5 5 5 6 7 8 9 11
10 9 3 10 15 15 10 6 7 11 16 20 21 20 19 18 17 19 21 21 20 19 19 19 17 16 14 12 11 12 11 9 7 6 6 5 5 5 6 6 6 7 8 10
7 10 8 13 7 14 14 14 13 17 18 18 19 21 20 17 21 22 22 22 21 20 20 19 17 15 13 11 10 10 9 8 7 6 5 5 4 2 6 6 5 4 7 8
9 1 6 1 2 11 13 12 14 16 18 22 19 20 22 18 24 24 24 22 22 22 20 19 16 14 11 10 10 10 9 7 6 6 5 4 4 4 6 4 7 5 6 10
3 3 3 8 5 11 8 11 10 12 16 17 21 24 24 23 26 24 23 23 23 22 19 17 15 13 10 10 10 9 9 9 5 4 4 3 3 4 5 6 8 9 9 10
8 3 2 2 8 9 12 12 15 15 16 17 23 23 25 24 23 24 25 25 24 22 19 16 14 12 9 9 9 8 6 5 4 4 3 3 4 4 5 7 8 10 11 10
5 4 5 3 6 9 10 13 13 13 14 15 16 22 25 24 25 25 24 23 23 19 17 17 14 11 8 8 7 7 6 6 4 3 3 4 4 5 6 7 9 10 11 13
5 3 5 9 10 9 10 7 9 13 14 15 19 22 25 25 24 20 17 15 18 17 14 14 14 10 8 6 6 5 4 3 4 3 3 4 5 6 7 8 9 10 11 11
5 1 5 11 13 15 14 12 11 15 15 21 27 27 23 21 19 22 19 18 16 13 11 10 11 10 8 6 5 4 4 3 3 3 3 4 5 6 7 8 10 11 13 13
5 6 8 10 9 12 16 15 18 21 23 26 25 20 23 23 21 20 20 17 13 13 8 8 10 8 7 6 4 3 3 3 2 2 3 4 5 6 7 9 10 12 13 14
10 15 17 16 20 19 15 24 30 23 23 27 27 23 20 19 20 18 14 12 7 9 9 8 7 6 5 4 4 2 3 2 2 2 3 5 6 7 8 9 10 12 13 14
13 16 13 17 18 21 23 27 27 22 20 21 21 19 19 18 17 15 13 10 9 8 8 7 4 3 2 2 2 2 2 2 3 3 4 5 7 8 9 10 11 12 13 14
11 12 16 21 21 22 24 24 24 23 21 22 22 22 21 17 14 13 10 9 8 7 5 4 3 2 1 2 2 3 3 4 4 5 5 6 7 9 10 11 12 13 14 15
20 21 23 23 22 24 26 26 24 23 21 20 19 16 15 12 9 7 7 6 6 5 3 2 1 2 3 3 4 5 5 6 6 7 7 7 8 9 10 12 13 14 14 15
23 24 24 24 25 26 21 23 24 23 24 20 18 14 11 10 10 9 10 7 5 3 2 2 2 4 4 5 6 6 7 8 9 9 9 9 10 10 11 13 14 14 14 15
24 24 23 23 22 19 21 20 20 17 17 15 13 11 9 7 4 6 5 4 2 2 1 3 4 5 5 6 7 8 9 10 10 10 10 11 11 12 13 13 14 15 16 15
24 22 24 24 20 17 16 15 15 13 11 10 8 7 6 6 6 5 4 3 1 2 2 3 4 5 7 8 9 10 11 11 11 11 12 13 13 14 14 15 15 15 15 16
25 22 21 22 21 19 17 15 13 11 10 8 6 4 3 3 3 3 2 1 2 3 4 6 6 7 7 9 10 11 11 11 11 13 14 14 14 13 14 15 15 15 16 16

GFSNGP_925_spd_033.txt.gz
Wind_Speed
24 20 20 22 24 22 20 18 18 17 18 16 13 8 8 8 4 5 6 7 6 8 8 10 11 10 12 11 11 10 9 8 9 7 7 7 7 8 9 11 9 10 16 16
22 22 21 19 18 20 22 23 21 21 21 16 14 7 5 7 5 7 7 7 7 8 9 9 11 13 13 13 12 12 12 11 9 8 7 6 6 6 7 7 8 11 15 15
17 20 19 19 17 19 19 21 17 18 20 16 17 12 10 11 8 8 9 11 11 11 11 13 15 15 15 14 13 13 13 12 11 10 10 9 9 9 8 8 10 13 17 20
10 4 14 10 16 22 22 20 19 19 18 16 12 10 6 4 10 10 12 13 13 12 15 16 17 17 16 15 15 14 14 13 12 12 12 11 11 10 9 9 10 11 11 11
9 11 13 18 13 12 15 17 17 17 16 15 8 3 5 6 10 13 13 13 15 17 17 17 17 17 17 17 16 16 15 14 14 14 15 14 14 12 11 9 8 6 5 6
7 15 18 12 16 13 14 14 13 14 13 8 6 8 10 14 15 15 15 17 18 18 17 17 16 17 17 17 16 16 16 16 16 15 15 14 13 11 9 8 7 5 3 3
12 9 9 11 13 12 13 12 5 4 5 8 10 13 9 18 16 19 19 19 19 18 16 17 17 17 18 18 17 17 17 16 15 14 13 12 9 7 6 5 4 3 1 2
10 12 14 7 9 14 14 12 6 7 8 9 7 10 18 19 19 18 17 20 19 18 18 17 17 18 18 18 17 16 15 14 13 11 10 9 8 6 5 3 2 1 2 3
8 6 8 14 16 16 16 10 7 10 9 9 15 17 19 19 19 18 20 20 19 19 19 17 17 17 18 17 16 16 14 13 12 10 8 6 5 4 3 3 2 2 3 4
9 9 13 9 15 13 11 12 10 8 9 12 18 19 20 19 18 17 21 21 21 21 19 18 17 16 17 16 16 15 14 12 10 8 7 5 5 4 4 4 3 3 4 5
17 19 17 11 11 16 12 9 9 8 10 15 17 20 20 20 19 17 21 22 22 21 19 19 18 17 16 16 15 15 13 11 9 7 6 5 6 6 5 5 4 3 3 5
9 12 10 13 11 14 14 15 12 12 12 15 18 20 20 18 19 22 22 24 22 21 21 20 18 17 15 14 13 13 12 9 8 7 5 4 3 5 3 2 5 4 4 3
12 4 5 12 9 14 11 11 12 13 14 17 18 18 19 17 22 23 24 22 21 21 20 19 18 16 13 12 11 10 10 9 7 6 5 4 2 1 1 2 5 4 4 7
13 2 7 9 7 6 7 6 6 10 12 13 16 20 20 16 20 21 20 20 21 20 19 18 16 14 12 11 12 10 9 9 6 5 4 3 2 1 2 3 5 4 5 7
5 6 8 4 3 3 3 4 7 9 11 13 16 16 18 15 15 18 19 21 21 20 19 17 17 15 11 10 9 8 6 5 4 4 3 3 1 1 2 4 6 7 8 8
2 4 5 6 4 4 6 9 10 10 10 12 14 16 20 21 21 22 21 21 21 19 19 21 17 13 10 9 8 7 7 7 5 2 1 0 1 3 4 5 6 7 9 10
7 6 5 7 7 7 8 7 8 9 10 11 15 22 23 24 25 25 24 25 25 23 21 19 16 11 8 6 4 5 4 3 4 1 0 1 2 3 4 5 6 8 9 8
9 7 6 5 6 7 7 8 11 13 13 20 24 30 28 24 19 23 23 26 25 23 18 14 12 9 8 5 4 4 3 2 1 0 2 2 3 4 5 6 7 8 10 11
11 7 9 9 6 9 10 12 16 22 24 27 28 23 26 26 25 22 21 21 20 17 11 10 10 8 7 5 4 3 3 2 1 2 3 4 5 6 7 7 8 9 11 12
15 18 20 19 21 20 14 21 24 22 22 26 28 26 24 23 25 22 18 18 15 14 11 9 7 6 5 4 5 3 3 2 3 4 4 6 6 7 8 8 9 11 12 12
14 13 14 16 15 22 22 21 23 22 22 23 23 21 23 25 22 19 17 17 14 12 10 8 5 4 3 3 3 2 3 4 5 6 7 8 8 9 10 10 11 12 13 13
14 15 17 21 22 24 27 28 28 26 27 28 25 24 25 22 20 22 18 16 12 9 6 5 4 3 1 2 2 3 4 5 7 7 8 9 10 10 11 11 13 13 14 14
22 23 25 25 24 25 30 30 28 27 25 24 23 21 20 16 12 12 12 10 9 7 5 4 1 1 2 3 4 5 6 7 8 9 10 10 10 11 12 13 14 14 15 15
24 25 25 24 26 26 22 24 25 25 25 23 21 17 14 14 13 12 12 10 8 5 5 3 1 3 4 4 6 7 8 9 10 10 10 10 11 12 13 13 14 15 16 16
24 24 23 22 21 18 20 18 20 19 18 17 15 14 12 12 9 8 7 6 5 3 3 4 6 6 5 6 7 8 9 10 11 11 12 12 13 13 14 14 15 16 17 17
24 22 23 25 21 19 17 17 17 15 13 13 12 11 10 9 8 7 6 5 4 5 5 6 5 7 8 8 8 10 11 11 12 11 12 13 14 15 15 15 16 16 16 17
22 20 20 21 21 20 18 17 16 15 14 13 11 9 8 7 6 5 5 5 6 6 6 7 8 8 9 9 12 12 12 12 12 12 14 15 15 15 15 15 16 16 16 16

GFSNGP_925_spd_036.txt.gz
Wind_Speed
21 20 20 17 20 20 20 21 17 13 20 20 19 15 4 8 5 6 4 6 5 8 9 11 11 11 13 11 10 11 12 20 21 15 10 10 11 10 8 8 9 11 14 15
23 21 19 22 22 20 21 22 20 17 17 15 15 10 8 7 9 6 7 6 7 5 12 9 12 15 16 15 13 13 13 16 14 14 15 15 15 14 12 11 10 9 11 13
19 19 13 21 21 19 16 18 17 17 16 14 13 12 10 14 10 10 7 6 7 8 9 12 15 19 17 17 17 17 17 15 15 15 15 15 14 14 14 13 12 11 13 15
7 2 20 10 14 16 16 16 15 16 16 12 12 12 2 7 4 9 11 9 8 8 12 17 19 19 20 19 19 20 18 17 16 16 17 16 16 15 14 14 12 13 12 13
9 13 13 18 13 14 13 18 18 20 17 15 14 14 6 2 2 10 11 11 11 15 16 18 20 21 21 20 19 19 19 18 17 18 18 18 17 16 15 15 13 12 11 11
5 15 18 5 11 12 17 13 11 14 13 10 7 4 3 9 9 13 14 16 17 18 19 19 19 21 21 20 19 18 19 18 19 19 19 19 18 18 17 15 14 10 9 8
10 6 7 7 13 16 17 8 7 10 11 9 4 1 6 12 11 13 15 19 21 20 18 19 21 21 19 19 18 19 20 20 19 21 20 17 14 14 14 12 10 8 7 5
7 8 12 6 11 17 9 6 5 8 5 2 3 9 12 14 14 15 16 20 22 19 19 19 20 21 20 19 21 20 20 19 18 17 15 14 14 13 12 12 12 10 8 7
5 2 5 7 15 9 6 5 7 5 7 5 10 10 14 15 16 15 16 19 20 19 19 19 19 20 20 21 21 20 20 18 17 15 14 13 12 9 12 11 9 9 6 5
2 9 16 2 10 14 11 9 11 7 7 5 10 13 14 14 14 14 17 18 20 20 18 18 19 19 21 20 20 19 18 17 16 15 13 12 11 9 11 10 8 6 5 4
11 12 12 26 11 8 9 12 3 4 3 6 12 15 15 14 14 13 17 19 20 18 16 16 17 19 18 17 18 18 17 16 14 13 13 12 13 12 7 7 5 5 6 4
6 5 2 12 12 9 8 13 10 4 6 7 12 14 15 13 13 15 16 19 18 17 17 16 17 16 15 16 17 17 16 15 13 12 11 12 11 10 7 5 6 4 3 2
7 5 4 5 9 7 5 7 16 6 7 6 8 10 13 10 14 17 20 20 19 19 20 19 17 15 13 14 16 17 17 13 14 11 10 9 7 6 9 5 2 1 1 4
8 9 7 4 5 10 6 7 6 6 4 4 7 12 14 11 15 17 18 19 21 22 21 21 20 17 13 15 19 19 18 15 13 11 10 7 6 5 2 2 0 3 4 0
10 6 5 5 6 7 5 5 4 4 3 2 10 10 12 13 13 17 22 24 25 23 23 23 21 17 15 16 17 17 16 15 13 9 7 6 4 2 1 1 3 4 4 2
12 8 7 6 7 5 5 5 6 1 5 6 10 13 18 20 19 21 24 26 25 21 24 25 21 17 16 13 15 14 14 13 10 7 6 3 2 2 3 3 4 5 6 6
10 12 13 11 7 4 5 5 5 6 8 8 12 23 31 30 30 29 29 33 32 29 26 25 18 18 17 17 14 12 9 8 8 5 5 4 3 3 3 4 5 6 7 9
14 14 14 12 6 5 9 15 16 18 17 22 27 30 27 24 18 24 25 28 28 26 21 18 16 15 14 12 10 9 7 6 6 5 2 2 1 2 3 5 6 7 7 9
13 14 16 18 15 15 13 14 17 23 24 25 29 25 28 27 26 25 26 25 21 19 15 16 15 13 11 12 8 7 6 4 3 2 2 2 3 3 4 6 6 8 9 11
15 17 20 20 24 22 14 20 25 25 24 29 30 28 26 24 25 24 24 22 17 16 15 13 12 9 10 9 8 6 4 3 3 2 2 5 3 3 7 7 7 8 9 11
16 15 16 19 21 27 26 25 27 26 23 29 29 25 25 25 25 22 20 16 14 14 13 11 9 7 7 5 5 4 4 4 4 4 4 5 6 7 7 8 8 9 11 11
16 15 18 23 23 25 28 29 31 30 28 30 30 27 24 23 23 22 17 15 12 10 10 9 7 6 6 4 3 4 4 4 5 6 7 7 8 8 8 9 10 10 11 13
22 23 25 25 24 26 31 30 29 29 27 25 23 21 19 15 12 13 11 11 10 9 9 8 7 6 5 6 5 5 6 7 8 8 8 9 8 8 10 11 11 12 13 13
24 25 24 25 27 27 21 23 25 25 25 24 24 18 13 15 17 16 15 12 9 7 8 7 7 7 7 7 7 7 8 9 10 10 9 11 12 12 11 12 13 12 13 13
24 24 23 22 20 18 18 17 18 19 19 19 19 20 20 19 16 13 11 11 9 8 8 10 9 11 9 8 8 8 9 10 10 13 13 10 10 13 14 15 14 13 14 16
22 21 23 26 23 20 19 19 18 18 14 16 16 16 16 14 12 10 9 7 8 7 7 6 8 6 8 9 11 12 12 13 12 12 12 12 14 16 16 16 15 14 14 15
23 20 19 20 20 20 20 20 17 16 18 14 14 14 13 11 10 10 10 10 8 8 9 10 10 10 9 11 11 11 12 13 13 13 13 13 14 16 17 16 15 16 18 19

GFSNGP_925_spd_039.txt.gz
Wind_Speed
18 14 12 14 21 19 17 14 10 7 7 9 10 6 15 8 5 1 6 7 8 8 7 9 12 17 23 20 21 30 27 24 27 26 24 23 22 19 16 14 14 14 19 24
7 19 20 15 16 21 16 6 14 11 12 14 17 10 9 9 8 8 10 11 8 9 9 9 15 19 21 21 22 27 30 29 26 24 22 19 18 15 14 12 10 12 14 17
15 3 6 12 18 14 9 15 11 11 13 15 13 12 17 12 17 12 10 9 9 12 11 14 21 26 24 22 25 28 28 27 27 27 25 22 19 18 15 14 12 11 12 13
5 4 8 16 5 13 10 13 12 6 4 5 9 10 13 18 19 11 10 9 10 9 10 18 26 29 26 26 27 27 26 26 27 27 26 25 23 22 20 17 15 15 15 14
3 11 5 12 7 12 10 12 7 6 5 6 7 2 2 6 7 10 10 8 8 18 23 26 27 28 29 27 26 26 25 25 25 26 27 26 23 21 19 19 18 16 16 16
5 8 16 3 15 8 1 7 4 4 8 7 6 3 5 4 8 9 10 17 18 24 27 28 27 29 28 26 26 23 25 25 26 26 24 24 23 23 21 20 19 17 16 15
11 4 7 6 9 1 5 5 5 6 6 2 3 7 5 8 6 10 14 19 24 24 22 26 27 28 24 24 21 25 27 28 27 28 28 27 26 25 24 21 19 16 13 11
4 4 6 14 6 12 6 6 9 7 3 6 8 7 11 12 13 13 14 17 22 20 22 27 27 28 22 21 23 26 27 29 30 27 24 22 22 19 17 18 19 17 18 21
8 5 8 13 7 11 15 11 11 3 8 8 9 8 11 11 12 13 14 17 21 22 23 25 27 30 24 22 27 28 27 26 24 21 19 20 21 18 20 20 21 19 22 23
5 5 9 11 8 16 15 12 17 7 8 10 9 12 9 11 10 11 10 13 20 22 18 20 27 28 30 29 28 26 25 23 20 21 23 22 24 24 24 20 19 18 20 21
2 3 13 13 5 11 13 16 21 18 4 6 9 11 15 10 10 10 12 15 21 18 17 20 27 28 28 28 28 28 26 25 24 23 24 23 19 15 15 13 11 14 11 10
5 10 9 5 7 12 11 11 13 9 9 5 7 8 7 8 9 12 11 20 20 21 23 22 26 25 25 26 29 29 26 22 20 21 21 19 19 17 13 10 7 6 6 3
3 4 6 9 8 3 6 3 5 9 9 2 3 8 9 8 7 18 21 23 23 24 27 26 25 23 22 26 27 28 25 22 21 23 19 18 15 14 14 8 7 5 4 4
14 8 5 8 4 6 5 7 7 7 6 3 8 10 9 10 16 18 18 25 29 30 29 30 31 28 25 26 27 25 23 21 20 18 17 18 17 15 10 7 4 3 1 1
16 9 4 4 6 7 7 7 7 8 6 7 9 13 14 16 15 19 28 33 36 34 29 31 31 26 24 26 27 25 22 19 18 16 15 12 11 8 6 5 4 5 4 7
14 9 11 10 10 8 11 12 8 11 12 12 15 16 26 32 30 30 27 27 34 26 27 32 29 23 22 22 22 21 20 16 15 13 11 10 7 6 6 5 4 3 2 4
9 11 10 11 12 13 13 12 13 13 15 17 17 24 31 33 35 32 31 33 35 33 32 33 28 25 21 19 18 15 14 14 11 9 7 5 4 5 3 3 2 2 3 3
9 10 11 10 10 12 14 15 14 14 16 21 25 29 29 27 20 27 29 31 36 33 28 23 20 19 17 16 16 15 13 10 7 6 4 3 2 1 2 2 3 3 4 6
14 14 14 16 15 14 14 14 18 23 23 26 29 26 28 29 28 27 27 28 26 24 20 18 18 18 18 14 13 11 10 8 6 4 2 3 4 3 2 4 6 7 7 8
16 20 23 23 26 22 15 22 25 27 24 28 29 29 27 26 28 29 29 26 22 20 17 17 17 16 15 14 12 10 9 7 6 5 3 5 4 5 8 6 6 6 7 8
15 18 19 21 23 28 28 27 29 28 28 29 29 26 25 25 24 24 21 18 18 19 18 16 14 13 12 11 9 8 8 6 6 6 6 7 6 6 6 8 9 8 9 10
17 16 20 24 25 26 28 29 30 29 29 28 27 26 26 23 25 26 21 18 16 15 15 14 12 11 9 10 9 9 9 9 9 8 8 9 9 9 8 10 10 10 12 13
21 23 24 24 24 26 29 30 29 28 27 25 24 24 22 19 16 15 13 15 15 15 17 15 12 10 10 12 11 11 11 11 11 11 11 11 12 12 11 10 11 12 12 10
22 23 23 24 26 27 22 24 26 26 27 29 27 23 20 20 21 19 18 14 14 16 16 16 17 13 12 12 11 12 13 13 12 13 14 12 10 11 12 14 15 13 11 11
25 26 25 23 21 19 20 19 21 22 23 24 24 24 23 20 18 16 17 17 12 14 13 14 13 12 12 13 15 14 12 13 13 11 9 11 12 13 14 14 13 13 11 11
23 21 23 26 23 21 20 20 20 17 17 18 19 21 20 19 16 15 15 14 13 14 15 14 11 11 11 13 12 11 11 11 12 11 11 11 12 14 15 15 14 14 16 18
22 21 20 20 21 22 23 22 20 19 21 18 19 20 20 19 18 15 13 13 14 13 13 12 12 13 12 13 13 12 12 13 13 10 11 12 14 14 14 15 17 19 20 20

GFSNGP_925_spd_042.txt.gz
Wind_Speed
17 14 18 19 9 9 14 7 9 7 9 10 10 11 11 10 7 6 8 8 8 8 7 9 16 15 20 31 33 31 34 34 40 35 30 28 27 29 29 29 30 27 25 23
10 13 16 20 20 16 15 10 7 8 8 8 14 9 7 9 10 10 9 10 11 9 8 9 16 20 22 26 25 24 26 23 24 24 26 29 27 26 28 26 24 25 25 24
6 16 13 11 27 19 6 7 6 8 8 8 9 10 12 14 14 14 11 10 10 12 11 14 19 25 24 26 25 26 25 24 25 28 28 29 29 27 26 23 20 17 18 20
7 14 8 18 4 16 16 9 7 5 6 10 16 16 10 11 15 12 12 10 11 11 8 17 25 24 28 27 26 30 27 27 30 30 28 30 30 29 26 22 19 19 19 19
4 7 16 5 12 3 7 14 8 8 11 9 9 2 6 9 14 17 13 10 9 17 19 23 28 30 31 27 26 26 24 26 28 31 31 31 29 27 25 23 21 21 20 20
3 4 6 9 7 12 2 8 9 15 12 9 5 2 5 8 8 6 6 9 13 20 23 25 26 31 29 24 24 23 26 27 28 29 29 28 27 25 23 23 23 22 20 19
4 4 8 11 23 8 11 7 15 4 9 9 6 7 6 8 4 6 11 15 21 21 22 25 30 30 24 25 21 27 28 28 27 26 26 25 26 26 27 27 26 24 22 20
5 4 10 2 11 5 6 4 13 15 5 4 7 5 6 7 8 10 12 12 18 19 19 26 31 31 23 21 27 29 29 28 27 26 26 27 27 27 27 28 28 26 25 22
9 7 4 1 1 6 5 5 4 10 10 4 7 6 9 8 10 11 14 13 18 20 19 21 26 31 23 23 29 29 28 27 27 25 25 26 28 26 24 24 25 25 26 25
3 8 11 4 3 8 6 5 6 8 9 10 4 6 7 7 9 10 9 11 19 21 16 16 22 24 29 28 28 28 26 25 24 23 20 18 19 19 20 21 23 23 21 20
5 6 3 10 7 7 8 3 3 8 6 6 2 5 5 2 7 9 10 14 19 18 17 17 24 26 28 30 30 29 27 22 21 21 21 21 20 17 17 13 17 21 19 20
6 8 4 7 9 7 4 3 1 5 8 7 6 7 4 4 2 8 9 17 17 18 21 19 23 25 27 28 30 30 26 25 25 27 25 25 25 23 18 13 10 10 10 6
6 15 7 8 5 6 6 7 4 5 4 5 9 6 7 4 3 15 18 19 20 20 24 26 27 26 24 27 30 31 31 28 25 24 22 20 18 18 18 14 12 11 9 7
14 13 5 9 5 8 7 6 6 6 6 7 6 5 7 14 13 17 18 23 28 30 28 28 31 28 25 29 32 32 31 28 24 21 19 17 15 13 12 9 6 4 3 3
16 12 7 6 11 12 11 10 12 13 12 14 15 12 14 17 15 20 26 30 34 34 29 31 32 27 27 30 31 29 29 27 25 22 19 18 16 13 10 8 7 6 7 9
13 10 11 12 11 13 13 15 13 13 14 15 16 17 24 27 28 29 27 24 30 25 28 31 32 29 29 29 27 24 21 20 19 16 13 12 10 9 7 6 4 4 4 7
7 8 12 11 13 14 14 11 12 11 13 15 17 24 28 30 32 31 33 31 33 33 30 31 29 23 21 21 22 20 18 16 15 14 13 11 9 7 5 4 3 3 3 2
8 8 9 10 10 10 12 13 13 15 15 21 24 30 29 27 20 25 26 29 34 35 33 29 27 26 24 21 20 17 17 15 13 12 10 9 7 5 5 4 3 2 3 4
14 13 13 14 14 13 13 13 17 21 23 26 27 25 29 27 26 25 27 29 26 24 22 26 26 25 23 19 18 16 15 14 12 10 9 8 6 6 6 6 4 4 4 5
16 19 22 22 23 21 16 20 24 25 25 28 29 28 26 25 27 29 31 28 24 21 22 23 23 24 22 19 16 14 14 13 12 11 10 8 7 7 7 7 7 6 6 6
14 17 18 20 22 25 24 24 26 25 25 26 26 24 24 22 22 22 24 21 21 22 22 22 22 21 18 16 16 15 14 14 13 11 11 10 9 8 8 8 8 8 7 8
16 15 19 21 22 23 25 26 27 26 26 27 26 26 26 24 25 27 26 23 21 21 22 22 21 18 17 16 15 15 14 13 13 12 12 12 12 11 11 10 9 10 10 9
19 20 22 22 22 24 28 28 28 27 27 25 25 24 24 21 17 17 15 19 22 23 23 20 17 16 16 16 15 15 14 13 12 11 10 9 9 9 10 11 11 10 8 6
20 21 21 21 23 24 21 23 26 27 27 27 26 22 20 19 21 22 23 21 21 21 20 18 17 16 15 15 13 13 12 12 11 11 10 9 10 11 12 11 10 10 10 9
20 21 21 20 19 16 17 19 21 22 23 24 23 23 20 20 21 19 18 18 18 18 17 15 14 13 13 12 12 13 13 12 11 10 10 11 11 12 13 13 12 12 13 15
19 19 20 21 18 17 17 18 18 17 18 20 21 22 22 20 19 18 19 18 17 16 15 14 12 12 12 12 11 10 9 10 9 9 10 11 12 13 12 12 14 17 19 19
19 18 17 20 22 22 22 20 19 16 19 22 21 20 19 18 18 18 17 15 14 14 13 12 12 13 13 11 10 10 11 10 10 12 13 12 11 11 14 16 18 20 19 19

GFSNGP_925_spd_045.txt.gz
Wind_Speed
5 6 10 15 16 18 16 12 13 7 11 10 10 10 10 11 6 7 8 8 7 7 10 10 18 24 29 35 33 32 33 35 40 39 35 34 34 37 34 33 36 38 39 35
4 6 2 13 20 18 19 14 8 6 7 8 11 6 6 8 9 9 9 10 11 9 8 9 17 24 27 29 32 35 34 34 30 32 33 33 32 33 30 31 31 31 30 29
5 2 6 8 5 13 17 17 9 12 9 7 7 9 11 13 10 12 13 10 11 11 15 12 21 28 26 27 26 30 28 26 30 29 28 27 26 26 27 29 28 24 24 23
4 1 3 9 3 14 18 20 15 8 5 9 8 8 10 11 12 12 10 10 10 10 10 20 22 22 21 20 23 25 22 22 23 24 24 24 26 26 26 24 22 20 18 17
2 2 7 9 6 2 8 24 23 15 9 9 8 5 7 9 11 16 15 14 13 18 13 22 27 25 24 22 23 23 22 23 24 26 27 28 29 29 26 24 21 18 17 17
3 2 6 18 5 11 12 20 5 7 9 12 6 9 6 11 8 11 11 6 7 10 16 24 26 30 26 21 23 20 23 25 26 25 26 25 23 23 22 21 20 19 18 18
4 4 8 8 1 5 1 7 16 9 10 9 5 11 10 8 10 6 5 6 14 18 18 20 29 29 21 21 18 23 25 25 24 23 23 22 22 21 22 22 23 23 22 20
4 4 8 5 3 7 4 22 15 12 8 8 8 10 7 10 8 7 8 9 15 13 15 22 26 27 19 18 22 24 24 23 22 21 21 23 24 23 24 26 26 24 24 21
9 7 6 5 3 7 7 8 17 9 12 7 9 8 7 6 5 6 8 8 14 16 17 18 21 25 22 21 28 28 26 24 23 22 22 22 25 25 26 25 25 21 22 21
2 7 11 12 11 8 8 6 19 15 10 7 6 7 3 5 6 6 5 6 11 16 14 14 19 19 25 27 27 29 29 26 25 26 24 22 22 23 25 23 21 21 19 18
8 10 6 12 10 8 11 10 11 13 9 7 7 4 2 2 6 7 6 9 12 12 15 16 21 22 23 27 30 29 30 29 28 27 26 24 20 16 17 16 20 24 22 23
4 5 4 8 7 9 8 8 8 10 7 6 5 4 5 4 4 7 8 13 15 16 19 19 22 23 23 25 29 33 29 26 26 28 27 28 30 28 22 17 14 13 14 16
5 13 12 14 5 11 5 7 6 7 10 13 11 1 6 3 6 20 20 20 17 17 21 21 24 24 21 24 29 30 30 27 27 26 25 25 22 22 23 21 18 16 15 14
8 10 4 8 7 13 13 11 8 10 12 14 12 7 14 14 18 19 17 22 25 26 26 24 28 26 22 25 29 30 29 27 25 23 23 23 21 20 19 16 14 12 8 10
10 8 7 9 10 14 13 12 14 13 13 15 20 16 16 20 19 20 24 25 29 33 29 28 28 27 25 27 33 30 29 27 27 25 22 20 18 16 13 11 9 11 12 9
13 6 9 9 10 12 12 13 11 11 11 14 15 17 24 28 31 31 29 27 28 24 29 30 31 29 31 30 31 28 26 23 21 20 18 16 14 13 12 10 9 7 6 5
6 5 9 9 9 12 12 11 11 10 11 14 16 22 26 28 30 30 29 31 36 32 30 30 27 27 26 25 26 25 24 21 19 18 18 15 14 13 11 9 8 8 6 4
7 7 8 8 8 9 12 12 12 14 14 17 21 25 26 24 18 24 25 29 35 35 32 29 27 26 25 23 22 22 22 21 20 19 17 16 14 12 12 9 8 6 5 5
11 12 12 13 12 12 12 13 18 21 20 20 24 24 26 27 26 25 26 29 27 25 23 28 29 29 27 23 22 22 22 21 19 17 15 13 12 12 11 9 9 8 7 7
14 16 19 21 22 20 16 19 22 23 20 25 28 28 26 26 27 29 30 29 25 21 24 26 28 27 24 21 21 20 19 18 17 16 14 14 13 12 11 10 10 9 8 7
13 18 20 21 23 25 25 23 24 25 25 26 26 24 24 23 23 21 23 20 21 23 24 24 24 23 21 19 19 18 18 17 16 15 14 14 13 12 11 10 8 8 8 8
16 15 20 24 24 24 26 26 26 26 26 25 26 26 26 25 26 28 26 22 21 23 24 23 21 19 19 18 18 18 17 17 16 14 13 12 12 11 10 10 10 10 8 7
17 20 22 20 19 21 24 25 25 26 25 24 23 22 22 19 17 17 15 17 21 21 23 22 19 18 17 18 17 16 16 15 15 14 13 11 10 10 11 10 9 8 6 4
20 20 19 19 21 22 20 21 25 26 26 26 25 21 19 21 22 23 23 20 21 22 21 18 17 17 16 16 16 15 15 13 12 10 9 9 9 9 9 9 7 7 8 11
18 19 19 18 17 15 18 18 21 20 21 22 22 22 21 20 20 19 18 18 16 16 17 15 14 14 13 13 12 11 10 10 9 8 8 8 8 9 8 8 9 11 14 15
19 17 17 18 15 15 16 17 17 16 17 18 21 19 18 18 18 17 16 15 15 14 14 13 13 12 11 10 9 9 9 8 7 8 8 9 8 8 9 11 13 15 17 17
18 16 16 19 21 19 19 19 19 17 18 19 18 16 16 16 16 15 14 13 12 11 11 11 11 10 9 8 7 7 7 7 8 9 9 8 9 10 12 14 18 20 19 18

GFSNGP_925_spd_048.txt.gz
Wind_Speed
3 5 4 8 9 6 5 6 7 8 12 9 9 12 14 12 7 7 9 8 9 10 11 11 15 22 27 30 28 32 33 34 41 40 39 40 41 40 36 36 39 38 36 35
4 9 10 11 7 8 6 5 8 11 14 9 14 7 8 10 8 9 10 10 9 9 8 11 18 24 27 28 30 33 33 37 34 33 35 38 37 34 34 36 35 34 36 38
2 2 3 7 7 12 7 5 5 5 10 15 12 11 9 12 9 11 11 11 10 10 11 12 20 27 27 30 28 33 32 31 30 31 32 33 32 30 33 33 33 35 36 36
1 0 3 6 3 5 8 9 8 7 6 13 20 14 10 8 8 9 12 13 11 9 8 19 23 26 28 26 31 31 27 26 29 32 29 27 29 28 30 31 31 29 27 26
3 3 7 10 6 6 8 17 5 8 7 10 16 11 14 8 9 13 14 12 11 16 20 21 25 26 25 22 22 24 24 24 25 25 24 24 23 24 22 22 20 20 20 18
3 2 5 4 3 4 3 9 3 5 6 8 13 8 10 10 7 11 11 9 8 13 15 19 22 25 23 17 18 16 20 21 23 23 23 24 23 22 21 21 21 19 18 15
3 3 7 6 6 1 2 6 7 4 5 7 6 7 16 23 24 8 7 8 8 13 13 17 21 25 19 19 15 20 21 21 19 17 18 19 21 21 23 25 24 23 22 19
4 4 8 6 2 6 7 4 4 7 5 6 13 19 21 18 12 8 7 3 1 2 5 13 20 22 16 16 21 22 21 21 19 17 17 19 23 23 23 24 26 25 27 25
8 7 4 5 5 5 3 7 5 5 8 11 14 18 18 11 7 4 5 5 10 11 12 13 13 19 20 18 23 24 23 21 20 20 21 21 24 25 24 22 24 21 22 22
2 5 12 9 7 4 6 12 11 8 7 13 16 15 15 9 6 5 6 5 15 15 10 11 17 21 24 24 24 25 25 24 23 24 23 21 20 18 20 21 21 19 19 18
10 7 8 11 5 12 13 10 12 8 5 12 13 15 10 7 7 5 7 9 16 14 14 14 17 21 23 26 26 27 27 25 25 25 24 23 20 16 16 14 17 23 20 20
4 4 2 7 8 14 10 14 17 10 7 7 8 11 5 6 7 8 8 13 19 17 21 20 20 20 20 21 25 30 27 24 23 25 24 23 26 28 20 12 8 10 14 16
5 10 9 13 12 12 11 13 14 13 10 13 14 11 12 9 11 16 16 19 16 21 23 22 27 23 19 20 24 24 26 24 23 22 20 20 20 21 25 26 25 21 19 18
8 11 4 10 6 11 13 13 12 12 14 13 13 17 17 13 18 19 20 21 22 22 25 27 32 27 22 25 30 31 30 26 24 23 23 23 22 21 19 17 17 18 13 13
9 10 9 5 6 10 10 10 11 11 12 13 18 16 17 15 15 18 22 22 28 29 29 30 35 25 31 30 34 32 31 30 30 28 24 21 19 19 17 16 15 16 16 14
13 11 6 5 7 9 10 14 11 11 11 12 14 17 20 22 24 26 29 28 27 23 28 32 29 26 32 34 35 33 30 28 27 24 22 20 19 18 16 16 15 13 11 8
7 5 9 8 8 10 13 9 10 10 11 12 15 16 20 22 26 28 30 32 35 34 32 31 29 29 31 31 33 30 28 26 25 24 23 20 19 18 16 16 14 13 12 8
7 7 8 8 8 10 12 11 12 15 14 19 23 21 23 23 17 22 25 28 34 37 33 31 30 31 31 30 29 27 27 25 24 22 20 20 19 17 16 15 13 13 11 10
12 10 10 11 11 12 11 10 16 19 20 24 26 22 25 25 24 24 26 30 29 26 25 29 31 32 31 27 27 26 26 24 22 21 20 19 19 17 16 15 14 13 10 9
12 16 19 21 21 22 17 19 20 22 21 25 26 25 25 25 25 26 29 30 26 22 25 28 29 29 26 24 24 23 22 21 20 19 18 18 18 17 16 14 13 11 9 8
12 16 18 20 21 24 23 21 23 22 24 27 27 23 22 23 22 20 22 20 22 25 26 25 26 24 22 21 21 21 21 21 20 19 18 18 17 16 14 12 10 9 7 5
14 14 17 19 21 22 23 22 23 24 24 25 23 22 24 23 23 26 25 22 21 23 25 25 23 21 20 20 20 20 19 19 18 17 17 16 14 13 11 10 10 9 7 5
18 19 20 20 20 21 25 25 25 25 24 22 22 22 21 18 14 13 14 18 23 22 23 23 21 19 18 19 19 19 18 17 16 15 13 12 11 10 9 8 7 7 6 8
19 18 18 16 18 20 19 19 21 22 23 24 24 19 16 17 19 21 22 20 19 20 21 19 18 17 16 16 15 14 14 13 12 10 10 9 8 8 7 7 7 8 10 12
16 16 15 14 15 14 16 15 18 18 19 19 18 17 15 15 17 17 18 18 16 16 16 14 13 12 12 11 11 11 11 10 10 8 8 7 7 6 6 6 8 10 12 15
14 13 13 15 13 14 14 15 14 14 15 17 17 16 16 16 16 16 15 14 14 13 13 12 12 11 10 9 9 8 8 7 7 7 7 6 5 6 8 10 12 16 18 18
14 13 14 16 18 17 17 17 19 16 14 16 17 14 15 14 14 13 12 12 11 10 10 10 10 10 7 5 6 6 6 7 7 7 7 8 8 10 14 17 18 17 16 16

GFSNGP_925_spd_051.txt.gz
Wind_Speed
2 4 5 5 7 7 5 8 6 6 11 11 14 15 15 15 16 15 14 13 9 9 11 13 19 24 27 27 29 33 33 34 41 38 35 35 34 34 34 35 35 33 30 28
3 9 8 7 8 10 13 14 13 14 12 15 15 13 12 16 16 15 14 14 12 9 9 10 17 23 24 25 29 32 32 36 31 31 32 33 34 34 33 33 31 29 33 33
2 2 1 6 8 14 8 9 6 10 12 3 8 13 14 13 16 15 12 13 13 12 10 10 19 25 25 28 25 31 32 30 29 29 30 30 29 29 31 30 27 29 29 29
2 1 5 2 4 4 7 12 14 14 12 13 15 14 20 16 15 17 14 12 12 11 11 18 21 21 26 18 24 27 27 27 27 28 28 24 24 26 25 24 26 28 30 31
2 4 8 10 6 4 6 10 3 3 7 10 12 13 12 6 9 14 17 16 14 18 17 20 18 25 20 17 21 23 26 26 25 26 23 21 21 22 24 24 23 23 22 23
3 3 5 3 1 1 2 6 4 4 8 11 12 10 10 18 18 19 18 16 15 21 16 19 18 15 17 20 20 22 20 18 18 18 20 19 18 20 19 18 17 16 15 13
4 4 7 10 8 2 2 2 2 3 10 8 7 8 16 21 21 18 16 20 23 16 13 14 11 12 14 13 13 14 19 19 19 20 21 19 19 17 18 18 20 21 22 21
6 5 8 3 4 4 2 6 8 9 8 9 11 11 15 19 19 19 17 18 18 13 4 5 6 13 13 12 19 24 25 23 21 20 20 20 22 20 20 25 27 25 27 25
8 6 0 3 2 6 10 10 10 13 15 11 11 10 14 19 19 16 16 12 14 7 5 6 9 14 18 17 24 27 28 25 23 21 22 21 24 25 26 25 25 20 19 21
2 5 13 10 2 6 10 11 14 15 15 9 10 10 14 17 15 12 12 12 12 8 9 12 12 11 17 22 24 27 28 28 27 27 28 26 24 23 23 21 20 19 18 17
8 9 10 3 9 12 13 12 14 15 12 12 15 19 15 10 12 11 12 12 12 12 14 18 17 19 16 17 24 26 26 25 26 27 28 29 26 19 20 15 13 15 15 17
5 3 4 7 12 11 11 13 13 13 13 11 16 14 13 10 12 14 13 13 17 17 17 17 21 24 21 15 17 24 25 22 20 23 24 25 28 32 26 18 15 17 20 20
2 5 8 8 2 10 9 11 10 10 10 8 15 11 10 8 15 15 17 19 20 20 20 23 23 22 22 19 21 24 23 22 21 22 23 24 23 25 29 33 33 29 25 23
3 6 5 6 4 9 10 10 8 9 11 14 16 13 13 11 18 16 18 19 21 23 27 28 27 26 27 25 30 31 32 34 28 23 25 25 24 22 21 19 21 22 22 23
8 6 7 5 6 8 9 9 8 10 10 11 19 15 13 10 12 14 16 20 25 29 26 28 28 29 30 31 30 33 31 30 33 29 24 22 20 20 19 18 19 19 18 18
13 11 4 5 7 8 7 8 8 8 10 11 12 17 17 20 19 22 24 25 26 23 25 29 30 29 29 32 32 33 33 32 29 25 24 24 21 20 18 17 16 15 13 10
8 5 7 6 7 8 9 7 8 8 9 11 14 17 20 24 25 25 26 28 33 32 30 30 27 30 31 29 33 27 27 28 28 28 25 22 21 21 17 16 16 15 14 12
6 6 6 7 7 7 10 10 12 13 12 18 17 19 20 20 17 20 21 26 31 35 33 29 29 30 31 29 29 27 26 24 24 23 20 20 19 17 16 15 14 14 13 13
11 9 11 12 12 11 11 13 16 18 21 21 22 21 23 23 22 22 24 27 27 26 26 27 27 29 27 24 22 20 20 21 20 19 19 19 18 17 16 15 14 12 10 9
12 16 18 19 19 18 16 18 20 22 21 22 23 22 21 21 21 24 28 30 27 21 23 24 24 25 23 22 20 18 19 19 19 18 17 17 16 16 15 14 12 11 9 8
12 16 17 18 19 21 20 19 21 22 22 24 23 21 20 20 20 20 23 21 21 22 23 22 21 19 19 19 20 20 18 17 17 17 16 15 15 14 12 10 9 7 6 6
12 14 16 18 19 20 21 21 21 21 22 22 20 18 20 20 22 27 26 21 16 21 20 21 23 21 20 19 18 18 18 17 16 15 15 13 11 10 9 8 8 8 7 6
15 16 18 18 18 19 21 22 22 21 21 21 20 20 20 18 16 16 16 16 17 21 21 23 20 19 19 20 19 19 19 17 15 14 13 12 10 9 8 7 7 6 5 6
14 15 16 15 16 19 19 18 19 19 21 20 20 17 15 18 19 17 18 18 18 20 20 18 16 15 16 16 16 16 15 14 13 11 10 9 8 7 6 6 5 6 7 8
13 14 14 15 16 15 15 13 15 14 15 16 15 15 14 12 13 12 15 16 15 16 16 14 13 12 12 12 13 12 11 10 9 8 7 6 6 6 6 6 7 9 11 13
13 13 14 15 13 12 11 11 12 10 11 14 14 14 15 16 15 14 14 13 13 13 14 13 12 10 10 10 9 9 8 7 7 6 6 5 5 5 6 9 12 13 12 12
13 13 13 14 14 13 12 11 11 9 11 12 12 11 13 13 12 12 11 11 11 11 11 10 9 8 7 6 6 6 6 6 6 5 5 5 7 9 11 12 12 12 12 13

GFSNGP_925_spd_054.txt.gz
Wind_Speed
1 1 1 4 7 7 6 6 6 8 9 8 9 12 15 14 17 19 19 17 14 11 10 12 18 24 27 29 30 32 34 35 39 39 37 35 35 35 34 34 35 35 33 33
5 5 6 8 9 9 10 11 11 15 17 12 11 11 13 16 16 17 19 20 18 15 12 12 17 22 24 27 31 31 34 38 35 34 34 36 35 33 32 33 34 33 33 34
9 3 5 8 15 16 13 12 9 11 8 11 12 13 16 19 18 19 21 21 21 20 16 11 15 21 24 27 26 31 33 32 33 32 33 33 31 32 34 33 31 32 32 32
3 3 7 1 3 0 6 9 8 8 8 7 9 10 13 17 15 16 19 22 21 19 19 19 16 16 21 22 26 29 30 30 29 31 31 29 28 29 28 28 29 28 26 26
4 11 9 12 6 8 7 4 0 3 6 9 9 11 9 11 14 18 19 20 21 28 27 29 23 15 15 19 24 27 29 31 29 29 27 27 27 25 24 23 19 20 21 23
5 7 6 4 5 1 1 3 7 6 8 11 12 8 8 15 16 17 19 24 26 31 31 28 26 19 16 18 22 26 28 27 25 26 26 25 24 21 20 19 20 17 14 12
11 7 3 9 5 2 5 4 9 12 13 13 9 10 12 14 18 16 19 26 32 30 27 25 22 18 18 16 20 22 20 19 19 20 20 19 18 19 21 20 19 17 15 13
11 6 7 5 3 4 7 8 13 15 15 15 14 11 11 13 17 19 22 25 29 27 25 20 17 15 14 10 3 9 15 17 18 19 22 22 25 23 22 23 22 21 23 23
7 7 3 2 3 9 9 9 12 13 16 16 13 8 9 12 14 17 21 24 28 26 22 19 18 12 3 3 8 14 19 21 24 24 22 20 20 20 22 27 20 18 21 21
5 8 10 6 4 6 8 8 10 11 13 14 11 10 10 8 8 11 15 18 24 22 19 18 18 19 14 10 9 18 23 22 25 28 25 24 24 21 20 21 21 20 19 20
12 13 11 10 3 8 9 9 10 11 11 10 13 13 12 10 10 12 13 20 21 19 17 20 19 17 20 18 17 23 24 22 24 28 30 30 29 24 24 17 17 20 19 21
8 5 0 5 7 7 9 9 10 11 12 10 10 12 12 8 10 13 13 15 17 18 17 19 18 20 22 21 20 21 23 22 22 25 28 26 30 36 34 25 24 25 23 26
4 6 7 10 7 6 9 9 8 8 9 11 9 8 8 7 12 13 15 18 20 19 17 18 19 23 25 26 27 24 23 24 24 26 25 25 25 27 30 36 38 35 31 29
7 7 6 10 4 8 9 8 5 5 7 9 9 8 10 10 15 16 18 17 19 19 20 19 24 25 25 31 35 35 27 29 31 26 25 27 24 23 23 22 24 26 28 28
7 6 7 9 3 5 6 6 4 5 7 9 12 11 10 13 14 16 17 19 17 21 22 24 26 26 29 32 36 33 30 28 28 27 26 23 24 21 21 22 23 22 21 20
11 8 4 4 4 5 6 6 3 7 8 7 10 13 15 19 18 20 23 24 22 21 24 26 29 29 29 31 31 32 31 30 26 25 23 22 22 19 19 19 18 17 16 12
8 3 6 4 5 7 8 7 8 8 9 10 13 14 17 19 23 23 24 27 27 28 25 28 25 27 29 28 25 25 25 26 26 24 21 20 20 20 18 17 17 17 17 15
4 4 5 6 5 6 9 9 11 13 12 15 17 18 20 21 18 21 20 21 25 29 30 29 25 27 27 25 23 22 22 23 22 21 20 21 20 18 17 16 15 14 13 13
8 8 11 12 12 11 11 12 15 16 16 17 20 21 21 22 21 21 21 24 25 24 25 24 24 25 24 22 20 20 20 20 21 20 19 18 18 16 15 14 13 11 10 10
12 15 17 17 17 16 15 16 17 18 17 18 19 20 20 19 19 21 22 26 23 19 18 19 19 21 22 22 20 19 19 19 19 18 16 16 15 14 14 13 10 10 9 9
12 16 18 18 18 18 18 17 19 20 18 19 20 19 19 19 18 16 19 18 18 17 18 20 20 19 19 18 19 18 18 17 17 16 15 13 13 12 11 11 10 9 8 8
13 15 17 17 18 19 19 19 19 18 18 18 17 17 18 18 19 22 21 17 16 17 18 19 19 19 17 17 17 17 17 16 15 14 13 11 11 10 11 10 9 8 7 5
15 17 17 17 18 18 18 19 18 18 18 17 17 17 17 16 13 12 14 16 14 15 15 15 14 16 16 16 16 15 15 14 13 12 11 11 10 9 8 7 6 5 4 5
16 16 16 15 14 15 16 16 16 16 16 16 15 13 12 13 15 14 13 13 14 14 13 12 13 14 14 13 13 13 12 11 10 9 8 8 7 6 5 4 4 5 5 6
14 14 12 12 12 12 11 11 12 12 12 13 14 14 14 12 11 9 9 9 10 9 9 11 12 12 11 11 10 10 9 9 8 7 6 5 5 4 4 5 5 6 7 7
11 12 12 12 10 8 7 6 8 7 8 10 11 11 11 10 9 8 8 8 9 9 9 10 10 9 9 9 8 8 7 6 6 5 4 4 4 5 6 7 7 7 7 7
11 9 9 10 10 9 8 7 7 8 8 8 9 8 8 7 7 7 7 7 7 8 8 8 7 6 6 5 6 5 5 5 5 4 4 5 6 6 7 7 7 7 7 7

GFSNGP_925_spd_057.txt.gz
Wind_Speed
9 5 5 6 14 11 12 12 10 12 10 8 6 8 11 11 12 14 14 15 16 17 14 13 13 20 25 29 31 33 34 36 39 40 38 36 36 37 37 37 39 38 37 39
8 6 6 7 9 11 13 12 12 14 14 13 12 5 8 10 13 15 16 16 17 18 20 17 21 15 21 26 29 31 33 35 36 33 35 37 36 36 35 36 36 35 37 37
4 7 8 8 14 14 13 14 13 13 9 9 6 6 9 13 14 14 14 18 18 18 16 19 23 22 16 22 25 29 32 35 34 34 35 37 36 35 37 37 34 36 36 35
5 5 4 6 5 3 12 13 11 7 4 4 5 5 8 11 9 13 14 17 18 16 18 23 26 27 26 21 24 28 32 32 33 33 34 33 33 36 35 35 35 34 33 33
5 7 10 5 3 9 7 7 3 2 3 3 6 7 8 13 11 13 14 14 17 25 26 25 24 26 28 27 22 27 30 31 33 32 32 32 33 34 33 31 29 29 27 27
5 11 11 5 3 2 3 7 11 5 4 6 9 6 6 13 12 14 16 18 20 25 25 25 26 28 30 26 24 25 27 30 30 30 31 30 29 27 26 26 24 23 17 15
11 8 6 8 9 0 11 5 9 6 7 10 8 9 10 10 11 12 16 21 23 22 22 25 27 28 27 27 26 27 26 25 25 27 27 27 25 24 19 18 19 17 16 11
13 10 13 8 3 7 8 4 8 7 9 9 10 11 8 9 12 13 16 21 23 21 21 22 26 28 28 28 21 16 9 2 8 6 7 15 22 21 20 24 25 22 23 23
11 9 3 3 7 8 7 7 8 9 10 10 12 14 12 10 13 14 15 19 23 20 19 19 26 27 26 29 21 12 5 7 11 14 14 14 20 22 23 22 22 20 18 20
1 7 9 5 8 8 9 9 10 11 12 12 12 12 12 12 12 13 17 19 23 22 18 20 24 26 28 25 15 7 11 14 18 24 25 24 23 19 18 17 18 17 20 19
8 9 7 7 8 8 9 10 12 13 12 13 13 12 12 11 13 13 17 20 21 20 19 20 23 26 29 27 13 12 17 19 24 27 29 29 32 24 26 21 21 21 20 22
4 9 8 8 9 10 11 13 13 14 14 13 12 12 13 11 13 14 15 19 20 21 22 24 26 25 26 26 19 13 19 19 20 30 27 25 33 40 44 41 36 33 33 35
3 8 8 10 12 12 10 11 11 11 12 13 13 12 13 9 14 14 16 18 20 20 21 23 28 29 29 24 20 19 19 21 22 33 26 22 28 32 33 42 43 41 38 37
8 10 1 10 6 8 9 9 7 8 10 13 13 13 11 11 13 16 17 17 18 20 23 22 27 29 30 27 25 23 21 26 29 29 26 30 19 27 28 27 28 32 32 32
7 6 5 6 5 6 8 8 6 8 8 9 13 12 13 12 15 16 16 15 19 25 26 25 29 31 30 27 27 27 23 27 28 28 30 30 24 30 28 29 26 25 22 24
10 7 3 4 5 7 7 7 5 7 8 9 12 14 15 16 17 19 21 23 25 25 27 28 29 28 27 29 29 27 29 32 29 25 25 25 21 25 25 22 22 21 18 14
9 5 8 6 6 7 8 7 7 7 8 11 13 12 14 17 19 20 21 22 26 27 28 28 27 30 30 28 28 25 24 25 25 25 24 22 22 22 21 21 22 20 19 18
6 6 6 6 6 6 8 9 11 11 12 15 17 17 17 18 16 17 17 17 22 28 29 27 27 29 31 28 25 24 23 22 23 23 22 21 19 19 20 20 19 18 16 15
10 8 9 11 11 11 11 13 14 15 15 16 18 18 18 18 17 18 19 22 23 23 25 23 24 27 28 25 21 21 21 20 20 20 19 18 19 18 17 17 16 15 13 12
11 13 15 16 16 14 16 16 16 17 16 16 17 18 18 16 14 17 20 24 22 19 19 21 20 22 21 20 19 18 18 19 18 17 17 16 15 15 15 15 14 13 12 11
12 16 17 17 18 18 18 17 17 18 17 17 18 17 17 17 20 15 16 17 19 17 18 21 21 19 19 17 18 18 18 17 16 15 14 13 13 13 13 13 12 11 11 9
14 15 16 16 18 19 18 18 18 17 16 15 13 11 12 13 14 18 19 16 14 15 15 16 18 19 16 16 16 16 15 15 14 12 12 12 11 11 11 10 10 9 8 8
15 16 16 16 16 17 17 17 16 16 16 16 15 15 16 14 14 11 11 14 13 14 14 15 16 15 15 14 13 13 13 13 13 11 12 11 10 9 9 8 8 7 6 6
15 14 14 12 12 13 14 13 13 13 13 13 12 13 9 9 11 11 10 10 11 12 14 13 13 13 12 11 12 13 12 11 10 10 9 9 8 8 7 7 6 5 5 6
12 11 9 9 10 10 10 9 9 9 9 10 10 11 11 11 9 8 8 8 11 10 10 12 13 12 12 11 11 11 10 10 10 8 8 7 7 6 6 6 6 7 7 6
9 9 9 9 8 6 6 5 6 6 5 6 7 7 7 7 7 6 7 8 9 9 9 9 10 9 9 10 9 9 8 8 7 6 6 5 6 6 6 7 7 7 7 7
8 6 7 8 8 8 7 6 5 5 5 4 5 4 5 5 5 6 6 7 7 8 8 8 8 8 7 7 7 7 7 7 7 6 5 6 7 7 7 7 7 7 7 7

GFSNGP_925_spd_060.txt.gz
Wind_Speed
15 17 16 12 15 13 9 13 9 12 13 7 7 16 5 6 9 9 9 13 13 14 14 15 20 21 10 21 26 30 31 30 35 35 36 35 38 41 41 42 41 43 41 43
11 9 9 9 10 7 17 15 5 9 7 11 17 9 9 9 9 9 9 13 11 12 14 16 22 24 27 26 21 27 32 34 33 32 33 37 37 37 36 41 42 40 42 43
3 8 9 8 11 14 16 8 5 9 5 11 5 6 8 8 9 13 12 12 13 13 14 16 21 26 26 29 29 19 26 32 32 32 34 37 37 35 37 39 38 41 42 40
4 6 5 4 2 8 12 7 11 12 4 2 8 9 7 13 13 11 11 12 11 11 15 19 22 27 32 31 31 28 23 27 30 33 34 36 34 37 39 39 38 38 38 39
4 5 8 10 4 2 3 6 11 3 6 8 8 4 9 13 10 10 12 12 14 18 19 21 23 26 27 29 29 30 31 25 26 32 34 34 33 37 37 34 35 36 34 34
7 4 3 7 3 2 1 2 10 11 9 9 8 3 6 3 7 10 11 19 21 22 19 20 23 26 24 24 27 26 33 33 37 27 33 33 34 33 33 32 30 30 29 21
11 8 6 6 3 3 6 5 12 13 12 10 7 7 9 7 9 10 16 20 25 24 22 22 24 25 23 23 22 31 36 34 33 30 20 32 32 31 30 26 27 20 19 14
10 9 12 3 4 5 10 13 10 9 8 9 10 12 12 15 15 16 16 20 23 21 22 23 26 25 24 23 27 27 29 28 25 24 19 4 18 17 19 21 22 20 20 19
9 8 5 6 14 12 12 12 7 9 11 10 10 10 12 12 15 15 19 21 23 22 22 23 25 25 25 25 25 22 19 22 21 16 12 10 11 18 22 23 22 19 19 20
2 8 8 12 9 14 11 12 10 11 11 11 9 11 11 11 13 13 18 19 19 19 19 21 23 22 22 24 20 16 20 21 23 24 22 19 19 18 18 21 20 18 20 21
7 3 9 15 6 14 15 13 12 12 13 11 10 10 11 12 12 13 16 18 18 18 18 20 22 22 23 22 17 16 23 22 24 24 26 28 31 24 30 25 20 24 23 21
4 7 12 9 13 14 13 12 10 12 11 12 12 12 11 10 12 13 15 16 17 19 21 22 22 24 25 25 20 18 25 22 25 24 26 24 28 40 45 48 45 36 34 35
5 9 11 13 15 15 13 13 11 14 14 12 15 14 13 10 13 15 16 18 18 19 20 21 24 27 30 27 26 24 25 21 25 28 25 24 24 28 32 44 49 50 32 39
12 14 7 17 9 13 12 12 15 17 17 16 14 14 14 14 15 17 18 18 20 22 24 24 26 29 29 30 30 25 34 28 24 25 29 27 23 22 22 26 29 28 36 35
13 10 9 8 10 12 13 11 11 11 11 12 15 15 14 15 16 19 19 18 20 24 26 27 28 30 29 29 31 30 31 31 26 29 26 25 24 23 24 25 26 22 22 29
11 10 10 11 11 12 12 12 10 10 10 11 13 15 17 18 19 22 22 22 24 22 24 26 29 29 28 28 26 26 31 31 26 24 24 24 26 20 22 26 23 21 20 19
10 10 10 10 8 11 11 10 9 10 11 13 15 15 16 18 19 21 20 22 24 25 26 28 27 30 27 26 24 23 25 26 24 23 22 20 20 20 22 22 20 20 23 24
9 9 9 9 9 10 11 12 14 15 15 17 17 19 18 17 15 17 18 18 20 26 27 26 25 26 27 25 23 20 20 21 22 22 22 23 22 22 20 18 19 19 21 23
13 10 13 15 14 13 13 14 16 17 16 16 18 17 17 17 17 18 19 21 22 22 25 22 22 22 24 22 20 20 20 20 20 19 20 22 23 20 19 19 20 19 19 19
12 15 17 19 18 17 16 16 17 17 16 16 17 17 17 18 13 15 19 21 19 16 18 19 18 21 19 21 19 19 20 19 19 20 21 21 19 18 19 19 18 18 17 17
13 16 17 17 17 17 18 17 17 16 15 15 16 15 14 15 20 16 14 14 17 16 16 18 21 18 19 18 19 20 19 19 19 18 18 17 17 17 17 17 17 17 15 15
13 13 14 15 15 17 16 16 16 16 16 16 15 10 11 11 16 19 20 15 13 14 15 16 17 19 17 17 18 19 19 19 19 18 19 18 17 17 17 16 16 14 13 13
13 14 14 14 14 15 16 16 15 14 14 14 13 12 14 13 12 11 10 12 12 13 12 14 16 17 16 17 17 18 18 17 16 16 16 15 15 14 13 12 12 11 10 8
13 13 12 11 11 12 13 12 12 11 13 12 14 15 12 9 12 10 9 9 9 13 16 16 16 16 14 15 15 14 13 14 15 13 12 11 11 10 10 8 8 9 7 7
10 9 9 9 10 9 8 7 8 7 8 9 9 10 10 10 10 6 8 8 10 9 9 11 10 11 12 12 12 12 12 11 12 9 10 9 9 9 8 8 9 8 7 7
9 9 9 11 9 6 4 3 6 7 4 8 7 7 7 8 7 6 6 7 7 8 8 8 11 10 10 10 10 10 10 9 8 8 8 8 7 7 7 7 7 7 6 7
7 5 6 7 7 7 8 9 7 7 8 6 6 5 5 5 5 5 6 7 7 7 8 8 8 8 11 8 8 8 8 9 9 10 7 7 7 7 7 7 7 7 7 7

GFSNGP_925_spd_063.txt.gz
Wind_Speed
11 14 6 9 13 13 9 11 8 4 12 9 8 15 12 8 14 15 15 17 17 15 13 16 20 20 20 17 21 26 26 32 36 41 41 41 41 42 37 40 40 40 40 42
4 9 12 7 17 14 10 6 15 5 8 10 6 11 15 9 15 13 15 14 16 17 17 16 21 22 22 22 26 24 21 32 28 33 36 40 40 40 41 42 43 39 45 42
3 11 12 6 3 7 4 5 6 8 10 20 16 12 6 13 14 14 14 16 15 14 13 20 24 26 26 26 23 21 20 20 23 30 32 38 39 38 41 43 41 45 44 42
3 5 3 7 17 12 14 16 20 12 11 4 16 14 12 11 14 15 17 15 13 11 17 21 26 31 33 31 27 24 22 24 26 28 18 30 34 38 40 40 41 43 44 46
2 2 9 9 9 4 8 4 8 11 12 14 14 15 9 11 14 17 15 13 16 20 20 22 26 26 26 27 29 28 29 28 27 23 23 28 24 35 41 40 38 39 39 37
2 4 4 3 11 11 3 5 14 17 15 13 12 10 6 17 18 17 19 20 20 20 19 20 22 23 23 24 25 28 31 32 30 26 24 26 29 32 39 39 40 35 31 33
7 4 5 6 9 8 3 2 8 13 14 14 14 8 11 17 18 21 22 24 22 20 19 19 20 18 17 19 24 28 28 28 27 26 25 25 30 31 22 30 32 30 27 18
4 4 8 5 5 2 7 5 10 11 12 13 12 14 16 16 17 18 16 24 27 22 22 23 24 21 19 20 22 21 24 25 25 26 23 23 25 24 12 2 20 22 22 17
8 6 4 8 10 9 8 11 10 11 12 13 15 16 15 14 16 15 20 20 21 19 19 22 26 26 24 26 27 22 20 20 22 24 26 24 25 25 16 8 10 10 16 18
4 9 8 16 16 14 13 14 14 14 13 14 13 14 14 13 12 12 17 17 18 19 20 22 25 25 24 25 24 20 19 20 22 24 28 32 28 28 24 19 17 16 13 21
3 8 15 16 12 15 16 15 16 15 14 12 14 13 12 10 11 13 15 15 17 18 19 21 24 26 27 27 24 21 21 21 21 22 24 32 42 35 31 35 25 23 22 18
3 7 11 11 11 15 12 8 12 13 14 15 12 12 12 10 14 14 14 14 17 18 18 20 22 24 27 25 23 19 20 21 22 22 21 24 28 38 47 45 46 45 40 33
6 6 15 15 14 12 10 14 15 14 12 12 14 15 16 12 15 16 16 17 17 17 18 20 22 25 27 26 24 24 22 22 23 24 23 22 22 22 26 38 47 44 42 39
10 7 12 13 7 7 11 16 20 18 17 15 16 18 17 16 16 16 17 17 17 19 21 21 23 26 26 26 26 25 24 25 24 24 23 24 25 25 23 23 24 29 39 38
12 12 11 12 11 11 11 14 12 11 11 12 16 17 17 17 17 18 16 16 18 21 23 24 25 27 25 26 28 30 25 24 25 27 26 25 24 23 22 23 23 22 25 33
8 12 10 12 12 12 11 11 11 11 11 15 16 18 20 21 20 19 19 19 20 20 21 24 28 26 25 25 26 27 28 27 25 24 23 21 21 22 22 23 22 22 23 22
7 7 9 11 12 13 13 12 12 12 15 16 17 18 18 18 18 18 18 22 24 23 23 25 25 25 23 24 23 24 24 25 25 23 21 20 19 20 20 21 21 22 24 24
12 11 11 11 11 11 12 15 16 16 16 17 19 20 18 17 14 15 16 19 22 26 25 22 22 23 23 21 22 21 20 19 21 22 23 21 19 19 19 19 19 20 21 22
15 13 15 17 15 14 14 16 17 18 17 18 19 17 19 19 18 17 17 18 18 18 22 20 21 21 22 21 21 21 22 22 21 20 20 22 23 20 20 21 20 19 18 19
13 16 18 19 19 17 16 18 20 20 19 21 21 20 18 14 16 18 19 20 19 16 15 16 19 20 20 18 19 21 21 21 19 21 21 22 22 21 20 20 20 20 19 18
12 14 15 16 17 19 20 20 21 19 18 19 21 18 18 18 18 13 13 14 15 12 13 17 21 18 18 18 18 19 20 21 21 20 20 20 20 21 19 19 19 20 18 16
11 13 14 15 15 16 19 20 20 20 19 16 11 12 14 15 16 18 17 13 12 11 14 18 19 17 16 17 18 19 18 18 18 18 18 17 16 16 17 16 13 13 14 12
13 13 14 15 15 16 17 16 15 16 17 15 13 13 15 14 12 12 9 9 14 11 14 16 16 14 15 15 14 14 17 18 16 15 14 13 12 10 10 12 12 10 9 10
12 11 13 16 14 11 11 12 13 15 14 14 15 14 11 15 13 11 10 9 7 13 11 12 13 12 12 13 13 13 13 12 13 13 11 10 10 9 8 7 7 6 6 4
11 10 11 12 9 9 10 11 12 13 13 13 13 12 11 11 10 7 7 9 10 7 11 9 10 10 11 11 11 12 9 10 9 8 10 8 8 7 6 6 6 5 4 5
10 11 13 15 13 14 12 9 12 11 12 13 11 8 7 8 8 6 7 6 8 7 8 8 12 12 8 10 9 9 10 10 12 10 7 8 7 7 7 7 6 6 6 7
11 7 10 12 12 12 13 14 14 12 11 11 12 9 8 7 7 6 6 6 6 6 7 7 9 9 10 7 9 8 8 8 9 8 7 7 7 7 8 8 10 7 6 8

GFSNGP_925_spd_066.txt.gz
Wind_Speed
7 12 12 12 8 12 16 12 6 4 11 5 6 5 10 11 10 13 13 19 16 14 13 17 20 21 21 21 22 25 9 24 27 29 29 29 30 32 35 36 37 36 36 38
3 5 8 7 13 12 13 16 14 13 10 3 8 2 5 8 12 13 15 18 17 14 14 13 19 18 18 21 23 23 23 23 9 24 29 33 32 32 34 37 38 38 40 40
3 7 9 5 3 10 8 7 11 5 4 9 5 6 5 2 11 15 14 14 14 14 14 18 19 16 18 20 21 24 24 24 24 22 19 16 28 31 35 38 36 37 41 39
3 5 3 4 13 11 13 9 8 7 6 12 10 11 2 7 14 13 13 15 15 12 16 22 22 21 16 18 20 20 21 23 24 25 20 20 19 15 27 37 37 41 41 43
3 3 6 10 4 5 4 3 7 8 10 20 11 20 14 13 15 14 14 12 16 18 19 20 22 22 22 23 21 19 20 21 21 22 24 25 23 22 25 26 26 39 44 42
2 2 4 3 6 14 6 2 10 7 18 21 17 8 7 10 13 15 18 17 17 18 17 17 21 21 21 23 24 24 25 23 21 20 19 19 22 28 26 26 30 31 37 39
4 3 6 6 2 6 2 2 5 14 11 8 7 9 13 11 13 18 17 19 15 15 16 18 19 18 20 20 22 22 22 22 22 22 21 19 21 20 22 25 27 18 16 14
3 3 8 11 7 5 4 3 9 12 15 17 16 15 13 12 13 13 14 15 13 13 15 16 17 17 17 18 17 17 17 20 25 27 25 22 22 24 19 17 13 15 17 21
6 4 6 13 11 12 10 11 8 9 12 13 14 13 12 12 12 11 13 13 14 14 15 17 19 19 19 19 17 16 17 19 20 24 29 26 27 27 22 19 16 16 18 20
3 6 9 12 15 17 14 14 14 12 12 12 14 12 12 11 10 9 14 15 16 16 17 18 19 20 19 19 18 18 18 20 21 24 28 33 30 30 26 21 18 18 18 19
2 10 11 12 12 14 13 14 16 17 15 12 14 14 12 12 11 14 16 18 19 18 18 18 18 20 21 21 16 17 18 18 19 20 23 26 36 39 34 39 27 22 22 21
2 5 9 8 9 9 12 13 14 14 14 14 14 13 13 12 16 16 16 17 18 18 19 20 21 23 23 22 22 20 19 20 21 21 21 22 22 29 40 44 44 43 37 33
4 10 11 9 11 11 13 12 12 17 12 12 15 15 17 14 16 16 15 17 18 17 19 21 23 25 25 23 21 20 19 19 19 21 21 21 22 23 23 30 37 42 41 38
9 5 8 7 6 13 13 14 18 20 17 16 15 16 16 17 16 16 15 14 16 20 24 24 25 27 23 22 22 23 22 23 23 22 22 22 20 21 25 23 22 26 32 34
11 12 11 11 12 11 13 11 12 10 10 13 14 14 13 14 14 13 13 14 18 23 25 25 25 23 20 20 22 21 19 21 21 22 23 22 21 23 23 23 22 21 24 27
9 9 11 12 10 9 8 8 10 10 10 13 13 13 14 15 16 16 17 18 19 18 20 23 23 20 17 17 18 20 21 19 19 18 20 20 18 18 20 20 20 20 21 20
5 6 7 8 8 8 9 9 9 9 11 13 12 13 14 15 16 16 18 20 22 23 23 22 20 17 17 16 16 17 17 18 18 19 18 17 17 18 18 18 18 19 20 20
9 9 8 8 7 8 9 11 12 13 12 12 14 17 17 14 12 14 16 17 20 22 22 21 17 15 16 15 15 14 16 17 17 18 18 18 18 18 17 17 16 17 17 20
12 12 13 13 13 13 12 13 13 14 15 16 18 15 16 17 16 15 15 18 18 17 18 15 16 15 15 13 13 15 16 16 17 17 17 18 19 19 19 19 18 17 18 19
13 14 15 16 15 14 14 14 17 17 18 20 20 18 17 17 16 17 17 18 14 10 11 12 14 14 15 13 12 14 15 16 17 17 17 18 19 18 18 17 17 16 15 15
11 13 15 15 15 18 18 17 19 17 16 17 19 18 17 14 11 10 12 10 11 10 12 14 14 13 13 13 14 15 15 16 16 17 17 17 17 17 17 15 14 13 13 12
12 13 14 15 14 17 17 17 16 15 15 17 16 16 16 15 15 16 12 10 9 11 13 14 14 12 11 11 13 15 16 16 15 14 14 14 13 13 13 12 11 9 7 7
12 13 15 14 14 16 15 14 14 15 15 14 13 13 13 11 8 8 8 11 10 9 11 12 11 10 10 11 10 11 11 12 13 12 10 9 10 9 8 7 6 5 4 4
11 11 13 15 16 12 11 11 12 14 15 13 10 9 9 11 10 9 9 8 10 7 9 8 8 9 9 8 10 11 9 8 7 8 7 6 5 5 5 6 5 4 4 5
9 10 10 7 5 6 9 10 10 10 11 11 10 9 8 6 7 8 6 6 6 7 8 7 5 4 4 7 7 6 7 7 5 3 3 4 4 4 5 7 6 5 5 6
10 11 13 12 10 7 8 8 9 11 12 12 10 8 8 8 7 6 5 5 4 3 4 4 6 6 4 5 4 5 5 5 6 3 3 4 5 5 6 6 8 8 8 7
10 13 13 13 11 10 11 10 10 7 10 10 10 7 5 5 5 4 3 3 2 1 2 3 3 2 2 2 3 3 4 5 5 4 5 4 5 5 5 6 7 10 7 6

GFSNGP_925_spd_069.txt.gz
Wind_Speed
6 7 8 11 12 11 8 6 4 3 8 9 10 6 7 10 8 13 15 15 14 13 11 16 20 18 18 20 20 23 19 10 3 20 25 28 29 32 33 33 37 37 37 39
4 4 8 10 11 11 13 11 11 16 12 5 11 10 5 6 9 13 12 13 14 15 14 14 17 17 18 20 21 21 21 18 13 15 14 7 21 27 31 34 34 33 35 36
4 6 10 7 0 6 5 11 6 11 8 8 14 14 11 11 9 11 12 12 11 12 11 14 16 16 18 18 18 20 20 19 20 17 14 13 11 11 10 23 29 31 34 36
3 4 3 5 12 8 5 5 9 9 9 8 6 14 11 13 12 11 10 9 9 9 12 16 18 18 15 19 19 19 19 19 19 19 17 17 15 14 16 17 16 16 25 33
2 3 6 11 3 3 8 8 2 6 6 8 17 19 14 13 13 11 10 9 12 13 14 17 19 17 16 17 17 18 20 20 19 19 16 15 14 16 19 19 21 23 24 29
1 2 3 4 8 3 6 6 3 5 6 17 15 8 4 9 9 9 14 12 13 12 14 17 17 15 15 16 18 19 19 19 18 17 14 15 16 17 16 15 16 18 21 14
6 3 6 5 12 7 3 5 10 7 15 18 7 5 14 12 11 12 12 12 12 14 15 15 14 15 16 16 19 18 18 19 22 24 18 17 16 16 18 20 17 16 15 17
3 4 7 11 9 3 4 11 10 15 14 19 17 16 14 11 11 9 10 12 11 12 14 16 16 15 15 16 14 14 16 17 21 23 21 21 22 22 21 19 18 18 19 21
5 2 5 6 6 10 6 11 6 13 12 17 16 13 11 10 9 9 11 11 11 12 14 14 14 14 15 15 13 12 13 15 19 22 25 23 26 25 22 21 20 19 19 19
1 8 8 8 11 15 15 16 13 12 12 11 14 11 11 8 7 9 11 12 14 14 16 17 17 18 17 12 13 12 13 15 16 21 25 29 26 28 28 23 22 22 21 21
1 8 11 9 10 14 14 16 16 15 13 12 13 12 10 9 9 12 13 14 15 16 15 16 16 18 19 16 14 15 16 16 18 18 18 23 34 31 31 37 30 26 28 30
2 5 5 5 10 10 15 13 12 12 13 12 12 11 11 10 13 14 15 14 16 16 16 16 17 17 17 14 12 11 13 16 18 19 19 19 17 22 33 34 35 34 31 29
2 6 8 9 11 11 14 12 12 13 11 12 13 17 16 12 15 17 16 16 15 15 16 18 19 20 17 17 15 15 14 14 17 18 17 18 20 18 15 20 29 33 32 31
5 2 4 9 7 10 13 14 17 17 17 15 16 16 15 15 17 18 16 14 15 19 22 21 22 22 18 16 19 20 21 20 22 22 21 22 22 23 21 20 19 22 26 28
11 12 10 9 10 10 12 10 11 11 11 13 15 14 13 14 14 14 14 14 15 21 23 23 22 21 16 17 18 18 20 20 20 21 21 21 21 22 22 22 20 20 22 24
6 7 9 10 9 9 9 10 11 9 9 11 14 14 14 15 16 17 19 18 18 17 20 21 21 18 16 14 16 18 18 18 19 20 20 20 20 20 20 19 19 21 22 21
0 4 5 6 8 8 9 8 8 9 12 12 12 12 14 14 16 18 20 19 20 21 21 21 18 16 15 14 14 15 16 16 15 17 18 18 18 18 19 18 18 20 21 19
8 8 10 7 7 8 9 11 12 11 10 10 14 16 16 16 13 15 14 13 15 19 20 18 16 14 15 13 12 12 13 14 15 16 16 18 17 16 17 18 18 18 18 18
11 11 12 13 12 12 10 11 12 14 14 15 17 16 15 14 13 12 10 13 16 17 17 14 13 14 14 12 11 12 13 13 14 14 15 15 17 17 18 18 18 17 17 17
11 12 13 13 14 13 13 15 16 17 16 17 17 16 15 13 12 13 12 16 14 10 10 11 12 14 14 12 11 12 12 13 14 14 14 15 15 15 15 14 14 14 13 14
9 11 12 13 14 15 16 15 16 15 12 11 12 11 11 7 5 4 8 10 11 9 10 11 13 13 12 11 12 13 13 13 14 14 13 13 13 13 13 11 11 10 10 9
10 11 12 13 13 14 13 14 14 14 13 13 13 12 10 9 9 9 8 8 8 8 10 11 12 11 10 10 12 11 11 11 11 11 11 10 9 9 9 8 7 6 6 5
11 12 13 12 12 13 12 11 10 11 11 10 9 7 6 4 3 5 7 6 6 7 8 9 9 9 10 9 9 10 9 9 9 8 8 8 7 7 6 6 6 5 4 4
11 11 11 12 12 10 9 8 9 9 9 9 8 5 4 6 7 6 6 6 6 6 6 7 7 7 7 7 8 9 8 7 5 4 4 4 4 4 5 7 6 3 3 4
11 11 11 8 6 6 9 10 10 8 8 8 6 4 3 2 2 5 4 3 4 4 6 6 6 5 6 7 6 7 7 8 7 5 4 4 5 6 6 6 6 6 7 7
8 7 7 6 4 7 11 12 11 11 9 8 6 4 4 4 3 2 1 0 1 2 2 3 4 5 4 5 6 6 5 5 5 4 5 6 6 6 6 6 7 8 9 7
12 12 11 9 7 6 7 6 8 10 9 8 6 5 4 3 2 2 3 3 2 3 3 2 3 4 5 6 7 7 7 6 7 7 7 7 9 10 9 8 8 10 10 10

GFSNGP_925_spd_072.txt.gz
Wind_Speed
3 3 1 4 8 11 8 9 4 3 5 6 10 4 3 11 12 14 15 16 15 14 13 17 22 21 20 22 19 18 18 15 13 5 12 17 20 23 25 26 28 28 30 32
3 2 6 5 10 9 11 12 10 13 12 9 8 10 6 9 13 10 13 13 14 14 14 15 18 18 20 20 17 18 16 15 12 11 9 8 5 3 13 23 28 31 33 33
2 4 7 6 4 5 5 5 6 6 2 8 11 14 14 14 8 11 10 11 12 12 13 14 16 17 17 16 14 18 18 18 17 14 11 10 8 6 5 5 6 5 9 20
2 3 1 5 10 4 1 4 10 7 3 7 9 6 11 11 12 11 10 10 11 10 15 14 17 16 15 16 15 17 18 18 18 17 16 14 12 11 10 10 10 11 13 15
2 2 5 8 3 4 3 9 3 3 5 14 14 11 9 11 13 13 11 10 12 13 14 14 17 14 14 16 16 18 18 19 18 16 15 15 16 15 13 12 11 11 11 14
1 2 4 5 4 9 5 5 7 6 5 14 10 5 3 7 9 14 14 14 11 11 12 14 21 15 15 18 19 19 20 20 20 16 16 16 15 13 13 12 11 11 14 17
4 3 6 4 8 6 1 4 7 9 7 16 3 6 13 10 12 15 15 14 12 15 18 19 17 16 18 18 20 16 18 21 22 19 18 18 16 16 16 16 16 18 20 22
3 3 7 9 5 0 1 6 10 16 13 17 17 17 15 14 14 13 13 16 16 17 18 19 20 18 19 20 15 17 19 23 23 23 20 20 18 19 22 18 19 19 18 19
5 2 4 6 6 8 7 8 10 14 14 13 16 16 13 11 11 10 13 13 15 15 16 18 21 20 17 17 16 16 18 20 23 23 24 25 26 23 20 21 19 19 19 20
1 5 8 9 10 12 13 15 13 14 12 14 11 12 13 10 10 10 13 12 12 13 14 16 18 21 17 15 13 17 21 19 19 25 28 27 28 30 28 23 22 21 19 19
2 5 9 10 9 9 12 14 15 16 15 15 13 13 12 11 11 11 11 13 14 12 14 15 15 17 17 15 14 16 17 18 19 19 18 24 31 28 28 32 24 21 21 22
2 6 4 7 9 12 13 13 11 14 15 15 13 14 11 10 13 12 13 11 12 11 13 14 16 17 16 14 12 14 15 16 17 17 16 14 13 20 27 27 28 29 26 24
2 8 12 11 12 12 13 12 12 12 11 13 15 18 16 15 13 14 14 12 13 14 17 20 21 21 19 17 14 16 17 16 17 17 17 16 17 15 14 17 23 26 26 26
7 3 8 11 7 10 12 15 18 18 17 16 17 16 15 16 14 14 13 13 13 19 21 21 22 22 16 16 17 18 18 17 18 17 18 18 19 19 19 19 17 20 21 22
12 13 12 10 10 10 12 11 12 10 11 13 15 15 13 14 13 12 12 13 16 22 22 21 21 19 14 14 14 16 15 15 16 16 16 17 18 19 19 19 20 19 20 21
7 8 9 11 10 10 8 10 10 10 10 13 13 15 14 14 16 16 17 17 16 16 18 18 18 15 13 11 11 12 12 12 13 14 16 17 17 18 19 19 20 21 23 21
0 4 5 7 8 9 9 8 10 10 14 13 13 14 13 14 16 16 18 18 20 19 18 17 15 12 11 10 9 10 10 11 12 13 15 15 15 16 16 18 18 19 20 18
9 8 9 7 7 8 9 12 12 12 11 11 16 19 18 15 12 13 12 13 16 18 16 14 12 11 11 10 8 8 9 11 12 13 13 15 15 15 16 17 17 18 18 18
11 10 12 12 11 12 11 11 12 14 16 17 19 18 17 16 14 12 11 14 16 16 15 13 11 11 12 11 9 9 10 11 12 13 14 14 15 16 16 16 16 16 16 17
11 12 12 13 14 13 13 14 17 18 16 18 19 18 16 14 12 12 13 16 13 9 10 10 10 11 12 11 9 10 10 11 12 12 13 14 14 14 14 14 13 13 13 13
10 12 13 14 15 17 17 17 19 17 13 12 15 13 12 9 7 7 10 11 11 10 10 11 12 13 12 11 10 10 11 12 12 12 11 12 12 12 12 11 10 9 8 8
11 11 12 14 14 14 13 14 15 14 14 14 12 11 11 11 10 11 11 10 9 10 11 12 12 11 10 9 10 10 10 10 10 9 10 9 9 9 9 7 6 6 5 5
12 13 13 13 12 11 10 9 9 9 9 8 8 7 7 6 5 6 7 7 7 7 8 9 9 8 8 8 8 8 8 7 7 7 7 6 6 6 6 7 6 4 4 4
9 9 10 9 9 8 8 6 6 6 6 6 6 5 4 4 5 4 5 5 5 5 5 6 6 5 6 7 7 8 8 6 4 4 3 3 4 5 5 6 6 5 5 6
10 10 10 7 4 4 6 7 7 6 5 4 2 2 2 0 2 3 2 0 2 2 3 5 5 4 5 6 6 6 6 7 6 5 4 4 5 5 5 6 6 7 8 8
8 6 4 1 2 5 8 9 9 8 7 6 5 3 2 1 1 1 1 2 3 4 4 4 4 4 4 6 6 7 6 5 5 5 5 5 6 7 8 9 8 7 10 10
10 9 8 7 5 4 2 6 8 11 9 8 5 4 3 3 3 4 5 5 5 5 6 7 7 8 8 9 9 11 11 10 10 10 10 9 9 11 12 10 9 9 11 11

GFSNGP_925_spd_075.txt.gz
Wind_Speed
6 4 4 2 6 8 8 9 5 5 6 9 6 8 4 6 9 13 14 15 15 14 13 16 18 19 19 20 18 18 17 17 14 12 5 3 4 7 10 13 13 14 15 18
3 6 1 4 9 5 6 8 13 15 16 9 11 9 13 7 9 11 12 13 14 15 16 17 19 17 18 20 18 20 20 18 14 14 12 10 8 6 6 4 1 5 11 17
1 3 7 4 5 6 5 6 9 9 7 2 6 13 15 16 13 10 12 11 13 14 15 19 19 17 20 18 16 18 25 19 17 15 14 14 11 9 9 9 8 9 7 8
1 2 3 2 8 3 3 4 9 11 4 9 11 12 15 12 12 12 11 11 12 12 17 16 14 15 15 21 25 27 21 16 16 14 15 14 14 13 13 12 12 11 12 12
1 2 6 3 4 4 3 5 10 8 5 8 12 11 11 14 12 11 12 10 14 15 16 17 18 18 21 25 20 17 17 17 15 15 15 15 16 15 15 14 14 15 14 16
1 2 4 0 2 8 4 6 11 12 10 9 10 5 3 11 11 11 20 18 17 16 17 18 16 15 17 17 15 20 18 15 13 15 15 16 14 15 16 15 16 15 17 18
6 4 6 5 12 5 4 3 10 11 13 11 5 6 12 12 13 17 19 18 16 18 19 17 15 14 18 17 18 16 15 15 17 17 17 16 16 17 18 17 16 17 19 18
5 5 6 10 3 2 5 5 7 11 15 16 15 16 16 13 11 14 18 18 17 17 18 17 15 15 16 17 13 13 17 19 20 21 20 19 20 20 20 18 19 18 17 18
4 1 5 7 7 7 9 7 7 9 10 14 11 11 12 11 11 13 19 17 17 16 16 17 18 16 16 13 12 13 17 21 21 21 22 23 22 21 22 20 19 19 19 19
4 5 10 9 10 11 11 11 11 11 13 14 14 10 12 11 10 11 18 17 16 15 16 18 17 18 16 12 11 14 17 18 21 24 25 25 27 26 24 21 20 19 17 17
0 8 9 12 10 9 11 12 13 13 12 13 13 12 11 12 11 15 17 17 16 16 16 16 14 15 14 12 10 14 16 17 18 20 22 26 31 27 26 29 22 18 18 18
2 5 7 7 9 10 12 12 11 12 13 13 12 12 11 11 16 16 16 15 17 16 16 16 17 17 15 12 11 12 15 16 16 16 15 14 15 20 25 25 26 26 23 18
3 11 14 11 11 11 12 12 12 13 12 12 15 15 16 15 17 17 17 17 16 15 15 16 16 19 18 17 15 15 14 13 14 14 13 12 12 11 11 13 20 22 23 21
5 9 8 6 6 9 12 14 16 17 16 15 15 15 16 17 17 16 16 15 13 15 16 16 18 19 15 14 16 17 17 16 15 13 13 12 12 12 11 11 12 14 16 19
12 13 13 11 10 10 11 10 11 11 10 12 13 13 13 14 15 14 13 13 14 15 16 17 18 17 13 12 14 14 12 14 14 14 14 13 11 11 11 11 11 11 11 14
8 10 11 11 9 9 10 9 11 10 9 11 13 14 15 16 16 15 15 14 13 14 13 15 15 14 11 10 11 12 12 12 12 11 11 11 10 9 9 10 11 11 12 11
4 6 6 7 8 9 10 9 10 10 13 13 14 13 14 15 16 15 14 15 16 15 14 14 13 11 10 9 8 8 9 10 11 10 9 9 9 9 9 10 10 11 13 13
10 9 9 8 8 9 9 12 12 12 12 12 13 14 13 12 11 9 10 11 12 14 13 12 10 9 10 9 9 9 8 8 8 9 9 9 9 9 10 10 10 10 9 11
10 10 12 12 11 13 12 13 13 14 14 14 15 13 13 12 10 10 10 11 11 10 11 10 8 10 11 11 10 9 8 8 8 9 9 9 9 9 9 9 9 9 8 7
11 11 12 13 13 14 15 13 14 15 15 17 17 15 12 11 11 11 11 12 9 6 8 10 10 12 12 11 9 8 8 8 8 8 8 8 8 8 8 8 7 6 6 6
11 12 13 14 14 16 18 17 17 15 13 13 13 11 10 8 7 7 7 9 7 9 9 10 11 10 10 9 9 9 9 8 8 7 7 7 7 6 6 5 4 3 2 2
9 11 12 12 13 13 12 13 14 15 14 14 13 12 11 9 9 10 10 7 5 7 8 9 10 10 9 8 8 8 7 7 7 6 6 5 5 4 3 2 1 1 1 1
12 12 13 13 12 12 13 12 12 12 12 10 9 7 6 5 4 4 5 4 5 6 7 8 8 8 7 8 7 6 6 5 5 4 4 3 3 2 1 2 2 1 1 2
11 10 11 11 11 9 10 7 8 8 9 9 9 7 5 5 6 6 7 7 6 6 7 7 6 5 6 7 7 7 6 5 3 2 1 1 2 2 3 3 3 3 4 5
9 9 8 5 5 5 6 7 7 6 6 5 5 5 5 5 5 4 4 3 4 4 5 6 5 4 4 5 5 5 5 5 4 3 2 3 4 4 5 5 5 5 6 7
5 4 3 3 3 1 3 4 3 3 3 3 2 2 2 3 3 2 2 2 3 3 4 5 5 5 5 5 6 7 8 8 7 7 7 7 7 8 8 9 9 8 8 9
5 5 4 5 6 6 3 1 3 4 5 4 2 2 2 1 1 2 3 4 4 5 6 6 6 7 8 7 7 9 10 9 8 9 11 11 11 11 11 12 11 11 12 12

GFSNGP_925_spd_078.txt.gz
Wind_Speed
5 2 13 4 7 8 11 10 6 9 11 13 12 4 6 9 8 11 12 12 13 14 13 16 18 20 21 23 21 17 16 17 15 14 14 12 8 5 7 7 7 8 10 11
7 8 16 9 10 8 8 5 9 12 12 4 8 6 11 12 10 8 11 10 12 13 14 15 18 19 19 20 20 18 18 18 15 15 15 14 12 12 12 11 7 6 5 4
5 8 8 10 11 5 4 4 4 8 12 9 9 4 13 12 12 12 9 9 11 11 13 16 18 18 19 18 17 17 20 19 15 15 18 15 12 12 14 13 12 14 14 12
3 3 6 7 3 1 3 2 8 8 11 7 8 13 14 10 10 11 10 8 12 11 14 19 18 18 18 20 20 21 20 18 14 17 21 14 13 13 14 14 15 15 15 13
2 3 6 3 6 5 6 4 10 11 11 8 8 9 12 9 11 12 9 10 14 15 16 19 18 17 19 19 18 19 17 16 19 24 20 14 15 14 13 15 17 17 17 16
3 1 1 7 3 8 7 4 11 13 13 12 10 4 3 7 9 10 12 13 15 16 18 18 19 17 18 20 22 27 25 23 23 18 16 17 14 15 14 16 18 17 18 19
6 3 2 6 10 6 6 4 12 11 11 12 2 5 13 11 12 11 13 16 17 18 19 19 17 18 22 22 25 21 20 17 18 16 18 17 15 14 14 16 18 18 18 18
3 3 3 14 2 4 6 5 7 8 10 14 14 14 12 10 9 8 11 16 16 18 20 18 17 17 18 19 16 17 16 16 18 19 16 16 15 13 14 16 18 17 17 17
5 4 5 8 8 6 8 7 5 7 10 12 12 11 10 10 10 10 12 16 16 18 19 19 18 17 17 15 14 17 17 18 19 19 19 17 16 15 17 17 18 18 17 17
5 9 9 8 9 10 11 11 11 12 12 12 13 11 11 9 8 9 13 15 16 17 18 17 16 16 15 13 12 14 16 18 18 19 18 19 19 19 18 18 17 16 16 17
3 6 6 9 8 9 11 11 12 12 11 11 10 10 10 9 9 11 13 16 18 17 17 16 15 15 14 11 11 13 14 14 15 17 19 22 23 20 23 25 18 15 15 15
2 5 6 6 9 9 11 11 9 10 12 12 12 11 11 10 13 15 17 17 18 16 17 16 16 16 14 12 10 11 13 13 11 12 11 12 15 20 23 23 23 22 20 15
3 10 13 10 10 10 11 10 10 11 11 11 13 14 14 14 16 17 17 18 17 16 15 14 15 16 15 14 12 13 13 11 12 11 11 10 9 9 9 12 19 21 21 20
5 8 7 4 6 8 9 10 11 12 12 12 12 13 14 15 15 16 16 15 15 15 15 13 14 16 14 13 13 14 14 14 12 11 11 10 10 10 9 8 8 10 16 17
10 10 11 9 8 6 6 6 6 8 8 10 11 11 12 14 14 14 13 13 14 15 15 13 14 15 13 13 14 13 12 11 11 11 11 10 10 10 10 9 10 10 9 12
6 7 7 7 6 6 5 5 6 7 7 9 11 12 13 14 15 14 14 13 12 14 13 13 13 12 11 10 9 9 10 10 9 8 7 8 8 9 9 9 9 10 11 11
5 5 4 5 5 6 7 6 7 7 8 10 11 11 12 13 14 14 13 12 13 12 12 12 11 11 10 10 8 7 7 7 7 6 7 8 8 9 9 8 8 9 9 10
7 5 4 6 6 7 7 9 9 9 10 10 10 10 10 11 11 10 9 8 10 12 12 11 10 9 10 9 7 6 5 5 6 6 7 7 8 8 8 8 7 7 7 9
6 7 8 8 8 9 9 10 11 11 11 10 11 11 10 10 8 8 7 7 7 8 11 10 10 10 10 9 8 6 6 5 6 7 7 7 7 7 7 6 6 5 5 6
9 9 10 11 11 11 12 11 11 11 10 10 11 10 9 8 7 8 8 10 9 6 7 8 8 9 9 9 8 5 5 5 4 5 4 5 5 5 5 6 4 3 3 3
11 12 12 13 13 13 12 11 12 11 9 7 8 7 7 5 4 3 3 4 5 5 5 7 7 6 6 5 6 5 5 4 4 4 3 4 3 3 3 2 2 2 2 2
11 12 12 12 12 12 10 9 10 10 9 9 9 8 7 6 5 6 5 4 3 4 4 5 6 6 5 6 5 5 4 4 3 3 3 3 2 2 2 2 3 3 3 3
11 11 12 11 11 11 9 9 8 8 8 6 5 4 3 3 2 0 1 2 3 4 4 4 4 5 6 5 4 4 3 3 2 2 1 1 1 2 2 3 3 4 4 4
11 10 10 10 10 9 8 7 7 6 6 6 5 4 2 3 3 3 4 4 3 3 3 2 2 3 4 3 3 3 3 2 2 1 2 2 2 3 3 4 4 4 5 5
10 9 8 7 6 5 6 7 7 6 6 4 4 3 2 2 1 4 3 2 1 1 0 1 1 1 1 2 2 3 3 3 3 3 3 4 4 4 5 5 6 6 6 7
8 5 4 3 3 2 3 4 3 3 4 3 3 2 2 2 3 3 2 2 2 2 2 2 3 3 4 4 4 5 5 6 6 6 6 7 7 7 7 7 8 8 8 9
5 5 4 4 4 3 2 1 4 4 4 4 3 3 3 3 2 2 2 2 3 3 4 5 5 6 6 7 6 6 7 7 7 7 7 9 9 9 9 9 9 10 10 11

GFSNGP_925_spd_084.txt.gz
Wind_Speed
21 24 16 16 22 10 17 15 8 9 9 14 11 7 14 10 10 10 11 13 13 12 12 18 23 24 24 22 23 17 22 21 17 15 16 17 19 21 19 17 16 15 16 16
20 20 19 25 20 6 9 10 7 18 3 14 14 11 12 10 10 10 12 11 13 13 14 16 21 21 22 22 23 21 23 23 19 17 16 18 18 20 22 22 20 21 20 18
14 14 14 12 18 10 11 19 10 3 8 12 12 14 13 11 10 10 10 10 11 11 13 17 19 20 21 22 20 24 24 22 22 23 22 21 21 22 23 24 22 23 21 19
7 9 7 12 12 13 6 17 12 10 14 11 10 10 11 12 10 10 10 10 9 6 12 17 17 20 19 22 24 24 23 23 22 24 23 21 25 27 26 28 29 25 23 22
4 5 15 17 7 8 6 9 16 16 16 11 9 8 9 10 9 9 8 7 11 15 11 13 19 14 17 20 21 23 23 24 22 23 23 21 21 22 25 26 33 30 26 25
3 2 4 7 17 5 3 6 14 14 12 12 4 3 3 7 7 8 11 11 13 16 17 19 16 13 16 17 20 20 19 21 23 21 28 20 20 21 24 26 27 32 28 26
9 6 3 17 17 8 1 5 12 11 9 11 5 5 7 7 7 9 11 13 15 16 14 14 17 18 16 16 17 13 24 25 26 20 26 26 22 19 24 26 29 31 25 28
7 6 5 23 12 7 5 11 10 11 10 12 11 10 9 8 7 7 8 11 15 17 15 12 12 15 14 18 15 19 21 25 22 22 19 23 19 22 23 26 26 24 22 22
6 3 7 12 12 10 10 10 11 10 10 10 10 11 10 10 10 11 12 12 12 15 16 16 15 16 16 15 13 16 22 25 25 22 27 25 26 23 24 22 21 20 19 19
3 8 11 12 12 12 12 11 11 12 11 9 10 10 10 8 8 9 14 15 14 16 18 18 19 19 18 16 15 18 21 21 20 24 25 25 27 29 28 21 21 19 18 19
4 5 6 13 11 10 10 10 11 11 11 10 11 11 10 8 9 13 15 17 17 18 17 18 18 20 18 13 13 15 17 19 21 23 27 30 32 27 27 28 21 18 20 18
3 8 4 7 8 11 12 11 7 10 11 11 12 11 11 9 13 14 15 16 16 17 17 17 17 18 18 20 14 14 16 17 16 16 17 18 21 25 25 24 23 22 19 16
3 6 9 8 9 10 10 9 10 10 11 11 14 15 15 13 14 15 15 15 17 17 17 18 18 20 19 18 17 20 17 16 16 16 15 12 13 15 16 20 22 20 20 19
5 3 7 9 6 6 7 9 10 12 13 13 14 14 15 15 14 15 15 14 15 17 18 18 18 20 18 16 17 17 17 16 16 16 15 15 14 13 9 10 12 15 18 18
7 7 8 5 5 6 6 7 9 9 10 12 14 14 14 15 15 15 13 14 15 16 16 15 16 16 16 13 15 15 14 14 15 14 13 12 12 12 12 12 14 10 9 13
4 4 6 5 5 7 7 8 9 9 9 10 11 13 14 15 14 15 15 15 14 14 13 14 14 12 14 15 8 12 13 12 11 10 10 11 11 10 11 13 15 13 10 9
4 4 4 5 7 10 10 9 11 10 12 13 14 12 12 13 13 13 13 13 15 15 14 14 14 13 10 14 13 11 10 10 10 10 10 10 11 11 11 12 13 13 11 11
9 9 10 9 7 9 10 13 14 13 12 10 11 14 15 13 10 9 8 8 12 15 14 14 13 13 12 11 11 9 9 9 9 10 10 10 10 10 10 10 10 11 9 11
12 11 12 12 12 13 13 12 12 12 10 10 11 12 11 10 8 7 6 7 8 11 12 9 10 11 11 10 10 9 8 8 8 9 7 7 10 11 10 9 9 8 8 8
11 13 15 15 14 13 13 12 12 11 9 9 10 9 9 7 6 5 7 10 8 6 7 8 9 9 8 9 12 9 8 7 7 6 7 10 8 6 7 7 6 6 6 6
12 12 12 12 13 13 12 10 11 10 8 9 9 8 7 4 4 5 2 7 7 5 3 7 9 8 7 7 8 7 8 7 7 7 6 5 4 5 5 5 4 4 5 4
10 10 10 10 11 11 10 9 9 10 9 9 8 5 3 3 3 5 6 6 4 4 5 6 7 7 7 9 7 7 7 7 7 6 6 6 6 5 4 3 2 3 2 1
10 10 9 8 10 10 9 8 8 8 7 6 5 6 6 4 5 8 6 6 6 5 6 6 7 5 6 8 6 6 6 5 5 5 4 4 4 3 4 4 4 3 3 2
10 9 9 8 9 7 7 5 5 4 3 3 5 5 6 8 6 4 4 4 5 4 2 5 9 6 4 6 5 5 5 5 5 4 4 5 1 2 2 3 3 3 4 5
10 8 6 4 3 4 4 4 3 4 2 3 2 1 2 3 4 6 4 3 5 5 5 5 8 8 4 5 5 4 5 5 4 7 8 5 5 5 5 5 4 4 6 8
7 4 4 3 5 4 2 2 5 2 4 3 4 5 3 1 3 4 4 3 4 5 5 5 5 3 7 7 6 6 7 6 7 6 5 7 8 8 8 7 7 8 8 7
3 2 3 3 2 2 6 7 7 8 7 5 5 3 4 3 4 4 6 5 7 5 6 7 7 6 6 8 10 9 9 8 9 9 9 10 12 11 11 10 10 9 8 9

GFSNGP_925_spd_090.txt.gz
Wind_Speed
6 11 14 16 15 15 13 13 8 10 16 8 7 10 9 9 9 12 15 16 15 14 12 17 20 21 24 25 28 25 18 14 23 26 25 23 22 19 17 17 13 11 11 11
14 12 14 16 16 17 15 15 15 17 11 4 12 11 11 10 10 12 13 14 14 14 15 17 21 20 21 25 28 26 24 23 19 22 23 24 25 23 22 17 14 13 12 10
8 6 12 11 9 15 13 7 9 10 3 8 7 13 12 10 11 11 12 12 13 13 14 18 22 22 21 21 25 30 26 25 24 23 21 19 22 24 24 20 17 16 15 15
4 7 4 1 16 10 11 8 3 10 5 9 11 12 10 11 9 10 10 9 9 10 15 18 23 27 22 21 24 24 26 26 27 27 25 23 24 24 24 23 22 21 20 18
2 3 11 8 7 5 2 6 7 8 3 9 12 10 11 9 9 8 8 8 12 15 14 18 24 25 24 24 22 25 23 22 26 27 27 27 27 27 23 26 26 25 24 21
2 3 3 3 12 11 3 3 7 5 4 0 10 1 2 6 7 7 11 12 13 15 17 21 22 23 23 24 24 25 23 23 27 29 27 31 25 25 27 29 29 27 31 27
5 4 3 12 18 11 3 3 7 8 11 8 5 5 5 4 6 11 13 14 15 15 18 19 23 24 22 22 22 23 24 25 28 29 27 28 28 24 29 27 32 32 32 32
4 1 2 18 6 6 4 7 9 11 10 13 11 10 8 8 7 9 12 17 19 19 20 20 19 19 20 20 19 21 23 24 27 27 28 26 28 26 21 25 22 25 26 29
5 3 4 4 6 8 8 9 9 10 8 9 9 7 8 8 9 11 15 14 16 16 17 22 22 20 17 16 16 20 23 24 25 25 26 24 27 25 19 22 20 17 18 21
2 4 8 9 7 10 9 10 11 10 9 9 9 7 8 7 8 11 15 16 15 16 18 19 22 22 18 17 15 16 19 21 23 26 25 25 25 22 21 20 18 16 18 20
3 6 6 9 9 7 9 10 12 12 11 9 9 8 8 8 8 12 15 17 17 15 16 18 21 22 19 13 15 17 16 16 18 21 24 27 29 25 25 21 19 18 20 22
1 6 4 4 6 8 8 10 8 11 12 11 11 8 9 7 12 13 14 16 16 17 18 19 21 21 19 16 15 14 13 15 16 17 17 19 21 25 25 23 21 20 20 22
2 5 8 7 8 8 9 9 9 9 10 11 15 15 12 10 13 15 15 15 17 17 18 20 20 20 18 16 13 14 14 12 10 15 15 15 14 16 19 22 22 21 19 16
2 5 4 1 4 5 11 15 15 14 14 15 15 14 12 11 13 13 14 13 14 16 18 18 19 18 16 14 13 15 15 14 15 14 12 17 19 19 19 17 17 17 18 17
4 3 5 5 6 8 14 13 9 9 11 14 15 11 11 11 12 12 11 11 12 15 15 16 18 16 12 12 12 12 13 13 12 12 12 14 16 17 16 15 15 15 17 17
4 4 11 11 10 10 9 8 9 8 9 11 12 9 10 10 11 13 13 11 12 14 15 15 16 16 11 10 12 11 12 10 10 10 11 14 15 14 12 12 13 13 14 13
5 7 9 8 9 9 9 9 9 9 10 11 10 9 10 11 12 14 14 13 13 14 14 15 15 12 11 9 7 8 8 9 9 11 12 12 12 12 13 16 16 16 15 11
10 8 10 10 9 9 8 10 9 9 9 10 12 12 12 12 9 9 9 9 7 10 13 12 11 10 11 10 9 6 6 6 7 10 12 12 12 13 14 15 14 15 14 12
14 14 15 15 13 13 11 11 11 12 11 11 12 14 11 10 9 7 4 2 8 9 11 10 9 7 10 9 8 7 7 6 6 9 10 10 11 11 12 12 11 9 8 8
12 14 15 14 14 15 14 14 14 13 12 11 11 10 9 8 6 7 6 6 7 6 6 9 9 7 8 7 7 5 6 7 7 8 6 8 9 10 10 11 10 8 7 6
11 15 16 17 17 15 14 12 12 11 8 6 7 7 5 3 2 2 2 3 3 6 5 8 11 5 6 6 6 5 5 5 6 6 8 8 8 9 8 8 8 7 7 4
16 15 16 16 15 13 10 9 9 9 8 8 6 4 2 2 4 4 2 3 3 4 4 8 8 3 4 4 5 4 5 4 5 5 6 6 7 8 8 8 7 5 5 5
17 15 15 14 14 12 10 8 8 9 9 6 5 4 3 3 3 7 4 3 4 4 2 4 8 2 2 2 5 5 3 4 4 3 3 2 1 1 2 3 3 3 4 4
15 13 13 12 12 10 7 8 8 7 6 6 5 7 6 6 6 5 3 2 3 2 3 3 5 2 1 2 2 5 4 3 3 4 6 6 3 2 2 2 3 3 3 4
13 12 13 13 8 9 8 10 10 9 9 10 9 8 8 7 3 3 4 3 3 3 2 2 3 1 2 5 5 5 5 5 5 5 4 4 5 5 6 6 7 7 8 7
11 12 13 11 9 11 12 6 7 11 12 11 12 14 12 11 6 4 4 5 6 6 7 6 6 7 8 6 6 7 9 7 7 8 7 8 7 7 8 8 8 8 9 9
10 9 9 6 10 9 9 7 5 6 3 2 3 2 7 15 8 7 8 9 9 9 9 10 11 11 10 10 10 10 9 7 8 8 9 9 10 11 10 7 9 10 10 10

GFSNGP_925_spd_093.txt.gz
Wind_Speed
5 5 5 9 13 14 14 13 11 13 16 11 3 5 8 9 11 12 13 13 14 14 14 20 24 27 27 28 31 27 24 20 12 17 23 28 25 23 20 18 17 15 11 9
6 5 8 13 16 16 17 17 15 17 20 6 5 4 8 9 11 12 13 12 13 13 14 17 22 25 25 24 23 27 26 26 19 14 17 24 24 22 21 18 16 15 11 8
5 2 8 11 8 11 16 16 10 13 7 10 5 10 9 8 10 11 11 11 11 12 13 18 21 22 24 25 25 25 26 28 30 27 24 25 22 21 21 19 16 16 14 11
3 3 4 2 7 9 5 7 5 2 8 10 11 10 8 9 9 9 9 10 11 12 16 21 22 25 25 27 27 27 26 23 28 22 26 26 25 26 23 21 20 18 17 16
2 3 8 7 5 6 5 3 7 5 9 11 11 8 10 9 8 8 7 8 12 16 18 21 24 23 23 27 26 28 27 28 28 20 24 24 28 27 26 27 27 24 21 19
4 3 4 1 13 11 5 1 9 7 7 3 6 1 2 7 8 8 11 11 12 16 18 22 25 24 22 23 24 26 26 28 31 30 29 22 27 26 25 29 30 28 28 25
4 3 5 10 16 12 2 3 7 10 10 7 5 5 5 5 7 12 14 15 16 18 18 20 20 22 22 21 23 23 27 27 28 29 29 25 26 24 26 27 31 29 31 29
5 5 3 16 6 5 3 6 6 10 10 11 11 10 9 9 8 10 12 15 17 16 18 19 21 19 20 20 20 24 26 27 26 25 25 25 25 26 26 24 25 22 25 26
4 2 4 5 6 7 8 5 7 9 8 8 9 7 7 8 8 10 13 14 16 16 17 21 20 21 19 18 20 23 28 28 25 23 23 22 24 24 22 23 22 21 18 20
2 4 5 7 7 8 8 10 10 8 7 9 8 6 7 7 6 10 14 14 15 16 17 19 22 21 20 19 18 22 25 25 25 26 25 23 23 22 21 19 17 19 16 15
3 4 4 7 7 8 10 10 9 8 8 7 7 7 7 7 7 11 13 16 17 15 14 18 21 22 19 15 19 19 19 20 20 22 22 24 26 23 23 19 19 19 19 19
1 3 3 4 6 7 9 8 7 9 9 10 10 7 7 6 10 10 12 16 17 18 19 20 22 21 20 16 14 14 15 15 15 14 16 18 19 23 24 21 20 19 19 21
3 6 8 7 7 9 9 8 9 8 9 8 10 9 10 9 11 13 15 17 18 17 18 20 21 22 19 18 14 14 13 9 13 13 12 13 13 14 14 18 24 24 18 19
5 6 5 5 4 7 10 12 14 14 12 11 10 10 10 10 12 14 14 13 14 17 19 19 20 20 17 16 15 16 15 13 11 11 13 14 14 14 14 15 17 21 21 20
3 1 5 8 12 8 11 11 9 9 9 10 11 11 10 10 11 12 12 11 12 16 18 19 20 18 14 14 12 12 12 11 10 9 10 11 12 12 12 14 16 16 14 13
6 7 7 5 10 8 8 7 9 7 7 8 9 9 8 9 13 14 14 15 15 16 16 16 18 16 11 11 10 10 10 9 7 8 9 9 8 9 9 10 10 11 12 10
9 5 6 6 7 7 7 7 8 8 8 8 8 8 9 10 13 13 13 12 13 14 14 15 16 14 11 10 9 8 8 7 6 6 7 7 7 7 8 8 11 12 11 10
6 6 7 7 8 8 7 8 8 7 5 6 8 10 11 11 10 8 8 8 6 11 13 14 12 12 10 9 7 5 6 6 5 6 6 6 7 9 10 10 11 11 10 9
10 11 12 11 9 10 9 8 8 10 9 9 10 12 11 9 7 4 1 5 8 9 12 14 12 10 8 9 8 4 5 6 5 5 5 5 6 7 7 7 8 8 7 7
11 12 13 12 10 11 12 11 11 10 8 8 10 9 9 8 6 5 5 6 7 6 7 10 12 9 7 7 7 6 4 4 3 3 2 4 5 6 7 6 7 6 5 5
9 11 12 14 13 12 12 11 12 11 8 6 6 7 5 3 2 4 1 3 6 7 7 10 11 6 6 6 7 6 6 4 2 2 1 2 3 4 4 4 4 3 3 2
13 14 15 15 14 12 9 8 8 8 7 7 6 5 4 2 1 3 4 4 6 7 7 9 10 6 6 5 6 6 5 4 3 3 3 1 2 4 4 4 5 4 5 4
15 15 14 13 12 11 9 7 6 6 7 4 2 1 1 1 3 4 6 6 6 7 5 6 9 6 5 4 5 6 5 5 3 3 2 2 2 2 3 4 5 5 5 6
13 12 10 10 9 7 5 6 5 3 2 2 2 4 4 6 6 5 6 6 5 6 6 5 6 7 5 5 6 6 5 5 4 4 5 6 5 6 5 5 5 5 5 5
13 11 10 10 7 6 3 4 4 5 5 7 8 8 8 8 6 6 6 5 6 6 5 5 6 7 6 7 9 8 9 9 8 7 7 6 5 5 7 8 8 8 8 8
13 12 13 11 6 6 8 6 8 10 12 14 13 15 16 15 13 10 8 8 9 11 11 10 11 11 12 12 12 11 10 10 11 10 10 9 9 10 9 9 10 11 10 10
11 10 8 5 5 4 5 8 5 3 2 2 4 7 8 8 13 13 10 11 13 14 15 15 15 16 16 15 15 15 14 14 13 13 12 12 13 13 13 14 12 10 11 11

GFSNGP_925_spd_096.txt.gz
Wind_Speed
4 1 2 4 9 10 7 10 5 16 14 12 2 2 7 7 8 9 11 14 14 14 15 21 26 27 28 28 29 25 27 30 25 19 14 9 25 28 24 23 21 18 16 12
2 6 7 8 11 10 13 14 16 19 21 6 6 8 8 8 9 10 12 13 14 14 15 19 24 26 27 29 29 27 27 25 25 24 20 19 17 27 26 21 19 17 13 11
2 0 4 6 1 0 6 9 12 15 15 9 6 8 6 6 7 10 11 12 13 14 14 20 23 24 24 25 28 28 28 26 21 29 27 28 24 20 25 22 20 19 16 13
2 2 1 1 5 1 8 7 11 8 5 9 12 10 8 6 8 9 10 10 11 13 17 21 23 24 23 27 28 28 29 31 31 30 29 28 23 28 25 24 24 21 18 16
2 1 5 4 5 5 4 4 7 8 4 11 13 14 11 9 10 10 8 9 12 16 17 20 23 24 23 27 27 28 28 30 32 30 27 26 29 27 27 28 28 27 24 22
2 2 4 2 11 11 8 4 8 8 5 6 8 2 3 7 10 10 13 13 14 17 18 20 23 23 22 24 25 27 27 27 27 29 28 35 27 23 26 28 28 28 29 28
3 2 3 8 13 8 3 4 8 7 6 6 5 7 8 9 11 13 13 14 16 17 18 21 19 19 22 22 24 24 26 27 29 28 29 28 30 31 24 29 29 26 30 31
3 4 4 13 3 5 5 4 6 6 7 14 12 12 10 9 9 11 12 15 17 15 17 20 23 19 20 22 21 23 25 28 28 28 27 27 28 27 28 30 28 24 25 28
2 2 3 4 5 5 7 5 6 7 10 13 10 8 7 7 8 10 13 14 15 15 16 22 22 22 20 21 22 23 26 28 28 27 28 28 29 28 27 27 22 22 22 23
3 2 3 5 7 8 9 8 9 10 11 10 10 8 8 6 6 10 13 14 15 17 17 19 22 23 20 20 20 22 23 23 23 24 27 28 28 28 28 25 23 21 18 19
3 4 5 7 6 6 7 8 10 10 10 10 9 8 7 6 7 11 13 16 17 15 16 18 21 21 20 19 19 19 20 20 20 21 21 24 29 25 26 27 24 22 20 19
2 1 3 4 5 6 7 8 8 9 11 11 11 8 9 8 12 13 15 18 20 20 21 21 22 24 22 19 16 17 17 17 17 18 18 18 18 27 29 24 23 22 21 23
3 6 9 8 7 8 9 9 10 11 11 9 11 11 11 9 12 13 14 18 19 18 18 20 21 22 21 21 19 18 15 14 14 14 14 14 16 17 16 20 26 25 23 22
5 6 6 3 5 8 10 12 13 13 12 11 10 10 10 10 10 11 12 11 14 17 19 19 19 20 18 17 16 17 17 14 14 15 15 15 14 14 15 17 18 21 21 21
5 2 7 11 10 9 10 8 7 7 8 10 9 8 8 9 9 8 8 10 11 15 18 20 20 19 17 16 16 16 15 13 12 11 13 13 13 14 15 15 15 14 13 14
8 8 9 9 8 7 7 6 6 5 6 6 7 7 8 10 11 12 14 15 14 16 16 19 19 18 14 12 12 13 13 11 9 9 9 10 10 10 11 11 14 14 14 12
8 6 7 10 8 7 5 5 6 7 8 8 7 8 9 10 11 13 13 12 14 15 16 17 18 16 14 12 10 11 12 10 7 6 7 8 8 9 8 9 12 14 15 13
4 6 6 8 9 8 6 7 8 8 7 7 8 10 10 10 8 7 10 7 6 12 17 18 15 14 13 13 10 10 11 10 7 6 4 5 7 7 8 9 9 10 11 11
10 11 12 12 11 12 10 9 9 11 11 10 10 12 10 8 8 6 6 8 12 13 15 16 17 14 13 12 11 10 10 8 7 6 4 3 3 4 5 6 7 7 7 7
12 13 15 14 12 13 13 13 13 11 9 9 11 9 9 8 6 5 5 8 10 9 11 14 15 13 11 11 12 11 10 9 7 5 3 2 0 2 3 4 4 4 4 5
9 12 14 15 16 14 13 11 12 12 10 6 7 7 5 3 5 6 4 7 8 9 10 12 13 12 10 10 11 11 10 9 8 7 5 3 1 2 3 3 3 3 2 2
13 13 15 15 16 13 11 9 8 8 8 8 7 5 3 3 5 7 8 6 7 9 8 10 13 11 9 9 10 10 9 8 8 7 7 7 5 3 2 3 4 4 3 4
15 16 14 13 12 11 9 7 6 6 6 4 3 3 3 4 6 6 8 9 7 8 8 8 10 11 9 8 8 9 9 8 7 6 7 7 7 6 5 4 4 4 4 5
15 14 12 11 11 9 7 6 5 3 2 1 2 2 4 4 4 5 5 6 6 7 7 8 8 9 9 10 10 10 9 9 8 7 7 8 8 7 7 6 6 6 6 6
15 14 13 11 8 6 5 5 4 2 2 3 4 6 9 9 9 7 6 6 7 9 9 9 10 11 11 11 12 12 11 11 10 11 11 10 8 7 7 8 8 9 10 10
13 12 13 10 6 4 4 4 2 4 5 6 6 6 8 9 12 13 11 8 9 11 13 14 15 16 16 17 17 16 16 15 14 13 13 12 12 12 12 12 11 11 11 11
10 10 9 6 4 2 3 4 3 2 1 1 1 6 9 9 9 7 9 10 13 15 15 13 13 14 16 17 19 20 19 19 18 18 17 16 15 13 13 14 14 14 13 11

GFSNGP_925_spd_099.txt.gz
Wind_Speed
1 3 2 3 8 7 7 8 7 8 16 19 16 13 4 2 5 9 11 13 14 16 14 21 24 27 29 30 33 31 27 27 25 20 17 15 11 10 14 27 28 24 21 18
3 6 6 9 12 10 9 10 13 16 21 19 10 8 7 5 5 7 9 12 14 14 16 20 24 26 27 28 29 29 29 30 26 26 24 21 22 16 16 25 27 25 22 18
2 1 3 8 8 9 2 5 9 12 16 12 5 8 5 6 5 6 8 10 13 13 16 20 22 23 25 26 28 29 30 30 29 24 24 26 25 30 23 18 28 24 21 16
1 2 3 4 6 2 4 9 3 11 11 8 10 12 8 7 5 7 8 11 11 14 18 21 21 24 23 26 27 27 28 29 31 28 27 26 32 28 26 25 22 27 24 19
1 2 4 4 4 3 4 3 8 10 7 9 13 14 11 8 9 9 9 11 13 17 17 18 22 23 23 25 26 27 28 29 29 29 29 29 32 29 32 25 26 30 29 27
3 2 2 1 11 8 7 3 10 9 8 10 6 1 4 8 8 10 13 13 15 18 18 21 23 21 22 24 25 27 27 26 28 29 30 31 32 29 28 31 30 29 32 32
3 2 1 6 13 8 3 5 8 10 10 4 5 6 8 7 9 12 12 16 16 17 19 20 21 21 22 22 25 23 25 26 28 28 28 29 31 31 32 30 31 30 30 35
3 3 2 12 2 3 5 5 7 9 10 13 13 10 8 8 9 12 15 17 17 17 18 19 20 21 21 22 21 23 24 27 28 29 27 27 29 28 27 25 27 26 27 30
2 2 3 6 6 5 6 6 7 8 9 10 8 7 9 10 10 13 14 15 16 16 17 20 21 21 21 20 20 20 23 25 26 28 29 27 26 24 23 23 21 21 23 22
4 3 5 6 7 7 8 9 8 9 9 8 10 9 9 8 9 12 14 16 15 17 19 20 21 21 19 19 17 19 21 21 21 25 26 26 25 24 21 20 20 19 19 19
3 6 7 7 7 7 9 9 10 9 9 9 11 10 9 9 11 13 14 15 16 16 16 18 19 21 21 20 17 18 18 18 19 19 20 23 29 26 24 27 20 17 18 17
2 3 4 5 7 7 9 8 8 10 11 12 13 11 12 11 12 12 13 14 16 16 16 17 19 21 23 21 19 16 17 17 16 15 15 15 16 20 30 29 27 25 23 21
3 5 10 9 8 9 11 10 11 11 12 11 12 13 13 13 12 12 13 14 15 16 18 19 22 24 24 23 22 20 17 16 15 14 14 13 12 12 13 16 24 26 24 21
11 10 7 4 6 10 13 13 14 13 13 12 12 11 11 12 11 13 13 11 12 15 19 19 21 23 21 20 19 19 17 17 14 14 13 13 12 12 11 11 12 13 18 19
10 2 7 12 12 10 11 10 9 9 10 11 11 11 11 12 12 12 10 9 11 14 19 20 22 22 18 17 18 18 15 13 12 12 13 12 11 10 10 11 11 11 10 14
10 11 11 10 9 8 8 7 8 8 8 9 10 11 12 12 12 12 12 14 14 14 16 18 20 19 17 14 14 15 13 12 10 8 9 9 8 8 8 9 10 11 11 11
12 10 9 8 8 7 6 7 9 9 10 9 10 10 11 11 11 10 9 11 14 15 16 17 17 15 15 14 13 12 10 9 8 6 7 8 8 8 7 7 8 9 10 12
4 6 8 10 10 9 8 10 12 11 9 9 11 12 11 9 7 6 7 7 6 12 15 15 15 13 13 13 12 10 9 9 8 8 7 7 7 7 7 6 7 7 7 8
10 11 13 13 12 13 12 10 10 13 13 12 13 12 10 8 6 6 8 10 11 10 14 15 14 12 13 14 12 11 10 9 8 8 7 5 4 5 5 5 5 5 5 5
14 14 15 14 13 14 13 14 15 14 12 12 13 11 10 7 5 5 5 7 7 6 10 13 13 12 12 12 12 10 10 10 8 7 7 6 4 3 2 2 3 3 3 3
12 13 15 16 17 17 16 15 16 14 12 9 9 9 7 6 6 5 4 4 5 7 8 10 13 12 11 11 11 11 11 10 9 9 8 7 6 4 2 1 1 1 1 1
11 12 16 19 19 17 14 14 13 13 11 10 9 7 5 4 3 3 4 3 4 6 7 8 11 11 10 9 10 11 9 9 8 8 8 8 7 7 5 4 3 3 3 3
15 17 19 19 17 16 14 12 12 12 11 8 6 5 4 2 2 2 2 4 4 5 6 6 7 8 8 8 9 9 8 8 7 7 8 9 9 8 6 5 5 5 5 5
17 15 16 16 17 14 11 10 10 9 7 6 4 2 1 1 2 1 1 1 2 4 5 6 7 8 9 10 10 10 9 9 8 8 8 8 8 8 7 6 6 6 8 8
16 17 17 14 11 9 10 10 8 5 3 2 1 2 4 6 7 6 6 5 4 6 7 8 10 11 13 14 14 15 15 14 12 11 10 9 9 8 8 8 8 8 9 10
15 13 12 11 11 10 9 8 5 3 2 4 4 4 6 7 8 7 7 7 5 7 11 12 12 12 12 13 14 15 17 18 18 15 14 14 12 11 12 11 11 11 10 10
12 13 11 8 7 6 7 6 4 3 3 3 3 3 6 7 6 7 5 4 5 5 7 8 10 11 13 14 16 16 15 14 15 14 13 12 13 14 17 15 12 12 12 11

GFSNGP_925_spd_102.txt.gz
Wind_Speed
4 4 2 2 6 7 10 10 6 9 11 14 16 18 9 2 4 5 8 10 11 12 13 19 23 25 28 30 31 29 29 33 32 27 30 20 16 12 7 11 15 19 24 26
2 3 4 8 9 10 11 12 14 15 16 11 17 5 2 2 5 5 8 10 12 13 15 18 22 24 25 28 30 29 30 28 26 32 26 24 22 18 19 12 12 19 24 22
2 2 1 7 5 10 9 7 7 11 12 17 15 3 4 5 8 7 9 10 11 12 14 17 22 22 23 24 25 28 28 30 32 30 27 29 26 25 26 27 24 18 19 23
3 3 4 6 5 7 3 9 5 8 12 10 9 10 10 10 9 9 10 9 11 13 15 18 20 21 21 22 24 25 28 31 33 33 32 31 26 26 28 29 32 31 28 23
3 5 4 4 4 3 3 2 6 8 10 2 8 10 11 10 10 9 9 9 11 13 14 17 20 20 20 23 23 26 28 28 29 30 29 29 30 27 26 28 32 34 32 23
3 3 4 5 7 4 1 6 5 7 8 7 10 5 5 9 9 9 11 10 12 12 14 19 21 20 21 23 24 26 26 25 26 27 29 28 27 28 26 27 32 33 37 29
5 3 5 1 9 3 6 5 6 7 8 8 4 6 8 8 9 10 10 11 11 13 17 19 18 20 22 22 24 22 25 27 27 29 28 28 27 27 27 28 31 34 33 34
3 3 2 11 1 4 5 6 5 7 9 13 12 10 9 9 8 10 11 13 13 15 18 19 20 20 21 22 22 23 24 25 26 27 28 28 27 28 28 25 26 25 24 28
4 4 5 7 6 4 4 6 7 7 8 8 9 9 9 7 7 10 13 13 14 15 17 19 20 20 21 20 18 19 22 24 25 27 27 27 28 27 24 26 24 23 21 20
6 5 6 6 6 7 7 8 8 9 8 10 10 7 7 6 7 11 14 15 15 17 18 19 20 21 20 19 17 17 19 19 20 23 27 30 26 27 27 24 21 22 21 20
5 7 8 6 6 7 8 9 10 9 9 9 8 7 8 8 11 14 15 16 16 16 17 19 19 20 21 21 18 17 17 17 18 18 19 20 29 32 27 31 28 22 22 22
2 8 6 8 7 8 8 9 9 10 10 10 10 9 10 10 12 13 14 14 15 16 16 17 18 20 21 22 21 18 17 17 17 16 15 15 14 17 25 26 27 26 24 19
5 6 12 12 10 9 10 9 10 10 11 9 10 10 11 11 11 12 12 13 14 13 14 15 17 19 19 19 19 19 18 16 15 16 15 14 13 12 11 12 20 24 22 20
14 14 11 11 7 11 12 13 13 12 11 11 11 10 10 11 10 11 11 11 11 13 15 15 16 18 21 19 18 17 16 16 15 15 14 13 12 11 10 11 12 14 16 18
8 2 11 15 14 12 13 12 10 9 10 10 10 10 10 11 11 10 9 9 10 13 15 15 16 18 17 16 14 16 15 14 13 13 13 12 11 10 11 10 10 10 10 12
7 11 15 14 12 11 10 9 9 9 9 10 11 11 11 12 12 11 13 14 12 12 13 14 14 17 17 15 14 14 13 14 12 12 12 12 11 11 10 10 10 10 11 11
13 13 13 12 11 10 9 7 9 10 11 11 11 11 11 11 10 9 7 7 8 8 9 11 12 14 14 13 12 12 12 12 12 11 11 11 11 11 10 9 9 9 9 10
7 10 10 12 12 11 10 12 12 12 12 12 12 10 9 10 9 7 6 4 3 8 12 13 13 12 12 13 12 10 10 10 10 10 10 10 10 9 9 8 8 7 7 9
9 11 12 13 13 14 14 14 13 12 12 12 11 10 10 9 6 4 4 4 4 6 9 10 10 9 10 12 10 10 10 10 9 9 9 7 7 7 7 7 7 6 7 7
13 14 15 16 15 15 15 14 15 13 11 12 13 11 9 6 5 3 3 5 5 3 5 8 8 9 10 11 11 10 10 10 9 9 8 8 8 7 6 5 6 6 6 6
13 15 15 15 15 14 14 16 16 13 13 12 10 10 8 6 5 4 2 3 3 3 4 7 9 8 9 9 10 10 10 9 9 9 9 8 8 8 7 7 7 6 6 5
13 13 14 15 16 15 12 12 14 15 12 12 11 10 8 5 4 2 2 3 2 4 3 4 6 8 8 9 9 9 9 9 8 9 9 9 9 9 9 9 8 8 8 7
12 14 15 14 15 15 13 12 12 12 12 10 9 7 4 3 1 1 1 1 1 1 2 3 4 6 7 7 8 8 9 8 8 8 8 8 8 8 9 9 9 9 8 8
15 15 15 14 16 15 13 10 10 9 8 7 6 5 2 1 2 2 2 2 3 2 3 4 5 8 10 9 10 10 10 11 11 10 10 9 9 9 9 8 8 8 8 9
15 15 15 15 13 12 13 12 9 8 6 5 4 2 1 1 2 3 5 4 5 4 6 7 9 10 9 10 11 12 13 14 15 15 15 13 11 11 10 10 10 10 9 10
17 14 14 12 11 13 12 11 7 6 5 5 4 3 2 3 3 4 3 3 3 3 5 5 5 7 9 10 11 12 13 14 15 14 14 14 15 14 13 12 13 13 12 11
13 14 14 12 11 11 10 8 6 6 4 4 4 2 2 3 3 4 3 3 2 3 5 6 6 8 9 10 12 12 12 12 11 11 10 10 9 9 9 10 12 14 13 11

GFSNGP_925_spd_105.txt.gz
Wind_Speed
2 1 1 2 6 7 8 9 6 10 11 9 12 12 10 9 9 9 9 11 12 13 13 19 21 24 26 26 28 30 30 33 33 29 27 26 29 26 22 19 11 6 13 16
8 4 6 8 9 11 11 11 13 13 11 14 13 12 9 7 7 7 9 10 11 13 15 18 21 23 23 24 25 27 29 32 32 32 32 36 31 27 28 25 24 19 13 9
7 2 4 9 6 8 10 10 7 9 9 14 13 11 12 10 8 7 9 10 12 12 14 18 20 20 22 22 23 26 28 30 31 32 33 35 32 32 34 29 28 32 29 17
1 4 5 6 8 4 7 7 8 7 10 9 6 7 9 10 8 9 10 11 12 13 16 19 18 20 20 21 24 26 28 29 30 30 30 30 30 30 29 31 33 32 34 31
3 7 7 6 6 3 3 3 6 6 7 2 6 8 9 9 9 9 9 10 10 14 16 17 18 20 19 22 25 27 27 28 29 30 29 31 31 30 33 34 31 31 34 36
5 4 4 6 6 6 3 4 5 7 7 6 6 5 6 8 9 8 10 10 12 13 15 15 19 19 21 24 25 25 26 27 28 28 29 30 30 29 29 30 29 30 33 38
6 5 5 1 6 3 4 5 6 7 8 6 2 7 8 8 8 10 11 12 11 14 13 15 16 17 19 21 23 23 24 27 29 30 29 29 27 32 27 26 27 30 32 36
4 4 3 9 1 2 3 5 4 7 9 12 12 12 10 9 9 11 12 12 12 12 14 18 19 19 19 16 18 21 23 26 29 31 28 30 30 27 29 26 26 25 25 27
4 3 4 7 7 4 3 6 6 7 8 9 10 10 9 8 9 12 13 11 11 13 16 18 20 21 21 21 18 18 19 20 23 26 30 28 30 30 29 27 26 25 25 25
6 6 6 7 7 7 7 8 8 8 9 9 10 8 9 8 8 10 12 13 14 15 17 19 19 20 20 20 18 19 19 20 20 21 23 28 28 28 30 30 24 25 25 23
4 7 8 6 7 8 9 9 10 9 8 9 9 9 9 9 9 10 11 12 13 14 15 17 18 20 22 22 21 18 19 20 20 19 20 17 22 26 25 30 29 25 21 23
2 12 5 10 9 9 9 9 8 10 9 10 10 9 10 9 10 11 12 12 13 14 15 16 17 20 21 21 21 20 18 18 20 18 18 18 17 13 20 23 25 25 24 22
4 8 12 13 11 10 10 9 8 8 9 9 9 10 10 10 10 10 11 12 12 13 13 14 15 17 18 20 19 19 19 18 17 18 18 18 17 16 15 11 19 22 24 23
14 15 11 13 8 11 12 12 12 11 9 8 9 9 10 10 10 10 10 9 9 11 12 14 15 17 17 16 16 17 15 15 15 16 16 15 15 14 14 14 15 16 16 20
10 0 12 13 14 12 14 13 10 9 9 8 8 9 9 10 10 9 8 7 9 12 13 13 14 16 17 17 14 14 15 15 14 13 13 12 13 12 12 13 14 14 15 16
9 12 16 14 13 12 11 10 9 9 9 9 10 10 10 10 10 10 11 13 12 13 14 14 15 17 16 17 17 15 14 15 15 14 14 14 13 12 12 12 12 12 14 17
13 14 13 12 11 11 10 9 9 10 10 11 11 11 10 9 9 9 10 10 10 11 12 14 15 17 17 16 16 14 14 14 14 13 13 13 13 12 13 12 12 11 10 12
11 12 12 11 11 10 9 11 12 12 11 12 11 10 9 9 9 7 9 6 5 9 12 12 13 13 14 15 15 13 13 14 13 13 13 13 13 13 12 11 10 11 10 9
12 12 11 12 12 12 13 13 13 13 12 12 11 11 9 8 7 7 7 6 6 6 10 10 11 11 12 15 14 12 12 13 13 12 13 13 12 12 11 11 11 9 10 9
12 15 16 14 13 14 14 12 14 14 11 11 12 10 8 6 6 5 4 6 5 5 6 9 10 10 12 12 13 12 13 13 13 13 12 13 13 13 12 11 10 10 10 9
13 16 16 16 14 14 14 13 13 13 11 11 10 8 7 6 4 2 4 0 4 4 4 6 9 10 10 9 11 12 12 12 12 13 13 13 14 13 13 13 12 12 11 10
14 15 15 16 15 15 13 12 11 12 11 10 9 9 8 5 2 1 2 4 2 4 3 4 6 8 9 10 10 11 11 12 12 12 12 12 13 13 13 13 13 12 12 12
14 15 16 15 16 16 13 11 11 11 11 10 9 7 2 2 1 4 1 3 1 1 4 4 6 8 10 10 11 11 12 13 13 13 12 12 12 13 12 12 12 12 12 12
16 16 16 16 16 16 14 12 12 10 9 9 7 5 1 2 2 2 2 3 4 3 5 5 6 10 11 10 11 12 13 14 15 15 16 15 13 12 12 12 12 11 11 11
16 17 16 17 15 13 15 14 13 11 9 7 5 3 1 2 3 5 4 4 3 4 7 2 6 9 9 10 11 13 13 14 15 17 17 16 17 19 15 13 12 12 12 13
17 15 16 15 12 15 14 14 10 10 8 7 5 3 2 1 2 3 3 2 3 4 4 6 7 9 10 11 13 13 14 14 14 14 15 16 16 16 15 17 13 11 11 15
15 16 15 12 13 13 12 10 10 8 5 5 6 4 2 1 1 3 3 3 4 5 6 7 8 9 10 12 13 13 13 13 14 14 14 14 14 14 15 15 15 15 15 15

GFSNGP_925_spd_108.txt.gz
Wind_Speed
8 2 3 3 5 6 8 9 8 9 8 13 13 13 11 11 10 12 11 12 12 13 12 19 19 21 23 24 26 28 28 29 29 31 32 34 33 34 32 32 29 24 21 13
10 9 6 8 7 8 9 10 11 10 5 14 12 13 12 13 12 11 11 11 12 12 15 17 20 22 22 23 25 26 27 28 29 32 34 36 33 35 36 34 35 30 29 27
9 7 3 7 6 8 7 6 8 6 11 8 12 11 11 9 9 9 9 10 10 11 15 18 19 20 21 22 23 26 25 27 30 31 34 33 35 36 35 34 34 37 37 34
1 5 4 9 8 4 4 11 11 9 10 10 10 10 9 10 8 7 8 9 10 13 16 19 19 19 19 21 23 24 25 27 31 33 31 33 34 34 34 34 35 35 36 35
3 7 6 8 6 3 2 5 8 6 6 9 12 12 9 8 8 8 8 10 11 13 14 16 21 22 19 20 22 23 27 29 32 31 30 31 31 31 29 32 34 37 37 38
5 5 6 6 5 8 5 4 7 6 5 6 7 4 5 8 8 8 10 10 11 12 14 17 19 16 17 19 21 24 26 30 30 28 31 30 30 31 29 28 29 31 39 42
7 6 4 1 4 1 3 4 7 5 6 1 4 6 9 7 8 10 11 11 12 14 15 18 19 18 12 15 18 20 24 26 28 30 29 31 30 31 31 28 30 31 32 33
6 8 5 8 3 3 5 7 8 6 9 12 12 11 10 9 8 11 11 12 13 13 16 15 17 18 20 14 20 22 23 22 25 30 29 30 31 31 30 29 29 29 29 31
5 3 5 8 10 5 5 9 8 8 8 9 10 9 9 8 8 10 13 12 12 14 15 18 20 22 22 24 20 21 20 21 21 22 27 28 30 30 29 29 27 27 26 26
6 6 6 7 8 8 9 10 9 9 10 10 9 8 8 7 6 9 13 13 14 15 17 18 20 23 23 24 23 20 22 21 20 20 18 25 24 26 27 28 26 25 25 25
5 7 8 6 7 10 11 10 11 11 11 11 10 9 9 8 10 11 11 12 13 15 16 18 18 21 24 24 23 21 20 22 21 21 21 16 22 23 23 26 28 25 25 22
1 14 2 12 10 11 11 11 11 12 12 12 12 9 11 9 11 10 10 11 13 15 15 16 17 19 22 25 23 22 21 20 22 21 21 21 20 14 18 21 26 28 25 25
4 10 12 12 11 11 12 11 11 12 14 11 12 12 11 10 10 11 11 12 14 15 16 17 18 19 19 20 20 22 18 19 19 20 19 18 18 17 17 12 20 23 24 25
15 17 11 14 8 11 13 14 15 15 14 12 13 12 12 11 11 11 12 13 13 15 16 17 18 19 18 19 16 15 18 17 14 15 16 16 17 16 17 17 16 18 23 21
12 0 13 12 15 13 16 15 12 11 11 11 10 11 11 11 12 12 12 10 11 12 12 12 14 16 15 15 18 10 12 19 16 14 16 17 17 16 17 17 17 15 22 28
6 13 15 14 14 13 12 12 11 10 10 11 11 10 12 13 13 12 12 11 9 10 10 13 14 17 18 17 19 16 16 17 17 16 16 17 18 16 17 17 17 15 16 21
12 12 12 13 12 12 11 9 11 11 12 12 12 12 13 13 12 11 8 7 11 11 10 12 14 16 21 17 18 17 17 18 19 17 18 18 17 17 16 16 15 15 10 17
10 11 10 10 10 9 9 12 14 14 12 15 16 15 15 14 10 7 5 5 4 13 13 14 16 16 18 18 18 16 17 18 18 17 18 19 18 19 18 16 16 15 14 14
13 12 13 13 12 13 13 14 18 18 18 17 16 14 13 11 8 5 4 7 8 9 13 12 13 13 15 17 19 16 17 17 17 17 17 19 18 18 18 17 16 16 14 13
11 14 17 16 17 17 17 19 19 16 15 16 16 14 12 9 7 6 7 10 9 6 6 11 12 13 14 12 16 15 15 16 16 16 16 16 17 17 18 18 18 18 17 15
12 18 18 19 19 20 18 18 18 15 15 16 13 12 11 8 6 4 0 6 5 5 3 5 9 12 12 11 14 13 13 13 14 14 14 14 15 15 16 16 17 16 16 17
14 14 16 17 17 17 15 15 17 18 15 14 14 13 12 8 6 5 4 5 3 6 4 3 4 12 13 12 13 12 13 14 15 15 15 14 13 12 14 14 15 14 16 14
13 15 15 16 16 17 16 16 17 16 15 14 13 10 2 6 5 6 5 2 3 3 6 3 7 11 14 12 12 13 14 16 17 17 17 18 20 18 15 11 11 12 12 13
15 15 16 17 19 17 15 13 13 13 13 11 9 7 4 5 3 4 3 1 2 5 6 6 4 10 12 11 11 13 15 16 16 18 19 19 21 22 23 22 16 11 10 9
16 17 17 17 16 14 16 16 14 12 11 9 8 5 4 4 4 6 5 5 3 5 6 4 6 11 11 13 15 16 15 16 17 16 17 18 20 21 21 24 24 26 24 15
18 15 16 16 14 16 15 15 12 12 11 12 9 8 6 4 3 4 4 3 2 4 6 7 9 9 9 11 14 14 15 16 16 16 17 17 18 19 20 20 21 22 22 21
14 16 15 13 15 15 15 13 13 12 9 11 12 8 6 4 4 4 4 5 6 6 7 8 9 10 9 12 11 13 14 14 15 15 16 16 16 17 19 19 20 20 21 19

GFSNGP_925_spd_111.txt.gz
Wind_Speed
3 6 6 8 3 5 8 5 5 4 8 9 12 11 11 12 12 14 15 15 14 13 13 16 18 20 22 24 26 27 26 27 28 29 28 29 31 32 33 35 35 32 30 31
3 8 4 5 6 5 4 5 1 14 10 10 10 10 12 10 12 12 11 11 10 11 17 17 20 21 22 24 25 24 24 26 28 27 28 30 31 34 36 37 34 34 34 34
3 7 3 3 2 3 9 13 4 4 8 11 10 10 10 9 10 10 9 10 11 12 17 19 19 20 21 23 23 25 25 26 26 25 28 30 31 33 34 36 34 36 37 36
1 5 4 4 6 9 12 10 10 11 10 11 11 10 10 10 9 10 10 10 10 13 15 19 22 21 23 24 22 23 24 24 25 28 30 31 33 34 33 31 33 38 40 39
3 3 6 6 3 2 4 4 6 6 11 13 12 12 10 9 9 8 7 10 11 12 15 17 18 20 17 21 21 23 25 25 27 29 29 31 32 33 32 33 35 36 34 40
1 3 5 3 7 7 3 2 6 6 4 4 7 2 2 8 8 7 10 11 11 14 17 19 21 20 17 16 19 19 22 26 25 27 30 31 32 31 29 29 31 32 35 39
2 2 2 1 6 3 4 3 7 4 3 5 4 4 10 7 6 8 10 12 13 15 15 17 18 21 18 13 16 20 18 25 32 30 30 34 31 30 29 29 30 31 32 37
3 2 4 6 1 3 6 7 9 8 9 12 13 11 9 7 5 9 10 11 13 14 15 17 20 20 21 18 21 19 19 20 27 32 30 33 33 32 30 28 28 29 30 32
2 2 5 7 7 3 8 10 7 8 10 11 11 10 7 6 6 10 11 11 12 13 16 20 22 24 21 24 18 23 25 24 22 27 32 28 29 30 31 30 28 27 27 27
4 5 6 7 7 10 10 11 10 9 11 10 10 7 7 6 7 10 11 14 16 17 17 18 19 21 23 24 23 21 24 25 25 24 24 28 26 25 27 29 28 28 27 26
5 8 9 8 7 10 11 11 12 10 11 11 10 8 8 8 8 12 15 16 17 15 14 14 16 21 23 24 24 20 20 23 24 24 24 20 22 24 24 27 29 25 25 27
3 14 4 11 12 12 11 12 12 12 12 13 13 10 12 10 12 13 16 16 16 15 15 15 16 20 22 22 20 21 19 20 24 24 24 22 23 18 16 21 26 25 23 26
5 8 12 15 13 12 12 12 12 12 15 12 15 15 13 13 14 16 16 14 14 15 15 17 18 20 22 22 22 27 25 24 22 25 24 24 23 22 20 13 23 28 24 26
16 19 11 13 8 12 13 17 19 17 18 17 17 17 16 16 17 15 15 13 13 15 19 21 22 22 21 22 18 21 23 22 19 20 22 23 23 22 23 21 22 28 29 27
8 8 13 12 14 12 17 17 12 10 12 14 17 17 18 17 15 15 14 13 13 17 17 19 22 21 18 19 20 19 19 21 19 20 22 23 22 22 22 22 19 23 26 27
11 14 16 15 14 13 12 12 11 9 10 15 18 20 20 20 17 15 14 12 14 13 14 17 18 18 14 16 17 18 18 19 19 19 21 22 23 22 22 21 20 20 22 22
13 13 14 14 12 12 10 11 11 11 15 17 19 22 21 18 15 15 16 14 13 12 13 15 15 16 15 16 16 17 17 19 19 20 23 22 21 21 21 21 20 17 17 16
9 8 10 10 10 8 9 15 18 18 15 20 25 24 20 16 16 13 12 11 14 14 12 11 11 12 15 18 16 17 19 20 18 20 20 21 21 21 22 21 22 21 20 15
13 11 14 14 15 16 16 16 17 23 25 25 24 21 18 17 15 12 6 8 7 10 12 14 12 13 11 15 15 16 16 17 17 17 17 17 18 19 20 20 20 20 20 20
11 16 21 18 24 22 16 21 25 23 22 22 23 21 18 14 14 12 11 12 10 12 12 10 10 12 13 13 14 14 14 15 16 15 15 15 15 14 15 15 16 16 18 18
12 18 19 21 19 20 22 24 25 23 21 22 22 19 17 14 13 11 11 8 9 8 5 4 9 14 14 11 11 14 13 15 16 17 18 19 20 17 15 15 13 11 12 11
15 16 18 20 19 17 20 21 24 25 22 19 18 16 15 12 10 8 9 9 9 7 5 7 5 11 14 9 12 12 14 16 16 17 18 20 21 21 21 21 24 16 12 10
14 17 18 18 18 18 20 22 24 24 22 20 20 17 10 8 8 13 10 7 7 5 3 1 5 10 10 11 13 14 14 14 15 16 17 19 19 20 19 22 23 26 28 17
16 16 17 20 23 20 17 20 19 18 19 19 15 9 7 8 15 12 11 7 6 4 3 1 6 8 7 9 13 13 14 15 15 15 17 17 17 17 17 21 22 22 24 24
16 17 20 19 16 14 18 19 19 19 18 14 13 11 9 8 9 9 8 8 7 5 6 7 7 6 8 10 12 12 13 13 13 15 16 16 16 16 17 20 21 21 19 20
17 15 16 16 16 19 19 20 17 21 20 18 14 13 11 9 10 10 8 9 10 8 9 7 6 8 8 9 9 11 12 12 14 15 15 15 15 17 19 21 20 20 18 18
14 17 16 15 20 21 22 22 22 21 22 22 20 15 12 10 11 11 11 8 8 8 7 7 7 7 7 8 9 10 10 11 14 15 14 14 17 20 20 18 16 16 17 17

GFSNGP_925_spd_114.txt.gz
Wind_Speed
7 3 4 5 2 8 12 12 7 6 9 10 8 10 9 9 9 9 9 9 10 10 11 14 15 16 18 21 21 20 22 24 26 26 27 29 30 30 31 33 33 33 32 31
2 11 3 4 3 2 2 2 8 15 10 10 11 10 7 7 7 8 10 10 10 11 14 14 17 17 17 18 21 20 22 25 25 25 27 27 31 33 32 32 33 34 36 34
3 7 5 5 2 5 5 7 6 6 6 10 9 8 7 8 8 8 8 8 8 9 14 15 15 18 18 18 20 23 24 26 26 27 28 30 30 30 33 34 35 34 35 35
2 6 4 2 5 8 14 6 6 13 12 9 11 10 9 7 7 7 6 5 6 9 11 14 15 15 15 19 22 27 28 27 28 28 27 28 29 30 33 30 31 32 36 37
3 4 3 4 4 5 4 3 3 8 12 14 12 11 9 7 6 5 6 6 7 9 10 13 15 14 15 20 22 24 26 25 26 27 28 28 29 27 28 30 31 32 34 38
3 4 6 3 3 4 4 1 5 5 12 14 12 3 4 8 7 6 10 9 9 12 15 19 21 19 18 17 20 21 21 23 28 25 29 29 29 26 28 30 29 30 32 36
2 2 0 1 4 2 4 4 6 4 3 7 6 2 10 7 5 9 11 12 14 15 16 18 20 20 21 21 23 20 16 26 29 29 27 28 27 31 31 29 28 30 31 33
3 2 5 2 0 5 5 4 7 5 4 10 13 12 9 7 5 8 11 14 13 15 16 17 19 20 21 22 22 21 23 21 26 29 26 28 28 27 30 29 29 28 29 30
2 2 2 3 4 7 5 9 7 9 8 12 12 10 7 5 4 12 14 13 12 13 14 18 20 20 19 21 19 20 21 22 21 23 27 26 24 26 28 28 27 27 27 27
4 4 5 7 8 8 10 9 11 12 11 10 12 8 7 5 7 11 14 14 13 14 14 15 18 19 20 18 15 17 20 22 22 21 20 23 22 23 26 27 24 26 25 27
4 7 8 6 7 11 11 12 12 10 10 10 11 9 9 8 10 14 15 14 14 12 12 15 17 18 18 17 16 15 17 19 19 19 20 19 20 21 24 28 26 24 26 25
4 12 4 11 11 13 12 11 10 12 11 12 12 10 12 9 12 14 14 14 16 15 14 12 14 16 16 20 18 16 14 16 20 21 23 22 21 19 19 24 25 25 26 27
4 9 8 15 14 12 12 13 11 11 14 12 16 17 16 14 13 15 15 16 17 15 13 13 15 19 17 16 20 23 23 21 24 25 24 23 23 21 20 25 26 26 26 25
16 18 13 13 9 13 12 17 19 17 17 16 18 17 16 16 15 13 14 15 14 14 14 14 17 19 20 21 18 21 22 21 21 23 23 23 24 23 19 23 23 27 27 25
8 2 12 14 16 14 18 17 13 11 13 14 17 18 16 15 13 13 14 11 11 14 15 17 18 20 19 18 18 20 20 21 21 20 22 22 21 21 21 19 19 19 22 23
11 14 16 17 15 15 15 14 13 12 12 15 17 18 18 19 17 15 11 10 12 14 15 17 20 19 17 15 16 18 19 19 20 20 21 21 21 20 19 22 21 21 17 20
14 14 16 15 15 15 14 10 12 12 17 19 19 20 22 18 16 17 16 16 18 17 15 17 17 16 14 15 16 15 16 16 17 18 19 18 19 19 19 19 20 20 20 20
9 9 11 13 13 12 11 15 18 19 18 21 22 23 23 20 18 18 17 16 16 14 12 13 12 12 13 14 15 15 14 15 15 15 15 16 15 15 16 16 15 16 18 18
15 13 14 14 15 16 17 17 19 22 26 28 26 23 22 22 20 18 15 14 14 16 14 11 10 8 10 12 11 11 12 13 13 14 14 14 14 13 14 14 14 13 14 13
9 15 21 17 20 23 17 17 25 24 27 28 26 25 24 20 15 14 12 13 13 12 12 12 10 10 8 8 9 11 11 12 14 14 15 16 16 17 18 17 16 15 14 11
11 17 19 20 16 19 23 25 25 23 25 27 27 25 25 20 18 17 16 14 13 10 7 6 8 10 10 9 10 10 11 12 13 14 15 15 16 17 17 19 21 22 19 14
13 13 15 19 19 17 19 23 23 26 25 23 23 24 23 19 15 11 10 10 11 8 7 6 6 9 8 7 8 9 10 11 11 12 14 15 14 14 16 18 20 20 22 22
13 15 17 17 18 19 20 21 23 25 25 24 24 23 21 19 17 17 13 12 9 7 10 7 6 7 7 7 8 8 8 9 11 11 12 13 12 12 15 16 17 18 18 18
16 15 16 20 23 20 16 17 22 22 23 22 20 17 12 14 12 12 9 14 8 8 7 7 6 5 6 7 8 8 8 9 10 11 12 12 12 13 15 16 17 17 15 15
16 18 20 19 16 14 17 18 19 20 22 20 15 12 15 16 12 15 12 10 8 9 12 7 5 4 4 6 7 8 8 8 9 11 12 12 13 15 17 17 15 14 12 11
16 14 15 15 15 19 20 20 17 19 20 20 16 17 15 13 16 16 14 11 12 12 9 6 4 3 4 5 6 7 7 8 10 12 11 12 14 17 19 15 13 12 12 12
12 15 14 13 16 19 20 21 22 21 25 25 23 19 17 17 16 16 17 14 12 9 7 5 3 2 3 5 6 7 7 10 12 11 11 13 16 19 19 16 13 12 12 14

GFSNGP_925_spd_117.txt.gz
Wind_Speed
5 5 2 4 13 14 15 12 8 6 10 15 15 14 12 10 8 6 6 6 8 8 11 12 11 12 14 16 18 19 22 22 23 23 24 25 25 26 28 29 30 31 33 33
4 10 9 10 14 8 13 15 13 6 7 11 12 13 10 9 7 6 5 5 7 6 7 9 12 12 14 18 21 21 20 21 21 23 24 25 25 29 27 31 32 34 36 35
7 4 7 7 10 11 3 1 6 7 7 16 14 13 10 8 7 7 6 5 5 4 6 8 10 12 14 17 18 21 22 22 25 27 27 29 29 30 32 32 31 34 37 36
1 3 7 1 3 4 6 2 3 8 16 14 11 11 8 6 8 7 5 5 4 4 6 9 8 11 14 17 20 20 21 21 24 26 28 29 30 30 31 30 30 29 34 37
3 4 2 2 4 5 4 4 0 11 14 15 13 11 5 6 5 5 5 6 7 8 8 12 15 14 12 15 17 21 22 24 24 26 27 31 31 29 29 28 30 32 34 37
2 3 6 5 3 5 3 3 8 10 16 17 11 3 4 7 6 5 9 9 11 12 14 17 16 17 17 17 17 17 23 23 23 23 28 30 30 31 31 31 30 28 31 35
5 4 4 2 5 3 5 5 5 9 14 15 5 2 10 10 6 11 10 12 11 13 15 13 13 15 17 19 18 18 18 24 26 26 26 29 26 28 29 27 28 30 31 33
4 3 6 2 3 6 4 4 5 4 4 10 12 12 11 9 7 11 13 12 11 12 11 11 12 14 16 18 17 18 20 22 24 26 25 27 28 28 27 27 28 29 30 31
3 4 1 2 2 3 4 5 3 5 7 14 16 12 10 7 6 12 14 11 9 10 10 13 13 14 14 15 16 19 21 22 21 21 23 24 25 27 27 28 29 27 28 29
3 3 3 4 5 5 6 8 8 11 12 13 15 12 10 9 7 11 13 12 12 13 11 12 13 12 14 15 16 18 19 19 20 20 19 20 23 24 26 27 26 26 26 26
3 4 6 4 5 10 10 12 12 11 11 12 14 10 11 9 9 13 14 12 14 12 10 9 11 16 16 15 15 14 17 19 18 19 19 20 22 25 26 29 28 25 23 26
5 11 3 9 10 13 14 13 12 13 11 11 15 11 14 10 12 13 14 13 14 12 10 10 13 16 17 16 15 15 15 17 17 17 20 20 19 23 22 23 23 25 25 27
4 11 4 13 13 12 13 12 11 11 13 13 15 18 15 14 13 16 16 14 14 14 14 16 18 17 16 16 16 18 18 16 20 21 22 20 19 20 22 23 22 22 24 25
14 18 11 10 7 12 13 15 19 17 16 16 17 18 17 17 16 14 13 13 13 15 16 16 17 17 15 15 15 18 19 19 19 18 17 19 21 20 20 20 22 25 24 22
3 4 9 12 14 13 18 17 14 12 13 15 17 17 18 17 15 14 13 11 13 16 15 15 16 16 14 14 15 18 19 18 16 17 18 19 19 20 22 23 22 20 22 22
8 12 15 15 15 14 14 14 13 13 13 16 16 16 17 19 19 16 15 13 14 14 13 15 16 14 13 12 15 17 17 16 18 19 20 20 21 21 21 20 20 19 19 21
13 10 12 13 14 15 14 12 11 12 18 17 18 20 19 20 19 17 16 16 15 14 14 14 15 13 13 15 16 15 14 15 15 17 18 18 18 18 18 18 18 18 19 17
6 7 9 12 13 13 11 13 17 19 18 21 23 24 23 19 19 22 20 17 14 14 12 11 11 10 12 13 13 13 12 11 12 13 13 15 14 13 14 15 15 16 17 16
12 9 10 14 16 14 14 16 19 20 25 28 27 23 23 23 26 23 20 17 16 15 10 10 8 8 9 10 8 8 9 9 11 12 12 13 13 14 15 17 18 17 16 16
8 14 16 15 18 18 15 17 23 22 25 27 26 24 23 25 25 22 18 18 15 12 11 10 9 7 7 8 6 7 7 9 10 11 12 13 13 14 15 16 18 20 20 20
9 14 15 17 15 20 22 23 23 21 24 28 29 25 26 24 20 19 17 16 15 13 10 7 7 8 7 6 6 6 7 9 10 11 12 12 12 13 15 16 16 17 18 18
11 12 13 17 16 14 19 23 23 24 24 23 24 27 26 22 21 19 15 18 16 11 9 5 5 6 5 4 6 5 7 9 10 11 11 12 12 13 14 15 16 16 15 14
12 13 15 16 17 17 20 22 23 26 24 24 27 29 26 26 24 18 11 13 13 10 12 7 6 6 4 5 6 6 8 9 10 10 10 11 11 12 13 15 15 14 13 12
15 14 15 18 22 19 15 16 21 22 23 24 26 27 25 22 15 13 10 16 12 14 12 9 7 4 4 5 5 7 8 8 9 9 9 9 10 12 14 14 13 12 11 11
15 17 18 18 14 12 17 19 19 18 20 19 22 21 19 19 17 15 19 15 13 13 12 10 6 3 3 3 5 6 7 7 8 9 9 9 11 13 15 14 12 12 12 13
14 12 13 13 13 17 19 20 18 19 19 20 18 18 18 16 17 20 17 15 15 15 12 9 5 3 2 3 5 5 6 6 7 8 8 9 12 15 16 15 13 14 14 15
12 14 14 13 15 18 19 19 21 19 21 24 22 21 19 20 20 19 17 17 16 13 10 8 5 3 2 2 3 5 6 6 7 7 9 12 15 17 16 15 15 16 16 17

GFSNGP_925_spd_123.txt.gz
Wind_Speed
13 10 7 8 12 13 15 17 11 22 16 14 18 17 16 14 13 12 9 6 5 5 6 7 9 10 11 11 12 12 13 14 15 15 15 17 18 19 19 20 23 25 26 30
14 9 13 14 15 14 16 18 16 18 21 8 14 12 16 17 16 14 11 8 7 6 6 7 8 9 11 11 12 12 15 16 17 17 18 20 19 20 21 21 23 25 27 27
12 6 7 10 19 18 14 16 15 16 19 10 11 19 20 19 16 14 13 10 8 7 6 7 8 8 11 11 11 14 16 17 18 18 20 21 20 21 22 23 20 23 25 27
7 5 12 5 2 6 14 17 15 11 7 17 14 10 12 14 15 14 13 12 9 9 7 6 6 7 6 11 12 14 15 16 18 17 17 18 20 22 21 20 22 23 25 26
7 8 6 7 6 7 7 8 12 12 12 13 15 13 6 10 11 13 13 14 12 10 9 8 9 8 9 9 13 13 14 15 17 18 18 18 21 19 19 20 22 23 24 27
5 8 8 3 2 5 4 9 13 15 18 20 16 9 7 12 13 15 17 15 14 13 12 13 10 10 12 11 12 14 14 15 14 16 18 20 18 19 19 20 20 20 22 27
4 3 5 5 7 5 5 4 8 13 16 18 11 0 14 16 14 19 18 17 15 13 15 14 12 14 14 12 11 10 11 13 14 13 16 17 18 19 20 21 19 21 22 24
3 6 10 9 7 8 1 2 7 12 14 11 10 15 17 16 15 18 18 17 14 14 12 10 10 12 13 13 11 11 12 12 14 15 15 17 20 21 20 20 22 21 23 25
8 4 1 1 2 2 2 4 7 12 12 15 16 16 17 15 14 16 17 15 13 14 13 10 9 9 10 9 8 9 10 12 12 13 15 17 20 19 19 19 22 23 22 24
3 4 3 4 1 3 2 5 9 12 17 16 17 17 16 13 12 15 16 15 14 14 13 11 9 9 9 8 8 8 8 9 9 12 14 16 16 17 19 19 19 20 21 21
2 1 0 7 8 8 8 10 12 13 16 16 18 16 18 14 14 15 15 15 14 14 13 12 9 8 8 7 7 8 8 9 9 10 11 11 13 16 16 19 20 20 19 21
5 6 3 1 13 13 13 12 14 16 14 15 18 17 20 14 18 18 17 16 16 14 14 12 10 10 9 7 7 7 8 8 9 9 8 9 8 11 16 15 16 18 19 20
1 6 4 9 13 9 13 13 13 14 15 18 18 23 22 20 17 18 16 16 17 18 17 16 15 14 11 8 8 9 9 8 9 8 8 8 9 10 11 12 13 15 18 21
12 11 8 10 6 11 14 16 19 19 20 21 22 21 20 20 20 18 17 16 18 19 18 17 16 15 12 11 12 13 13 12 9 8 8 8 9 10 9 10 10 12 14 19
2 1 6 12 15 14 19 18 16 15 15 17 21 22 22 21 19 18 19 18 17 18 18 17 18 15 12 11 13 13 12 12 11 10 9 8 8 9 9 10 10 11 13 15
8 10 14 15 15 16 16 16 16 15 15 20 21 21 21 20 20 20 18 18 20 17 18 19 17 15 13 11 13 12 11 9 7 6 6 7 8 9 10 11 11 12 14 16
13 7 10 12 14 15 15 13 14 16 20 21 22 23 23 23 21 18 17 17 20 22 20 18 18 15 13 11 10 8 6 5 6 7 8 7 8 9 9 10 11 12 13 16
0 6 11 14 15 14 13 15 19 21 20 23 24 24 23 22 19 21 23 23 23 20 18 17 16 15 13 11 9 7 6 5 6 7 7 8 7 8 9 10 11 12 12 14
4 10 12 14 17 16 16 17 18 20 23 25 24 22 22 22 26 28 27 26 24 20 18 17 14 12 11 9 8 7 7 6 6 6 6 7 8 8 9 10 11 12 12 13
9 12 16 16 17 18 16 18 21 21 21 23 23 22 19 23 28 29 27 20 16 13 19 16 13 12 10 9 6 6 6 6 6 6 6 6 7 8 9 11 11 11 11 11
8 11 13 15 15 17 20 22 22 19 20 25 23 20 21 25 29 28 22 16 17 18 16 13 12 13 11 8 6 6 6 6 6 6 5 6 6 8 9 10 10 10 9 10
8 8 12 15 15 14 17 21 22 23 23 21 22 25 26 23 27 21 16 16 21 18 16 14 13 11 9 7 6 6 7 6 6 5 5 5 6 8 10 10 10 9 9 9
11 12 14 15 14 14 17 20 22 26 25 26 26 27 25 24 25 21 15 19 21 19 15 14 13 11 8 6 7 6 6 5 5 4 4 5 8 9 9 9 9 9 9 11
11 14 12 16 19 16 14 13 18 20 24 25 26 28 25 22 16 12 12 24 22 19 15 15 13 10 7 6 6 5 5 5 3 2 3 6 7 8 9 9 9 10 11 12
11 13 13 14 13 11 14 16 17 18 19 17 20 21 22 19 17 18 19 26 22 19 17 15 12 9 7 6 5 4 4 3 1 2 3 5 6 8 9 9 10 11 12 14
11 10 10 11 11 14 15 17 16 17 18 17 16 19 17 20 18 21 23 24 22 20 18 16 12 9 6 5 4 2 2 2 1 1 3 5 6 7 8 8 10 12 14 15
9 11 11 9 9 13 15 16 18 18 18 19 19 18 22 22 21 23 24 23 22 20 17 15 12 9 7 5 3 2 3 2 1 1 3 5 6 6 7 9 11 13 14 16

GFSNGP_925_spd_126.txt.gz
Wind_Speed
19 18 17 17 18 18 21 21 18 21 21 23 16 12 16 17 16 15 15 12 8 6 6 6 6 6 6 8 9 9 10 10 12 12 12 12 13 14 14 17 18 18 20 23
21 19 19 21 24 25 24 25 24 23 29 20 18 8 15 18 19 17 15 11 10 9 9 8 6 7 7 8 8 9 10 10 11 12 13 13 14 15 15 15 18 18 20 21
18 16 17 16 25 25 27 23 22 23 26 20 12 13 19 20 19 19 16 14 12 11 10 9 8 8 8 8 8 9 10 10 11 11 12 13 13 14 15 16 17 18 21 21
12 7 15 15 6 11 17 20 23 23 22 16 14 13 14 17 19 17 16 15 13 14 12 10 10 8 8 8 9 9 11 12 12 11 12 12 15 16 16 15 17 19 20 22
9 14 19 21 9 5 9 18 16 18 18 10 5 10 5 11 14 14 15 17 15 15 13 11 9 9 9 10 9 11 11 11 12 12 13 14 15 16 16 16 17 19 20 22
15 17 20 17 15 7 5 12 13 16 14 15 15 9 8 15 16 15 20 20 18 15 13 12 10 10 11 10 11 11 10 10 11 13 14 15 14 15 15 14 16 16 19 21
16 17 13 9 6 9 8 5 1 7 10 16 14 3 19 16 15 21 21 21 19 16 14 13 12 13 12 11 11 9 10 11 12 12 13 13 13 14 14 16 16 18 17 20
13 10 11 10 11 8 0 1 4 6 12 13 10 15 16 16 16 19 21 21 18 17 15 14 13 14 13 12 9 9 9 10 12 11 12 13 13 14 16 16 17 16 17 18
8 3 2 15 0 4 2 2 6 10 11 14 16 16 17 16 17 20 21 20 18 17 16 13 12 12 13 11 10 9 9 10 10 10 11 12 14 14 15 16 16 17 17 18
1 7 7 10 7 5 4 4 8 12 15 15 15 17 17 16 15 17 19 19 18 18 16 15 12 12 11 10 9 8 8 8 8 9 10 12 12 14 16 16 15 16 16 18
9 5 5 11 12 10 8 9 11 12 15 16 18 17 18 16 16 19 18 17 17 16 16 15 14 12 11 10 9 8 8 7 6 7 8 10 13 14 13 15 15 15 15 14
7 2 6 2 10 11 11 12 14 16 15 16 18 18 19 15 20 20 19 18 16 16 17 15 14 13 10 9 8 8 7 6 6 7 7 7 6 8 12 11 13 14 16 16
2 5 5 5 9 10 11 12 13 14 15 18 18 22 24 21 19 20 19 18 17 17 16 15 14 13 11 9 8 8 8 7 7 6 7 7 6 6 5 6 8 11 13 13
8 8 5 7 5 9 11 12 15 16 18 20 21 23 24 21 22 20 19 18 18 17 15 15 16 14 11 11 12 12 10 9 8 8 7 6 6 5 5 5 6 7 6 10
2 1 1 8 12 12 14 15 15 15 15 17 22 23 22 22 20 20 20 20 19 17 15 15 17 15 13 12 11 11 10 8 8 7 6 4 4 4 5 5 6 8 9 11
5 7 9 11 13 13 14 15 15 15 15 19 21 21 22 21 21 22 20 20 21 18 16 15 14 15 14 12 11 10 9 8 6 5 3 3 4 5 5 6 6 7 9 12
9 7 9 11 12 13 13 12 13 14 17 19 21 23 22 22 22 21 19 17 15 17 15 14 16 15 13 9 7 7 7 5 5 4 3 3 4 5 5 5 6 6 7 10
1 2 8 11 12 12 12 12 15 18 18 21 21 21 21 21 20 21 19 17 17 16 14 14 16 14 11 8 6 6 5 4 4 4 3 3 4 4 5 5 6 6 7 8
2 5 8 10 14 12 13 14 17 18 18 21 21 20 19 17 20 21 20 19 17 16 13 16 15 11 8 7 6 5 5 4 4 4 3 4 4 5 5 5 6 6 7 8
7 9 11 13 13 15 15 16 19 19 20 21 19 19 18 18 20 20 19 18 16 13 19 15 13 10 8 7 6 5 5 4 4 4 3 4 4 4 4 5 5 6 6 7
8 9 10 12 13 15 17 21 21 20 20 20 21 20 19 19 19 21 21 17 13 17 16 16 12 11 9 8 6 5 5 5 4 4 3 3 3 3 3 4 4 5 6 7
9 9 11 13 14 14 15 17 18 19 20 19 19 21 21 20 19 17 14 15 18 20 16 13 12 12 10 9 6 6 6 5 4 4 3 3 3 2 3 3 4 5 6 7
9 10 11 10 12 13 13 13 15 19 20 21 23 24 22 22 23 21 16 17 20 19 15 14 14 15 12 8 7 6 6 5 4 4 3 3 2 2 2 2 3 5 6 6
11 11 11 10 12 13 12 12 13 14 17 18 20 24 23 22 18 14 13 20 20 19 15 16 18 15 11 8 7 6 6 5 4 4 3 3 2 2 1 2 3 5 5 7
11 11 11 12 11 10 11 14 14 14 16 15 17 19 18 17 19 18 18 21 22 18 15 18 17 15 9 8 7 7 6 5 5 4 3 2 0 1 1 2 4 4 5 6
11 9 9 10 8 11 13 16 14 16 17 17 17 18 18 17 15 18 19 21 21 17 16 19 17 12 9 8 8 7 6 5 4 4 3 2 2 1 2 3 3 4 5 6
8 9 9 8 8 10 13 15 15 17 18 19 19 19 19 17 18 18 20 21 19 17 16 15 14 12 10 9 7 6 6 6 6 4 3 2 2 2 3 3 4 5 6 7

GFSNGP_925_spd_129.txt.gz
Wind_Speed
21 23 11 11 13 18 18 17 12 18 19 21 17 12 18 13 15 15 17 16 14 11 10 9 7 6 4 3 5 4 6 7 9 9 11 12 12 13 13 14 15 15 16 19
22 23 22 22 22 26 22 23 23 23 25 23 22 20 16 17 16 17 17 16 14 12 13 11 9 8 6 5 6 6 6 7 8 10 11 12 12 12 13 14 15 16 17 18
21 20 20 18 29 23 25 26 24 23 24 24 20 17 13 12 18 17 17 16 15 13 14 13 11 9 8 7 7 7 7 8 9 10 11 12 12 12 14 14 14 16 17 18
6 11 13 13 17 25 21 24 23 24 22 22 18 14 9 9 16 15 15 14 14 16 16 15 13 10 9 8 8 8 9 10 10 10 10 10 12 13 13 13 14 15 17 18
7 12 16 19 15 6 11 17 17 19 19 18 13 2 4 5 13 14 15 17 17 18 18 16 14 11 10 10 9 9 10 11 11 11 11 11 13 13 13 12 13 15 16 18
12 14 17 19 20 13 10 14 16 20 19 16 8 8 7 9 13 16 22 22 18 18 17 15 14 13 12 11 10 10 9 10 10 11 11 12 12 12 12 12 13 12 14 18
15 14 16 24 24 2 11 14 7 6 5 5 10 3 13 15 14 23 23 21 21 18 16 15 14 14 13 13 12 11 10 9 10 10 11 10 11 11 11 10 10 12 13 16
13 17 18 14 2 12 5 0 1 2 1 8 12 14 12 14 16 18 21 22 20 19 18 17 16 16 15 14 12 11 11 10 10 10 10 10 9 9 10 9 11 12 14 16
11 6 6 6 9 8 3 3 2 3 6 14 15 14 14 14 14 17 21 22 21 20 19 18 17 16 15 15 13 12 12 11 10 10 9 9 11 10 10 11 13 13 15 16
8 11 14 9 8 6 6 4 4 7 11 13 14 15 14 13 13 16 20 22 21 20 18 17 15 14 15 15 14 12 11 10 9 9 10 9 10 11 13 14 13 13 13 15
14 16 5 8 13 10 6 4 7 9 13 14 16 16 17 14 13 18 19 20 21 19 18 17 16 15 14 13 12 12 10 9 9 8 8 11 12 12 12 14 15 14 14 13
12 3 10 4 9 11 10 9 10 13 14 14 15 17 17 13 20 21 19 19 18 19 18 18 16 15 13 12 11 11 11 9 7 7 6 6 7 9 11 11 11 12 13 14
6 1 4 3 3 6 9 10 11 12 13 16 18 20 22 19 22 21 20 17 17 17 16 16 15 14 11 10 10 10 10 10 9 7 7 7 6 6 5 3 4 7 10 12
3 5 4 5 3 7 8 10 12 13 16 18 21 22 22 20 23 22 20 20 20 18 15 15 14 11 10 12 15 15 12 10 9 8 7 6 6 6 5 6 6 4 7 10
5 3 2 5 9 9 9 12 13 13 14 15 21 21 22 22 22 22 22 21 21 20 18 17 16 13 12 14 14 14 12 10 9 7 6 6 4 4 4 4 5 6 6 10
5 4 6 7 9 10 10 12 13 13 14 15 18 21 21 22 21 22 22 23 23 20 18 17 16 14 13 14 13 12 10 8 6 5 5 5 5 4 4 4 5 6 8 10
6 6 7 8 8 9 10 10 10 13 14 17 19 21 22 22 22 22 21 18 17 19 18 17 17 16 15 12 10 10 9 7 7 5 5 5 4 4 4 5 5 6 7 7
2 2 4 7 8 9 9 10 13 16 14 19 19 18 19 20 18 21 20 19 20 18 16 16 18 17 12 10 9 8 7 6 5 5 4 4 4 4 4 4 4 5 6 6
3 3 5 7 9 8 9 9 13 15 15 19 19 17 19 17 21 21 20 20 20 19 15 16 17 14 12 10 9 8 7 6 6 5 4 5 4 4 3 3 3 4 5 6
7 7 7 9 9 10 9 13 17 17 18 21 21 19 18 18 20 20 19 18 16 15 19 18 16 13 12 11 9 8 7 6 6 5 4 4 3 2 2 3 3 3 4 5
8 8 9 10 11 13 14 16 17 17 18 20 20 19 19 19 20 21 20 17 14 20 18 18 15 13 11 11 9 8 7 6 6 5 4 4 3 2 1 1 2 3 3 4
8 8 9 10 11 11 11 13 13 16 17 17 17 20 21 20 19 17 14 16 17 20 18 16 14 13 13 12 8 8 7 7 6 5 4 3 3 2 1 0 1 2 3 4
9 10 10 11 10 10 11 12 13 15 16 17 20 21 21 21 20 19 14 17 20 19 16 14 16 16 15 9 9 8 7 7 6 5 5 4 3 2 1 1 1 2 3 4
10 10 10 11 13 12 9 10 11 12 13 15 16 19 21 20 16 14 13 18 20 19 15 17 16 17 12 9 8 8 7 6 6 5 5 6 3 2 1 2 1 2 3 5
11 11 11 11 10 9 12 12 12 13 14 15 16 17 16 16 18 17 17 19 21 18 14 16 19 17 10 9 8 7 7 6 6 6 5 5 4 3 3 3 2 2 3 4
12 10 10 10 8 11 12 14 12 14 16 16 17 18 16 16 16 17 18 19 21 17 15 17 16 13 10 9 8 8 7 7 9 7 6 5 5 5 4 3 2 3 4 5
8 8 9 9 8 10 12 13 13 15 17 18 19 19 19 19 20 19 20 21 20 17 16 16 15 13 10 9 9 8 7 7 7 7 6 6 6 6 5 4 4 4 4 5